Time,TemperatureF,DewpointF,PressureIn,WindDirection,WindDirectionDegrees,WindSpeedMPH,WindSpeedGustMPH,Humidity,HourlyPrecipIn,Conditions,Clouds,dailyrainin,SoftwareType,DateUTC
2013-01-26 00:00:00,36.7,24.5,30.25,NE,36,2.0,3.0,61,0.00,,SKC,0.00,VWS V14.01,2013-01-26 07:00:00,
2013-01-26 00:01:00,36.8,24.6,30.25,NE,38,2.0,3.0,61,0.00,,SKC,0.00,VWS V14.01,2013-01-26 07:01:00,
2013-01-26 00:02:00,36.8,24.6,30.25,NE,34,0.0,2.0,61,0.00,,SKC,0.00,VWS V14.01,2013-01-26 07:02:00,
2013-01-26 00:03:00,36.9,24.7,30.25,NNE,30,0.0,0.0,61,0.00,,SKC,0.00,VWS V14.01,2013-01-26 07:03:00,
2013-01-26 00:04:00,36.9,24.7,30.25,NE,36,0.0,0.0,61,0.00,,SKC,0.00,VWS V14.01,2013-01-26 07:04:00,
2013-01-26 00:05:00,36.9,24.7,30.25,NE,39,0.0,0.0,61,0.00,,SKC,0.00,VWS V14.01,2013-01-26 07:05:00,
2013-01-26 00:06:00,36.9,24.7,30.25,NNE,32,1.0,2.0,61,0.00,,SKC,0.00,VWS V14.01,2013-01-26 07:06:00,
2013-01-26 00:07:00,36.9,24.7,30.25,NE,37,0.0,1.0,61,0.00,,SKC,0.00,VWS V14.01,2013-01-26 07:07:00,
2013-01-26 00:08:00,36.9,24.7,30.25,NE,34,0.0,0.0,61,0.00,,SKC,0.00,VWS V14.01,2013-01-26 07:08:00,
2013-01-26 00:09:00,36.9,24.7,30.24,NNE,32,3.0,4.0,61,0.00,,SKC,0.00,VWS V14.01,2013-01-26 07:09:00,
2013-01-26 00:10:00,36.8,24.6,30.25,NNE,28,1.0,4.0,61,0.00,,SKC,0.00,VWS V14.01,2013-01-26 07:10:00,
2013-01-26 00:11:00,36.8,24.6,30.24,NNE,30,1.0,3.0,61,0.00,,SKC,0.00,VWS V14.01,2013-01-26 07:11:00,
2013-01-26 00:12:00,36.9,25.1,30.24,NNE,30,1.0,1.0,62,0.00,,SKC,0.00,VWS V14.01,2013-01-26 07:12:00,
2013-01-26 00:13:00,37.0,24.8,30.24,NNE,28,0.0,1.0,61,0.00,,SKC,0.00,VWS V14.01,2013-01-26 07:13:00,
2013-01-26 00:14:00,37.1,25.3,30.24,NNE,29,0.0,0.0,62,0.00,,SKC,0.00,VWS V14.01,2013-01-26 07:14:00,
2013-01-26 00:15:00,37.2,25.0,30.24,NNE,29,1.0,1.0,61,0.00,,SKC,0.00,VWS V14.01,2013-01-26 07:15:00,
2013-01-26 00:16:00,37.3,25.1,30.24,NE,44,3.0,4.0,61,0.00,,SKC,0.00,VWS V14.01,2013-01-26 07:16:00,
2013-01-26 00:17:00,37.4,25.2,30.24,NE,42,2.0,3.0,61,0.00,,SKC,0.00,VWS V14.01,2013-01-26 07:17:00,
2013-01-26 00:18:00,37.4,24.8,30.24,NE,38,3.0,3.0,60,0.00,,SKC,0.00,VWS V14.01,2013-01-26 07:18:00,
2013-01-26 00:19:00,37.4,24.8,30.24,South,190,4.0,5.0,60,0.00,,SKC,0.00,VWS V14.01,2013-01-26 07:19:00,
2013-01-26 00:20:00,37.4,24.8,30.24,SSW,194,0.0,4.0,60,0.00,,SKC,0.00,VWS V14.01,2013-01-26 07:20:00,
2013-01-26 00:21:00,37.4,24.8,30.24,WNW,302,3.0,4.0,60,0.00,,SKC,0.00,VWS V14.01,2013-01-26 07:21:00,
2013-01-26 00:22:00,37.4,24.8,30.24,NW,306,1.0,4.0,60,0.00,,SKC,0.00,VWS V14.01,2013-01-26 07:22:00,
2013-01-26 00:23:00,37.4,24.8,30.24,NW,309,3.0,3.0,60,0.00,,SKC,0.00,VWS V14.01,2013-01-26 07:23:00,
2013-01-26 00:24:00,37.5,24.9,30.24,NW,307,0.0,3.0,60,0.00,,SKC,0.00,VWS V14.01,2013-01-26 07:24:00,
2013-01-26 00:25:00,37.4,24.8,30.23,NW,308,3.0,3.0,60,0.00,,SKC,0.00,VWS V14.01,2013-01-26 07:25:00,
2013-01-26 00:26:00,37.5,24.9,30.24,North,360,10.0,14.0,60,0.00,,SKC,0.00,VWS V14.01,2013-01-26 07:26:00,
2013-01-26 00:27:00,37.6,25.0,30.24,NW,317,7.0,10.0,60,0.00,,SKC,0.00,VWS V14.01,2013-01-26 07:27:00,
2013-01-26 00:28:00,37.8,25.2,30.24,NW,304,9.0,10.0,60,0.00,,SKC,0.00,VWS V14.01,2013-01-26 07:28:00,
2013-01-26 00:29:00,38.0,25.8,30.24,WNW,293,11.0,11.0,61,0.00,,SKC,0.00,VWS V14.01,2013-01-26 07:29:00,
2013-01-26 00:30:00,38.3,26.0,30.23,WSW,254,3.0,13.0,61,0.00,,SKC,0.00,VWS V14.01,2013-01-26 07:30:00,
2013-01-26 00:31:00,38.6,25.5,30.23,West,262,3.0,6.0,59,0.00,,SKC,0.00,VWS V14.01,2013-01-26 07:31:00,
2013-01-26 00:32:00,38.6,25.5,30.23,West,279,10.0,11.0,59,0.00,,SKC,0.00,VWS V14.01,2013-01-26 07:32:00,
2013-01-26 00:33:00,38.8,25.7,30.23,West,279,6.0,10.0,59,0.00,,SKC,0.00,VWS V14.01,2013-01-26 07:33:00,
2013-01-26 00:34:00,39.0,25.9,30.23,NW,318,5.0,9.0,59,0.00,,SKC,0.00,VWS V14.01,2013-01-26 07:34:00,
2013-01-26 00:35:00,39.2,26.1,30.23,West,263,3.0,6.0,59,0.00,,SKC,0.00,VWS V14.01,2013-01-26 07:35:00,
2013-01-26 00:36:00,39.4,25.9,30.23,SSW,198,4.0,9.0,58,0.00,,SKC,0.00,VWS V14.01,2013-01-26 07:36:00,
2013-01-26 00:37:00,39.5,25.5,30.23,SSW,195,1.0,4.0,57,0.00,,SKC,0.00,VWS V14.01,2013-01-26 07:37:00,
2013-01-26 00:38:00,39.6,25.6,30.23,SSW,210,3.0,3.0,57,0.00,,SKC,0.00,VWS V14.01,2013-01-26 07:38:00,
2013-01-26 00:39:00,39.6,25.6,30.23,NW,307,10.0,16.0,57,0.00,,SKC,0.00,VWS V14.01,2013-01-26 07:39:00,
2013-01-26 00:40:00,39.7,25.7,30.23,WNW,294,10.0,12.0,57,0.00,,SKC,0.00,VWS V14.01,2013-01-26 07:40:00,
2013-01-26 00:41:00,39.9,25.9,30.23,North,360,7.0,10.0,57,0.00,,SKC,0.00,VWS V14.01,2013-01-26 07:41:00,
2013-01-26 00:42:00,40.1,26.1,30.23,North,360,17.0,22.0,57,0.00,,SKC,0.00,VWS V14.01,2013-01-26 07:42:00,
2013-01-26 00:43:00,40.3,25.9,30.23,North,360,13.0,25.0,56,0.00,,SKC,0.00,VWS V14.01,2013-01-26 07:43:00,
2013-01-26 00:44:00,40.6,26.6,30.23,North,360,14.0,20.0,57,0.00,,SKC,0.00,VWS V14.01,2013-01-26 07:44:00,
2013-01-26 00:45:00,41.0,26.5,30.23,NW,309,12.0,16.0,56,0.00,,SKC,0.00,VWS V14.01,2013-01-26 07:45:00,
2013-01-26 00:46:00,41.2,26.7,30.23,North,360,12.0,18.0,56,0.00,,SKC,0.00,VWS V14.01,2013-01-26 07:46:00,
2013-01-26 00:47:00,41.5,26.5,30.22,North,360,14.0,14.0,55,0.00,,SKC,0.00,VWS V14.01,2013-01-26 07:47:00,
2013-01-26 00:48:00,41.8,26.8,30.22,NW,306,15.0,21.0,55,0.00,,SKC,0.00,VWS V14.01,2013-01-26 07:48:00,
2013-01-26 00:49:00,42.0,26.6,30.23,WNW,302,11.0,15.0,54,0.00,,SKC,0.00,VWS V14.01,2013-01-26 07:49:00,
2013-01-26 00:50:00,42.2,26.8,30.22,North,360,18.0,21.0,54,0.00,,SKC,0.00,VWS V14.01,2013-01-26 07:50:00,
2013-01-26 00:51:00,42.3,26.9,30.23,West,259,16.0,20.0,54,0.00,,SKC,0.00,VWS V14.01,2013-01-26 07:51:00,
2013-01-26 00:52:00,42.4,27.0,30.22,North,360,25.0,25.0,54,0.00,,SKC,0.00,VWS V14.01,2013-01-26 07:52:00,
2013-01-26 00:53:00,42.6,26.7,30.21,North,360,16.0,25.0,53,0.00,,SKC,0.00,VWS V14.01,2013-01-26 07:53:00,
2013-01-26 00:54:00,42.7,26.3,30.22,WNW,294,14.0,18.0,52,0.00,,SKC,0.00,VWS V14.01,2013-01-26 07:54:00,
2013-01-26 00:55:00,42.8,26.9,30.22,North,360,16.0,23.0,53,0.00,,SKC,0.00,VWS V14.01,2013-01-26 07:55:00,
2013-01-26 00:56:00,42.9,27.0,30.22,North,360,12.0,17.0,53,0.00,,SKC,0.00,VWS V14.01,2013-01-26 07:56:00,
2013-01-26 00:57:00,43.0,27.0,30.22,North,360,19.0,20.0,53,0.00,,SKC,0.00,VWS V14.01,2013-01-26 07:57:00,
2013-01-26 00:58:00,43.1,27.1,30.22,North,360,15.0,19.0,53,0.00,,SKC,0.00,VWS V14.01,2013-01-26 07:58:00,
2013-01-26 00:59:00,43.1,27.1,30.22,North,360,22.0,23.0,53,0.00,,SKC,0.00,VWS V14.01,2013-01-26 07:59:00,
2013-01-26 01:00:00,43.2,26.8,30.22,NW,306,10.0,24.0,52,0.00,,SKC,0.00,VWS V14.01,2013-01-26 08:00:00,
2013-01-26 01:01:00,43.1,27.1,30.21,North,360,5.0,11.0,53,0.00,,SKC,0.00,VWS V14.01,2013-01-26 08:01:00,
2013-01-26 01:02:00,43.1,27.1,30.21,NNW,335,16.0,19.0,53,0.00,,SKC,0.00,VWS V14.01,2013-01-26 08:02:00,
2013-01-26 01:03:00,43.1,27.1,30.22,North,360,21.0,25.0,53,0.00,,SKC,0.00,VWS V14.01,2013-01-26 08:03:00,
2013-01-26 01:04:00,43.1,27.1,30.21,West,260,4.0,21.0,53,0.00,,SKC,0.00,VWS V14.01,2013-01-26 08:04:00,
2013-01-26 01:05:00,43.1,27.1,30.21,North,360,12.0,12.0,53,0.00,,SKC,0.00,VWS V14.01,2013-01-26 08:05:00,
2013-01-26 01:06:00,43.1,26.7,30.22,North,360,13.0,17.0,52,0.00,,SKC,0.00,VWS V14.01,2013-01-26 08:06:00,
2013-01-26 01:07:00,43.1,26.7,30.22,North,360,8.0,18.0,52,0.00,,SKC,0.00,VWS V14.01,2013-01-26 08:07:00,
2013-01-26 01:08:00,43.0,26.6,30.22,North,360,18.0,19.0,52,0.00,,SKC,0.00,VWS V14.01,2013-01-26 08:08:00,
2013-01-26 01:09:00,43.0,27.1,30.21,North,360,19.0,21.0,53,0.00,,SKC,0.00,VWS V14.01,2013-01-26 08:09:00,
2013-01-26 01:10:00,43.1,26.7,30.22,NW,311,16.0,29.0,52,0.00,,SKC,0.00,VWS V14.01,2013-01-26 08:10:00,
2013-01-26 01:11:00,43.1,26.2,30.22,North,360,16.0,20.0,51,0.00,,SKC,0.00,VWS V14.01,2013-01-26 08:11:00,
2013-01-26 01:12:00,43.2,26.3,30.21,West,271,14.0,24.0,51,0.00,,SKC,0.00,VWS V14.01,2013-01-26 08:12:00,
2013-01-26 01:13:00,43.2,26.3,30.21,WSW,254,16.0,17.0,51,0.00,,SKC,0.00,VWS V14.01,2013-01-26 08:13:00,
2013-01-26 01:14:00,43.2,26.3,30.22,North,360,6.0,16.0,51,0.00,,SKC,0.00,VWS V14.01,2013-01-26 08:14:00,
2013-01-26 01:15:00,43.2,26.3,30.21,WSW,258,12.0,15.0,51,0.00,,SKC,0.00,VWS V14.01,2013-01-26 08:15:00,
2013-01-26 01:16:00,43.2,26.8,30.22,WNW,290,13.0,16.0,52,0.00,,SKC,0.00,VWS V14.01,2013-01-26 08:16:00,
2013-01-26 01:17:00,43.2,26.3,30.22,WNW,293,13.0,15.0,51,0.00,,SKC,0.00,VWS V14.01,2013-01-26 08:17:00,
2013-01-26 01:18:00,43.1,26.7,30.22,WSW,257,10.0,19.0,52,0.00,,SKC,0.00,VWS V14.01,2013-01-26 08:18:00,
2013-01-26 01:19:00,43.1,26.7,30.22,West,271,17.0,19.0,52,0.00,,SKC,0.00,VWS V14.01,2013-01-26 08:19:00,
2013-01-26 01:20:00,43.0,26.6,30.22,West,269,20.0,28.0,52,0.00,,SKC,0.00,VWS V14.01,2013-01-26 08:20:00,
2013-01-26 01:21:00,43.0,26.6,30.22,North,360,11.0,20.0,52,0.00,,SKC,0.00,VWS V14.01,2013-01-26 08:21:00,
2013-01-26 01:22:00,43.0,26.6,30.21,NW,309,6.0,11.0,52,0.00,,SKC,0.00,VWS V14.01,2013-01-26 08:22:00,
2013-01-26 01:23:00,42.9,26.5,30.21,West,281,12.0,12.0,52,0.00,,SKC,0.00,VWS V14.01,2013-01-26 08:23:00,
2013-01-26 01:24:00,42.9,26.5,30.22,WNW,288,10.0,12.0,52,0.00,,SKC,0.00,VWS V14.01,2013-01-26 08:24:00,
2013-01-26 01:25:00,42.8,26.4,30.22,North,360,12.0,12.0,52,0.00,,SKC,0.00,VWS V14.01,2013-01-26 08:25:00,
2013-01-26 01:26:00,42.8,26.4,30.21,West,259,15.0,19.0,52,0.00,,SKC,0.00,VWS V14.01,2013-01-26 08:26:00,
2013-01-26 01:27:00,42.7,26.3,30.21,North,360,16.0,23.0,52,0.00,,SKC,0.00,VWS V14.01,2013-01-26 08:27:00,
2013-01-26 01:28:00,42.7,26.3,30.21,WNW,297,16.0,18.0,52,0.00,,SKC,0.00,VWS V14.01,2013-01-26 08:28:00,
2013-01-26 01:29:00,42.6,26.7,30.21,WNW,291,15.0,16.0,53,0.00,,SKC,0.00,VWS V14.01,2013-01-26 08:29:00,
2013-01-26 01:30:00,42.6,26.2,30.21,West,271,18.0,20.0,52,0.00,,SKC,0.00,VWS V14.01,2013-01-26 08:30:00,
2013-01-26 01:31:00,42.5,26.1,30.21,WNW,292,22.0,27.0,52,0.00,,SKC,0.00,VWS V14.01,2013-01-26 08:31:00,
2013-01-26 01:32:00,42.5,26.1,30.21,WNW,282,19.0,22.0,52,0.00,,SKC,0.00,VWS V14.01,2013-01-26 08:32:00,
2013-01-26 01:33:00,42.5,25.7,30.20,WNW,294,19.0,21.0,51,0.00,,SKC,0.00,VWS V14.01,2013-01-26 08:33:00,
2013-01-26 01:34:00,42.5,26.1,30.21,West,274,15.0,21.0,52,0.00,,SKC,0.00,VWS V14.01,2013-01-26 08:34:00,
2013-01-26 01:35:00,42.5,26.1,30.21,West,277,14.0,18.0,52,0.00,,SKC,0.00,VWS V14.01,2013-01-26 08:35:00,
2013-01-26 01:36:00,42.5,26.1,30.21,WNW,282,17.0,17.0,52,0.00,,SKC,0.00,VWS V14.01,2013-01-26 08:36:00,
2013-01-26 01:37:00,42.4,26.0,30.21,WNW,294,13.0,17.0,52,0.00,,SKC,0.00,VWS V14.01,2013-01-26 08:37:00,
2013-01-26 01:38:00,42.4,26.0,30.21,WSW,253,16.0,16.0,52,0.00,,SKC,0.00,VWS V14.01,2013-01-26 08:38:00,
2013-01-26 01:39:00,42.3,26.4,30.21,West,278,15.0,19.0,53,0.00,,SKC,0.00,VWS V14.01,2013-01-26 08:39:00,
2013-01-26 01:40:00,42.3,25.9,30.21,WNW,288,22.0,22.0,52,0.00,,SKC,0.00,VWS V14.01,2013-01-26 08:40:00,
2013-01-26 01:41:00,42.3,25.9,30.21,North,360,18.0,22.0,52,0.00,,SKC,0.00,VWS V14.01,2013-01-26 08:41:00,
2013-01-26 01:42:00,42.4,26.0,30.21,WNW,297,11.0,20.0,52,0.00,,SKC,0.00,VWS V14.01,2013-01-26 08:42:00,
2013-01-26 01:43:00,42.4,26.0,30.21,West,274,12.0,17.0,52,0.00,,SKC,0.00,VWS V14.01,2013-01-26 08:43:00,
2013-01-26 01:44:00,42.4,26.0,30.21,WNW,295,15.0,18.0,52,0.00,,SKC,0.00,VWS V14.01,2013-01-26 08:44:00,
2013-01-26 01:45:00,42.3,25.9,30.21,WSW,253,12.0,19.0,52,0.00,,SKC,0.00,VWS V14.01,2013-01-26 08:45:00,
2013-01-26 01:46:00,42.3,26.4,30.21,West,265,22.0,22.0,53,0.00,,SKC,0.00,VWS V14.01,2013-01-26 08:46:00,
2013-01-26 01:47:00,42.2,26.3,30.21,WNW,292,14.0,22.0,53,0.00,,SKC,0.00,VWS V14.01,2013-01-26 08:47:00,
2013-01-26 01:48:00,42.2,26.3,30.21,WNW,289,16.0,19.0,53,0.00,,SKC,0.00,VWS V14.01,2013-01-26 08:48:00,
2013-01-26 01:49:00,42.1,26.2,30.21,North,360,12.0,19.0,53,0.00,,SKC,0.00,VWS V14.01,2013-01-26 08:49:00,
2013-01-26 01:50:00,42.1,26.2,30.21,NW,306,19.0,19.0,53,0.00,,SKC,0.00,VWS V14.01,2013-01-26 08:50:00,
2013-01-26 01:51:00,42.1,25.8,30.21,West,279,20.0,22.0,52,0.00,,SKC,0.00,VWS V14.01,2013-01-26 08:51:00,
2013-01-26 01:52:00,42.2,25.9,30.21,WNW,283,15.0,21.0,52,0.00,,SKC,0.00,VWS V14.01,2013-01-26 08:52:00,
2013-01-26 01:53:00,42.2,26.3,30.21,West,281,13.0,17.0,53,0.00,,SKC,0.00,VWS V14.01,2013-01-26 08:53:00,
2013-01-26 01:54:00,42.2,26.3,30.21,West,277,10.0,16.0,53,0.00,,SKC,0.00,VWS V14.01,2013-01-26 08:54:00,
2013-01-26 01:55:00,42.2,26.3,30.21,WNW,302,12.0,15.0,53,0.00,,SKC,0.00,VWS V14.01,2013-01-26 08:55:00,
2013-01-26 01:56:00,42.2,26.3,30.21,WNW,296,14.0,16.0,53,0.00,,SKC,0.00,VWS V14.01,2013-01-26 08:56:00,
2013-01-26 01:57:00,42.1,26.2,30.21,WNW,284,14.0,20.0,53,0.00,,SKC,0.00,VWS V14.01,2013-01-26 08:57:00,
2013-01-26 01:58:00,42.1,26.2,30.21,West,264,11.0,19.0,53,0.00,,SKC,0.00,VWS V14.01,2013-01-26 08:58:00,
2013-01-26 01:59:00,42.0,26.1,30.21,North,360,15.0,16.0,53,0.00,,SKC,0.00,VWS V14.01,2013-01-26 08:59:00,
2013-01-26 02:00:00,42.0,26.1,30.21,West,271,14.0,16.0,53,0.00,,SKC,0.00,VWS V14.01,2013-01-26 09:00:00,
2013-01-26 02:01:00,41.9,26.0,30.21,West,276,12.0,14.0,53,0.00,,SKC,0.00,VWS V14.01,2013-01-26 09:01:00,
2013-01-26 02:02:00,41.9,26.0,30.21,WNW,286,15.0,18.0,53,0.00,,SKC,0.00,VWS V14.01,2013-01-26 09:02:00,
2013-01-26 02:03:00,41.9,26.0,30.21,North,360,16.0,17.0,53,0.00,,SKC,0.00,VWS V14.01,2013-01-26 09:03:00,
2013-01-26 02:04:00,41.8,25.5,30.21,North,360,14.0,18.0,52,0.00,,SKC,0.00,VWS V14.01,2013-01-26 09:04:00,
2013-01-26 02:05:00,41.8,25.5,30.21,WSW,251,12.0,14.0,52,0.00,,SKC,0.00,VWS V14.01,2013-01-26 09:05:00,
2013-01-26 02:06:00,41.8,25.9,30.21,West,261,12.0,14.0,53,0.00,,SKC,0.00,VWS V14.01,2013-01-26 09:06:00,
2013-01-26 02:07:00,41.7,25.9,30.20,WNW,298,15.0,19.0,53,0.00,,SKC,0.00,VWS V14.01,2013-01-26 09:07:00,
2013-01-26 02:08:00,41.6,25.8,30.20,WNW,289,12.0,17.0,53,0.00,,SKC,0.00,VWS V14.01,2013-01-26 09:08:00,
2013-01-26 02:09:00,41.7,25.9,30.20,West,269,14.0,19.0,53,0.00,,SKC,0.00,VWS V14.01,2013-01-26 09:09:00,
2013-01-26 02:10:00,41.7,25.9,30.21,West,275,12.0,14.0,53,0.00,,SKC,0.00,VWS V14.01,2013-01-26 09:10:00,
2013-01-26 02:11:00,41.7,25.9,30.21,West,269,9.0,14.0,53,0.00,,SKC,0.00,VWS V14.01,2013-01-26 09:11:00,
2013-01-26 02:12:00,41.7,25.9,30.20,WNW,282,11.0,13.0,53,0.00,,SKC,0.00,VWS V14.01,2013-01-26 09:12:00,
2013-01-26 02:13:00,41.6,25.8,30.20,WNW,286,14.0,16.0,53,0.00,,SKC,0.00,VWS V14.01,2013-01-26 09:13:00,
2013-01-26 02:14:00,41.6,25.3,30.19,West,281,18.0,18.0,52,0.00,,SKC,0.00,VWS V14.01,2013-01-26 09:14:00,
2013-01-26 02:15:00,41.5,25.2,30.20,WNW,292,15.0,19.0,52,0.00,,SKC,0.00,VWS V14.01,2013-01-26 09:15:00,
2013-01-26 02:16:00,41.5,25.2,30.19,WNW,301,13.0,15.0,52,0.00,,SKC,0.00,VWS V14.01,2013-01-26 09:16:00,
2013-01-26 02:17:00,41.5,25.2,30.20,North,360,15.0,15.0,52,0.00,,SKC,0.00,VWS V14.01,2013-01-26 09:17:00,
2013-01-26 02:18:00,41.5,25.2,30.20,WNW,290,14.0,15.0,52,0.00,,SKC,0.00,VWS V14.01,2013-01-26 09:18:00,
2013-01-26 02:19:00,41.5,25.2,30.19,WNW,283,12.0,14.0,52,0.00,,SKC,0.00,VWS V14.01,2013-01-26 09:19:00,
2013-01-26 02:20:00,41.5,25.2,30.20,North,360,10.0,13.0,52,0.00,,SKC,0.00,VWS V14.01,2013-01-26 09:20:00,
2013-01-26 02:21:00,41.5,25.2,30.19,WNW,290,13.0,20.0,52,0.00,,SKC,0.00,VWS V14.01,2013-01-26 09:21:00,
2013-01-26 02:22:00,41.5,24.7,30.19,North,360,16.0,17.0,51,0.00,,SKC,0.00,VWS V14.01,2013-01-26 09:22:00,
2013-01-26 02:23:00,41.5,25.2,30.19,WNW,299,29.0,29.0,52,0.00,,SKC,0.00,VWS V14.01,2013-01-26 09:23:00,
2013-01-26 02:24:00,41.6,24.8,30.20,West,261,17.0,29.0,51,0.00,,SKC,0.00,VWS V14.01,2013-01-26 09:24:00,
2013-01-26 02:25:00,41.8,24.5,30.19,West,259,16.0,18.0,50,0.00,,SKC,0.00,VWS V14.01,2013-01-26 09:25:00,
2013-01-26 02:26:00,41.9,25.1,30.20,WSW,244,17.0,21.0,51,0.00,,SKC,0.00,VWS V14.01,2013-01-26 09:26:00,
2013-01-26 02:27:00,41.9,25.1,30.21,WSW,254,16.0,19.0,51,0.00,,SKC,0.00,VWS V14.01,2013-01-26 09:27:00,
2013-01-26 02:28:00,41.9,24.6,30.21,West,265,15.0,19.0,50,0.00,,SKC,0.00,VWS V14.01,2013-01-26 09:28:00,
2013-01-26 02:29:00,42.0,24.7,30.20,North,360,25.0,30.0,50,0.00,,SKC,0.00,VWS V14.01,2013-01-26 09:29:00,
2013-01-26 02:30:00,42.1,24.3,30.21,WNW,284,15.0,29.0,49,0.00,,SKC,0.00,VWS V14.01,2013-01-26 09:30:00,
2013-01-26 02:31:00,42.4,24.1,30.21,WSW,247,18.0,18.0,48,0.00,,SKC,0.00,VWS V14.01,2013-01-26 09:31:00,
2013-01-26 02:32:00,42.7,23.9,30.20,North,360,18.0,26.0,47,0.00,,SKC,0.00,VWS V14.01,2013-01-26 09:32:00,
2013-01-26 02:33:00,42.9,23.6,30.20,SW,227,14.0,18.0,46,0.00,,SKC,0.00,VWS V14.01,2013-01-26 09:33:00,
2013-01-26 02:34:00,43.1,24.3,30.21,West,263,5.0,14.0,47,0.00,,SKC,0.00,VWS V14.01,2013-01-26 09:34:00,
2013-01-26 02:35:00,43.2,24.4,30.21,West,263,19.0,21.0,47,0.00,,SKC,0.00,VWS V14.01,2013-01-26 09:35:00,
2013-01-26 02:36:00,43.2,24.4,30.21,WSW,246,12.0,20.0,47,0.00,,SKC,0.00,VWS V14.01,2013-01-26 09:36:00,
2013-01-26 02:37:00,43.2,24.4,30.20,North,360,13.0,17.0,47,0.00,,SKC,0.00,VWS V14.01,2013-01-26 09:37:00,
2013-01-26 02:38:00,43.2,24.4,30.20,North,360,10.0,16.0,47,0.00,,SKC,0.00,VWS V14.01,2013-01-26 09:38:00,
2013-01-26 02:39:00,43.1,24.3,30.20,North,360,12.0,15.0,47,0.00,,SKC,0.00,VWS V14.01,2013-01-26 09:39:00,
2013-01-26 02:40:00,43.1,24.3,30.21,North,360,14.0,18.0,47,0.00,,SKC,0.00,VWS V14.01,2013-01-26 09:40:00,
2013-01-26 02:41:00,43.0,24.2,30.20,North,360,18.0,22.0,47,0.00,,SKC,0.00,VWS V14.01,2013-01-26 09:41:00,
2013-01-26 02:42:00,42.9,24.1,30.20,West,259,14.0,25.0,47,0.00,,SKC,0.00,VWS V14.01,2013-01-26 09:42:00,
2013-01-26 02:43:00,43.0,24.2,30.20,WSW,241,16.0,16.0,47,0.00,,SKC,0.00,VWS V14.01,2013-01-26 09:43:00,
2013-01-26 02:44:00,43.0,24.2,30.20,North,360,14.0,20.0,47,0.00,,SKC,0.00,VWS V14.01,2013-01-26 09:44:00,
2013-01-26 02:45:00,43.0,24.2,30.20,North,360,16.0,18.0,47,0.00,,SKC,0.00,VWS V14.01,2013-01-26 09:45:00,
2013-01-26 02:46:00,42.9,24.1,30.20,North,360,15.0,20.0,47,0.00,,SKC,0.00,VWS V14.01,2013-01-26 09:46:00,
2013-01-26 02:47:00,42.8,24.0,30.20,West,261,17.0,22.0,47,0.00,,SKC,0.00,VWS V14.01,2013-01-26 09:47:00,
2013-01-26 02:48:00,42.7,24.4,30.20,West,279,16.0,23.0,48,0.00,,SKC,0.00,VWS V14.01,2013-01-26 09:48:00,
2013-01-26 02:49:00,42.7,23.9,30.20,North,360,16.0,19.0,47,0.00,,SKC,0.00,VWS V14.01,2013-01-26 09:49:00,
2013-01-26 02:50:00,42.7,24.4,30.20,North,360,12.0,16.0,48,0.00,,SKC,0.00,VWS V14.01,2013-01-26 09:50:00,
2013-01-26 02:51:00,42.6,24.3,30.20,North,360,18.0,19.0,48,0.00,,SKC,0.00,VWS V14.01,2013-01-26 09:51:00,
2013-01-26 02:52:00,42.6,24.3,30.20,NW,309,16.0,21.0,48,0.00,,SKC,0.00,VWS V14.01,2013-01-26 09:52:00,
2013-01-26 02:53:00,42.6,24.3,30.20,North,360,18.0,21.0,48,0.00,,SKC,0.00,VWS V14.01,2013-01-26 09:53:00,
2013-01-26 02:54:00,42.6,24.8,30.20,West,263,17.0,19.0,49,0.00,,SKC,0.00,VWS V14.01,2013-01-26 09:54:00,
2013-01-26 02:55:00,42.5,24.7,30.21,North,360,12.0,18.0,49,0.00,,SKC,0.00,VWS V14.01,2013-01-26 09:55:00,
2013-01-26 02:56:00,42.5,24.2,30.21,West,270,7.0,13.0,48,0.00,,SKC,0.00,VWS V14.01,2013-01-26 09:56:00,
2013-01-26 02:57:00,42.5,24.2,30.21,WNW,294,11.0,11.0,48,0.00,,SKC,0.00,VWS V14.01,2013-01-26 09:57:00,
2013-01-26 02:58:00,42.5,24.2,30.21,North,360,7.0,12.0,48,0.00,,SKC,0.00,VWS V14.01,2013-01-26 09:58:00,
2013-01-26 02:59:00,42.4,24.6,30.20,North,360,16.0,22.0,49,0.00,,SKC,0.00,VWS V14.01,2013-01-26 09:59:00,
2013-01-26 03:00:00,42.4,24.6,30.20,WNW,286,15.0,21.0,49,0.00,,SKC,0.00,VWS V14.01,2013-01-26 10:00:00,
2013-01-26 03:01:00,42.4,24.1,30.21,North,360,14.0,14.0,48,0.00,,SKC,0.00,VWS V14.01,2013-01-26 10:01:00,
2013-01-26 03:02:00,42.4,24.6,30.20,WNW,284,17.0,20.0,49,0.00,,SKC,0.00,VWS V14.01,2013-01-26 10:02:00,
2013-01-26 03:03:00,42.4,24.6,30.21,North,360,14.0,17.0,49,0.00,,SKC,0.00,VWS V14.01,2013-01-26 10:03:00,
2013-01-26 03:04:00,42.4,24.6,30.20,West,269,22.0,23.0,49,0.00,,SKC,0.00,VWS V14.01,2013-01-26 10:04:00,
2013-01-26 03:05:00,42.4,24.6,30.20,WSW,254,15.0,22.0,49,0.00,,SKC,0.00,VWS V14.01,2013-01-26 10:05:00,
2013-01-26 03:06:00,42.4,24.6,30.21,North,360,19.0,23.0,49,0.00,,SKC,0.00,VWS V14.01,2013-01-26 10:06:00,
2013-01-26 03:07:00,42.4,24.6,30.21,WSW,254,13.0,19.0,49,0.00,,SKC,0.00,VWS V14.01,2013-01-26 10:07:00,
2013-01-26 03:08:00,42.3,24.5,30.20,WNW,296,20.0,21.0,49,0.00,,SKC,0.00,VWS V14.01,2013-01-26 10:08:00,
2013-01-26 03:09:00,42.4,24.6,30.20,North,360,19.0,22.0,49,0.00,,SKC,0.00,VWS V14.01,2013-01-26 10:09:00,
2013-01-26 03:10:00,42.4,24.6,30.20,WNW,293,19.0,19.0,49,0.00,,SKC,0.00,VWS V14.01,2013-01-26 10:10:00,
2013-01-26 03:11:00,42.4,24.6,30.20,West,272,19.0,25.0,49,0.00,,SKC,0.00,VWS V14.01,2013-01-26 10:11:00,
2013-01-26 03:12:00,42.4,24.6,30.19,North,360,27.0,27.0,49,0.00,,SKC,0.00,VWS V14.01,2013-01-26 10:12:00,
2013-01-26 03:13:00,42.4,24.6,30.20,North,360,15.0,27.0,49,0.00,,SKC,0.00,VWS V14.01,2013-01-26 10:13:00,
2013-01-26 03:14:00,42.4,24.6,30.20,North,360,17.0,19.0,49,0.00,,SKC,0.00,VWS V14.01,2013-01-26 10:14:00,
2013-01-26 03:15:00,42.4,24.6,30.19,NW,315,7.0,17.0,49,0.00,,SKC,0.00,VWS V14.01,2013-01-26 10:15:00,
2013-01-26 03:16:00,42.4,24.1,30.19,WNW,296,20.0,24.0,48,0.00,,SKC,0.00,VWS V14.01,2013-01-26 10:16:00,
2013-01-26 03:17:00,42.4,24.1,30.19,NW,306,14.0,22.0,48,0.00,,SKC,0.00,VWS V14.01,2013-01-26 10:17:00,
2013-01-26 03:18:00,42.4,24.6,30.20,North,360,12.0,17.0,49,0.00,,SKC,0.00,VWS V14.01,2013-01-26 10:18:00,
2013-01-26 03:19:00,42.4,24.1,30.19,North,360,18.0,28.0,48,0.00,,SKC,0.00,VWS V14.01,2013-01-26 10:19:00,
2013-01-26 03:20:00,42.5,24.7,30.19,North,360,17.0,27.0,49,0.00,,SKC,0.00,VWS V14.01,2013-01-26 10:20:00,
2013-01-26 03:21:00,42.4,24.1,30.19,North,360,20.0,25.0,48,0.00,,SKC,0.00,VWS V14.01,2013-01-26 10:21:00,
2013-01-26 03:22:00,42.5,24.7,30.19,North,360,24.0,25.0,49,0.00,,SKC,0.00,VWS V14.01,2013-01-26 10:22:00,
2013-01-26 03:23:00,42.5,24.2,30.20,North,360,12.0,24.0,48,0.00,,SKC,0.00,VWS V14.01,2013-01-26 10:23:00,
2013-01-26 03:24:00,42.5,24.2,30.20,NW,304,11.0,14.0,48,0.00,,SKC,0.00,VWS V14.01,2013-01-26 10:24:00,
2013-01-26 03:25:00,42.5,24.2,30.19,NW,316,7.0,13.0,48,0.00,,SKC,0.00,VWS V14.01,2013-01-26 10:25:00,
2013-01-26 03:26:00,42.5,24.2,30.20,WNW,300,2.0,7.0,48,0.00,,SKC,0.00,VWS V14.01,2013-01-26 10:26:00,
2013-01-26 03:27:00,42.4,24.1,30.20,NW,319,15.0,20.0,48,0.00,,SKC,0.00,VWS V14.01,2013-01-26 10:27:00,
2013-01-26 03:28:00,42.4,24.1,30.19,North,360,22.0,28.0,48,0.00,,SKC,0.00,VWS V14.01,2013-01-26 10:28:00,
2013-01-26 03:29:00,42.5,24.2,30.19,North,360,12.0,28.0,48,0.00,,SKC,0.00,VWS V14.01,2013-01-26 10:29:00,
2013-01-26 03:30:00,42.5,24.2,30.20,West,275,0.0,12.0,48,0.00,,SKC,0.00,VWS V14.01,2013-01-26 10:30:00,
2013-01-26 03:31:00,42.6,24.3,30.19,West,271,14.0,15.0,48,0.00,,SKC,0.00,VWS V14.01,2013-01-26 10:31:00,
2013-01-26 03:32:00,42.6,24.3,30.20,NW,304,11.0,15.0,48,0.00,,SKC,0.00,VWS V14.01,2013-01-26 10:32:00,
2013-01-26 03:33:00,42.5,24.2,30.19,NW,314,14.0,17.0,48,0.00,,SKC,0.00,VWS V14.01,2013-01-26 10:33:00,
2013-01-26 03:34:00,42.5,24.2,30.19,NW,313,13.0,17.0,48,0.00,,SKC,0.00,VWS V14.01,2013-01-26 10:34:00,
2013-01-26 03:35:00,42.4,24.1,30.19,WNW,294,13.0,14.0,48,0.00,,SKC,0.00,VWS V14.01,2013-01-26 10:35:00,
2013-01-26 03:36:00,42.4,24.1,30.19,NW,314,17.0,26.0,48,0.00,,SKC,0.00,VWS V14.01,2013-01-26 10:36:00,
2013-01-26 03:37:00,42.4,24.1,30.19,WNW,295,14.0,29.0,48,0.00,,SKC,0.00,VWS V14.01,2013-01-26 10:37:00,
2013-01-26 03:38:00,42.3,24.5,30.19,NW,321,14.0,17.0,49,0.00,,SKC,0.00,VWS V14.01,2013-01-26 10:38:00,
2013-01-26 03:39:00,42.4,24.6,30.19,North,360,17.0,18.0,49,0.00,,SKC,0.00,VWS V14.01,2013-01-26 10:39:00,
2013-01-26 03:40:00,42.4,24.6,30.19,North,360,17.0,29.0,49,0.00,,SKC,0.00,VWS V14.01,2013-01-26 10:40:00,
2013-01-26 03:41:00,42.4,24.1,30.19,West,267,12.0,25.0,48,0.00,,SKC,0.00,VWS V14.01,2013-01-26 10:41:00,
2013-01-26 03:42:00,42.4,24.1,30.19,WNW,291,6.0,13.0,48,0.00,,SKC,0.00,VWS V14.01,2013-01-26 10:42:00,
2013-01-26 03:43:00,42.4,24.1,30.19,North,360,13.0,17.0,48,0.00,,SKC,0.00,VWS V14.01,2013-01-26 10:43:00,
2013-01-26 03:44:00,42.4,24.1,30.19,WNW,298,19.0,32.0,48,0.00,,SKC,0.00,VWS V14.01,2013-01-26 10:44:00,
2013-01-26 03:45:00,42.4,24.1,30.19,NNW,330,14.0,19.0,48,0.00,,SKC,0.00,VWS V14.01,2013-01-26 10:45:00,
2013-01-26 03:46:00,42.4,24.1,30.19,North,360,17.0,20.0,48,0.00,,SKC,0.00,VWS V14.01,2013-01-26 10:46:00,
2013-01-26 03:47:00,42.4,24.1,30.19,NW,323,16.0,21.0,48,0.00,,SKC,0.00,VWS V14.01,2013-01-26 10:47:00,
2013-01-26 03:48:00,42.4,24.1,30.19,NW,318,15.0,17.0,48,0.00,,SKC,0.00,VWS V14.01,2013-01-26 10:48:00,
2013-01-26 03:49:00,42.4,24.1,30.19,NW,313,13.0,15.0,48,0.00,,SKC,0.00,VWS V14.01,2013-01-26 10:49:00,
2013-01-26 03:50:00,42.4,24.1,30.19,WNW,300,21.0,24.0,48,0.00,,SKC,0.00,VWS V14.01,2013-01-26 10:50:00,
2013-01-26 03:51:00,42.4,23.6,30.19,North,360,18.0,26.0,47,0.00,,SKC,0.00,VWS V14.01,2013-01-26 10:51:00,
2013-01-26 03:52:00,42.5,23.7,30.19,WNW,292,10.0,18.0,47,0.00,,SKC,0.00,VWS V14.01,2013-01-26 10:52:00,
2013-01-26 03:53:00,42.5,23.7,30.19,North,360,20.0,20.0,47,0.00,,SKC,0.00,VWS V14.01,2013-01-26 10:53:00,
2013-01-26 03:54:00,42.5,23.7,30.19,NW,306,21.0,25.0,47,0.00,,SKC,0.00,VWS V14.01,2013-01-26 10:54:00,
2013-01-26 03:55:00,42.6,23.8,30.19,WNW,298,11.0,22.0,47,0.00,,SKC,0.00,VWS V14.01,2013-01-26 10:55:00,
2013-01-26 03:56:00,42.6,23.8,30.18,WNW,303,13.0,15.0,47,0.00,,SKC,0.00,VWS V14.01,2013-01-26 10:56:00,
2013-01-26 03:57:00,42.5,23.2,30.20,NNW,331,16.0,21.0,46,0.00,,SKC,0.00,VWS V14.01,2013-01-26 10:57:00,
2013-01-26 03:58:00,42.5,23.7,30.20,West,279,9.0,26.0,47,0.00,,SKC,0.00,VWS V14.01,2013-01-26 10:58:00,
2013-01-26 03:59:00,42.6,23.8,30.19,WNW,299,19.0,22.0,47,0.00,,SKC,0.00,VWS V14.01,2013-01-26 10:59:00,
2013-01-26 04:00:00,42.6,23.3,30.19,WNW,292,14.0,22.0,46,0.00,,SKC,0.00,VWS V14.01,2013-01-26 11:00:00,
2013-01-26 04:01:00,42.6,23.3,30.18,WNW,285,17.0,17.0,46,0.00,,SKC,0.00,VWS V14.01,2013-01-26 11:01:00,
2013-01-26 04:02:00,42.6,23.3,30.18,WNW,292,14.0,17.0,46,0.00,,SKC,0.00,VWS V14.01,2013-01-26 11:02:00,
2013-01-26 04:03:00,42.6,23.3,30.18,WNW,287,22.0,27.0,46,0.00,,SKC,0.00,VWS V14.01,2013-01-26 11:03:00,
2013-01-26 04:04:00,42.6,23.3,30.19,West,281,7.0,24.0,46,0.00,,SKC,0.00,VWS V14.01,2013-01-26 11:04:00,
2013-01-26 04:05:00,42.7,23.4,30.18,North,360,11.0,14.0,46,0.00,,SKC,0.00,VWS V14.01,2013-01-26 11:05:00,
2013-01-26 04:06:00,42.7,23.4,30.18,North,360,12.0,14.0,46,0.00,,SKC,0.00,VWS V14.01,2013-01-26 11:06:00,
2013-01-26 04:07:00,42.7,23.4,30.18,West,279,17.0,17.0,46,0.00,,SKC,0.00,VWS V14.01,2013-01-26 11:07:00,
2013-01-26 04:08:00,42.6,23.3,30.18,North,360,13.0,17.0,46,0.00,,SKC,0.00,VWS V14.01,2013-01-26 11:08:00,
2013-01-26 04:09:00,42.5,23.2,30.18,West,260,17.0,20.0,46,0.00,,SKC,0.00,VWS V14.01,2013-01-26 11:09:00,
2013-01-26 04:10:00,42.4,23.6,30.18,West,263,18.0,18.0,47,0.00,,SKC,0.00,VWS V14.01,2013-01-26 11:10:00,
2013-01-26 04:11:00,42.4,23.6,30.18,WSW,250,16.0,20.0,47,0.00,,SKC,0.00,VWS V14.01,2013-01-26 11:11:00,
2013-01-26 04:12:00,42.4,23.6,30.18,West,280,20.0,20.0,47,0.00,,SKC,0.00,VWS V14.01,2013-01-26 11:12:00,
2013-01-26 04:13:00,42.3,23.5,30.18,North,360,19.0,21.0,47,0.00,,SKC,0.00,VWS V14.01,2013-01-26 11:13:00,
2013-01-26 04:14:00,42.3,23.5,30.18,WSW,250,19.0,19.0,47,0.00,,SKC,0.00,VWS V14.01,2013-01-26 11:14:00,
2013-01-26 04:15:00,42.2,23.4,30.18,North,360,23.0,25.0,47,0.00,,SKC,0.00,VWS V14.01,2013-01-26 11:15:00,
2013-01-26 04:16:00,42.2,23.4,30.18,WSW,242,18.0,25.0,47,0.00,,SKC,0.00,VWS V14.01,2013-01-26 11:16:00,
2013-01-26 04:17:00,42.2,23.4,30.18,WSW,252,22.0,22.0,47,0.00,,SKC,0.00,VWS V14.01,2013-01-26 11:17:00,
2013-01-26 04:18:00,42.2,23.4,30.18,WSW,249,19.0,25.0,47,0.00,,SKC,0.00,VWS V14.01,2013-01-26 11:18:00,
2013-01-26 04:19:00,42.3,23.5,30.18,SW,214,20.0,23.0,47,0.00,,SKC,0.00,VWS V14.01,2013-01-26 11:19:00,
2013-01-26 04:20:00,42.3,23.5,30.17,West,269,27.0,28.0,47,0.00,,SKC,0.00,VWS V14.01,2013-01-26 11:20:00,
2013-01-26 04:21:00,42.3,23.5,30.17,North,360,18.0,28.0,47,0.00,,SKC,0.00,VWS V14.01,2013-01-26 11:21:00,
2013-01-26 04:22:00,42.3,23.5,30.18,WNW,289,21.0,21.0,47,0.00,,SKC,0.00,VWS V14.01,2013-01-26 11:22:00,
2013-01-26 04:23:00,42.3,23.5,30.18,WSW,245,20.0,24.0,47,0.00,,SKC,0.00,VWS V14.01,2013-01-26 11:23:00,
2013-01-26 04:24:00,42.2,23.4,30.17,WSW,252,17.0,24.0,47,0.00,,SKC,0.00,VWS V14.01,2013-01-26 11:24:00,
2013-01-26 04:25:00,42.2,23.4,30.18,West,264,19.0,24.0,47,0.00,,SKC,0.00,VWS V14.01,2013-01-26 11:25:00,
2013-01-26 04:26:00,42.2,23.4,30.18,WSW,247,16.0,23.0,47,0.00,,SKC,0.00,VWS V14.01,2013-01-26 11:26:00,
2013-01-26 04:27:00,42.1,23.3,30.18,WSW,246,24.0,24.0,47,0.00,,SKC,0.00,VWS V14.01,2013-01-26 11:27:00,
2013-01-26 04:28:00,42.1,23.3,30.17,WSW,252,17.0,24.0,47,0.00,,SKC,0.00,VWS V14.01,2013-01-26 11:28:00,
2013-01-26 04:29:00,42.0,23.2,30.18,WSW,242,15.0,18.0,47,0.00,,SKC,0.00,VWS V14.01,2013-01-26 11:29:00,
2013-01-26 04:30:00,42.0,23.2,30.17,West,263,21.0,25.0,47,0.00,,SKC,0.00,VWS V14.01,2013-01-26 11:30:00,
2013-01-26 04:31:00,42.0,23.2,30.18,West,281,12.0,28.0,47,0.00,,SKC,0.00,VWS V14.01,2013-01-26 11:31:00,
2013-01-26 04:32:00,42.0,23.2,30.17,SSW,196,16.0,24.0,47,0.00,,SKC,0.00,VWS V14.01,2013-01-26 11:32:00,
2013-01-26 04:33:00,42.1,23.3,30.17,North,360,15.0,20.0,47,0.00,,SKC,0.00,VWS V14.01,2013-01-26 11:33:00,
2013-01-26 04:34:00,42.0,23.2,30.17,WNW,286,20.0,24.0,47,0.00,,SKC,0.00,VWS V14.01,2013-01-26 11:34:00,
2013-01-26 04:35:00,42.0,23.2,30.18,North,360,22.0,24.0,47,0.00,,SKC,0.00,VWS V14.01,2013-01-26 11:35:00,
2013-01-26 04:36:00,42.0,23.2,30.17,WSW,243,21.0,31.0,47,0.00,,SKC,0.00,VWS V14.01,2013-01-26 11:36:00,
2013-01-26 04:37:00,42.0,23.2,30.17,WSW,246,20.0,23.0,47,0.00,,SKC,0.00,VWS V14.01,2013-01-26 11:37:00,
2013-01-26 04:38:00,42.0,23.2,30.17,WSW,253,19.0,26.0,47,0.00,,SKC,0.00,VWS V14.01,2013-01-26 11:38:00,
2013-01-26 04:39:00,41.9,23.7,30.17,WSW,249,21.0,25.0,48,0.00,,SKC,0.00,VWS V14.01,2013-01-26 11:39:00,
2013-01-26 04:40:00,41.9,23.7,30.17,West,269,19.0,22.0,48,0.00,,SKC,0.00,VWS V14.01,2013-01-26 11:40:00,
2013-01-26 04:41:00,41.8,23.6,30.17,WNW,286,29.0,35.0,48,0.00,,SKC,0.00,VWS V14.01,2013-01-26 11:41:00,
2013-01-26 04:42:00,41.8,23.6,30.17,North,360,20.0,29.0,48,0.00,,SKC,0.00,VWS V14.01,2013-01-26 11:42:00,
2013-01-26 04:43:00,41.8,23.6,30.17,WSW,240,22.0,30.0,48,0.00,,SKC,0.00,VWS V14.01,2013-01-26 11:43:00,
2013-01-26 04:44:00,41.8,23.6,30.17,WSW,245,21.0,26.0,48,0.00,,SKC,0.00,VWS V14.01,2013-01-26 11:44:00,
2013-01-26 04:45:00,41.8,23.6,30.17,WNW,290,22.0,23.0,48,0.00,,SKC,0.00,VWS V14.01,2013-01-26 11:45:00,
2013-01-26 04:46:00,41.8,24.1,30.16,West,280,22.0,23.0,49,0.00,,SKC,0.00,VWS V14.01,2013-01-26 11:46:00,
2013-01-26 04:47:00,41.7,24.0,30.16,West,274,17.0,25.0,49,0.00,,SKC,0.00,VWS V14.01,2013-01-26 11:47:00,
2013-01-26 04:48:00,41.7,24.0,30.16,West,263,21.0,27.0,49,0.00,,SKC,0.00,VWS V14.01,2013-01-26 11:48:00,
2013-01-26 04:49:00,41.6,23.9,30.16,West,271,19.0,24.0,49,0.00,,SKC,0.00,VWS V14.01,2013-01-26 11:49:00,
2013-01-26 04:50:00,41.6,23.9,30.16,West,272,19.0,25.0,49,0.00,,SKC,0.00,VWS V14.01,2013-01-26 11:50:00,
2013-01-26 04:51:00,41.6,23.9,30.17,West,265,16.0,25.0,49,0.00,,SKC,0.00,VWS V14.01,2013-01-26 11:51:00,
2013-01-26 04:52:00,41.6,23.9,30.17,West,281,24.0,28.0,49,0.00,,SKC,0.00,VWS V14.01,2013-01-26 11:52:00,
2013-01-26 04:53:00,41.5,23.8,30.17,West,273,23.0,24.0,49,0.00,,SKC,0.00,VWS V14.01,2013-01-26 11:53:00,
2013-01-26 04:54:00,41.5,23.3,30.17,North,360,24.0,25.0,48,0.00,,SKC,0.00,VWS V14.01,2013-01-26 11:54:00,
2013-01-26 04:55:00,41.5,23.3,30.16,NW,305,9.0,24.0,48,0.00,,SKC,0.00,VWS V14.01,2013-01-26 11:55:00,
2013-01-26 04:56:00,41.6,23.4,30.17,West,265,12.0,22.0,48,0.00,,SKC,0.00,VWS V14.01,2013-01-26 11:56:00,
2013-01-26 04:57:00,41.7,23.0,30.17,West,262,14.0,19.0,47,0.00,,SKC,0.00,VWS V14.01,2013-01-26 11:57:00,
2013-01-26 04:58:00,41.7,23.0,30.17,North,360,6.0,15.0,47,0.00,,SKC,0.00,VWS V14.01,2013-01-26 11:58:00,
2013-01-26 04:59:00,41.8,23.6,30.17,WNW,291,9.0,11.0,48,0.00,,SKC,0.00,VWS V14.01,2013-01-26 11:59:00,
2013-01-26 05:00:00,41.8,23.1,30.17,WNW,282,22.0,25.0,47,0.00,,SKC,0.00,VWS V14.01,2013-01-26 12:00:00,
2013-01-26 05:01:00,41.8,23.1,30.17,North,360,16.0,22.0,47,0.00,,SKC,0.00,VWS V14.01,2013-01-26 12:01:00,
2013-01-26 05:02:00,41.8,23.1,30.16,West,269,22.0,30.0,47,0.00,,SKC,0.00,VWS V14.01,2013-01-26 12:02:00,
2013-01-26 05:03:00,41.8,23.1,30.17,West,275,16.0,23.0,47,0.00,,SKC,0.00,VWS V14.01,2013-01-26 12:03:00,
2013-01-26 05:04:00,41.8,23.1,30.16,West,274,10.0,25.0,47,0.00,,SKC,0.00,VWS V14.01,2013-01-26 12:04:00,
2013-01-26 05:05:00,41.8,23.1,30.17,West,269,16.0,20.0,47,0.00,,SKC,0.00,VWS V14.01,2013-01-26 12:05:00,
2013-01-26 05:06:00,41.8,23.1,30.17,West,265,14.0,18.0,47,0.00,,SKC,0.00,VWS V14.01,2013-01-26 12:06:00,
2013-01-26 05:07:00,41.8,23.1,30.17,West,276,6.0,14.0,47,0.00,,SKC,0.00,VWS V14.01,2013-01-26 12:07:00,
2013-01-26 05:08:00,41.7,23.0,30.16,NNW,329,17.0,17.0,47,0.00,,SKC,0.00,VWS V14.01,2013-01-26 12:08:00,
2013-01-26 05:09:00,41.6,22.9,30.17,North,360,22.0,24.0,47,0.00,,SKC,0.00,VWS V14.01,2013-01-26 12:09:00,
2013-01-26 05:10:00,41.6,22.9,30.16,North,360,20.0,24.0,47,0.00,,SKC,0.00,VWS V14.01,2013-01-26 12:10:00,
2013-01-26 05:11:00,41.5,22.8,30.17,SW,217,20.0,25.0,47,0.00,,SKC,0.00,VWS V14.01,2013-01-26 12:11:00,
2013-01-26 05:12:00,41.6,22.9,30.16,North,360,11.0,20.0,47,0.00,,SKC,0.00,VWS V14.01,2013-01-26 12:12:00,
2013-01-26 05:13:00,41.6,22.9,30.17,West,263,12.0,19.0,47,0.00,,SKC,0.00,VWS V14.01,2013-01-26 12:13:00,
2013-01-26 05:14:00,41.6,22.9,30.16,West,267,10.0,14.0,47,0.00,,SKC,0.00,VWS V14.01,2013-01-26 12:14:00,
2013-01-26 05:15:00,41.6,22.9,30.17,North,360,15.0,18.0,47,0.00,,SKC,0.00,VWS V14.01,2013-01-26 12:15:00,
2013-01-26 05:16:00,41.5,22.8,30.16,WSW,246,10.0,15.0,47,0.00,,SKC,0.00,VWS V14.01,2013-01-26 12:16:00,
2013-01-26 05:17:00,41.5,22.8,30.17,WNW,301,11.0,11.0,47,0.00,,SKC,0.00,VWS V14.01,2013-01-26 12:17:00,
2013-01-26 05:18:00,41.5,22.8,30.17,West,263,16.0,18.0,47,0.00,,SKC,0.00,VWS V14.01,2013-01-26 12:18:00,
2013-01-26 05:19:00,41.4,23.2,30.16,West,277,28.0,31.0,48,0.00,,SKC,0.00,VWS V14.01,2013-01-26 12:19:00,
2013-01-26 05:20:00,41.4,22.7,30.16,WNW,285,6.0,31.0,47,0.00,,SKC,0.00,VWS V14.01,2013-01-26 12:20:00,
2013-01-26 05:21:00,41.5,22.8,30.16,WNW,289,23.0,24.0,47,0.00,,SKC,0.00,VWS V14.01,2013-01-26 12:21:00,
2013-01-26 05:22:00,41.5,22.8,30.16,WNW,291,21.0,23.0,47,0.00,,SKC,0.00,VWS V14.01,2013-01-26 12:22:00,
2013-01-26 05:23:00,41.6,22.9,30.16,WNW,282,16.0,22.0,47,0.00,,SKC,0.00,VWS V14.01,2013-01-26 12:23:00,
2013-01-26 05:24:00,41.5,22.8,30.16,West,281,24.0,38.0,47,0.00,,SKC,0.00,VWS V14.01,2013-01-26 12:24:00,
2013-01-26 05:25:00,41.6,22.9,30.17,West,273,24.0,30.0,47,0.00,,SKC,0.00,VWS V14.01,2013-01-26 12:25:00,
2013-01-26 05:26:00,41.6,22.9,30.16,West,271,15.0,29.0,47,0.00,,SKC,0.00,VWS V14.01,2013-01-26 12:26:00,
2013-01-26 05:27:00,41.8,22.5,30.16,WNW,292,15.0,20.0,46,0.00,,SKC,0.00,VWS V14.01,2013-01-26 12:27:00,
2013-01-26 05:28:00,41.8,23.1,30.16,WNW,293,20.0,26.0,47,0.00,,SKC,0.00,VWS V14.01,2013-01-26 12:28:00,
2013-01-26 05:29:00,41.8,22.5,30.17,NW,306,13.0,22.0,46,0.00,,SKC,0.00,VWS V14.01,2013-01-26 12:29:00,
2013-01-26 05:30:00,41.8,23.1,30.17,West,260,10.0,17.0,47,0.00,,SKC,0.00,VWS V14.01,2013-01-26 12:30:00,
2013-01-26 05:31:00,41.8,23.1,30.17,North,360,9.0,11.0,47,0.00,,SKC,0.00,VWS V14.01,2013-01-26 12:31:00,
2013-01-26 05:32:00,41.8,23.1,30.17,West,265,8.0,13.0,47,0.00,,SKC,0.00,VWS V14.01,2013-01-26 12:32:00,
2013-01-26 05:33:00,41.8,23.1,30.17,West,269,4.0,9.0,47,0.00,,SKC,0.00,VWS V14.01,2013-01-26 12:33:00,
2013-01-26 05:34:00,41.8,23.1,30.17,North,360,5.0,6.0,47,0.00,,SKC,0.00,VWS V14.01,2013-01-26 12:34:00,
2013-01-26 05:35:00,41.8,23.1,30.17,North,360,1.0,9.0,47,0.00,,SKC,0.00,VWS V14.01,2013-01-26 12:35:00,
2013-01-26 05:36:00,41.7,22.5,30.16,West,281,6.0,6.0,46,0.00,,SKC,0.00,VWS V14.01,2013-01-26 12:36:00,
2013-01-26 05:37:00,41.6,22.9,30.17,West,263,12.0,16.0,47,0.00,,SKC,0.00,VWS V14.01,2013-01-26 12:37:00,
2013-01-26 05:38:00,41.6,22.9,30.17,WSW,255,20.0,20.0,47,0.00,,SKC,0.00,VWS V14.01,2013-01-26 12:38:00,
2013-01-26 05:39:00,41.6,22.9,30.17,West,264,16.0,20.0,47,0.00,,SKC,0.00,VWS V14.01,2013-01-26 12:39:00,
2013-01-26 05:40:00,41.6,22.9,30.17,WNW,282,14.0,20.0,47,0.00,,SKC,0.00,VWS V14.01,2013-01-26 12:40:00,
2013-01-26 05:41:00,41.6,22.9,30.16,WNW,299,17.0,21.0,47,0.00,,SKC,0.00,VWS V14.01,2013-01-26 12:41:00,
2013-01-26 05:42:00,41.6,22.9,30.17,WNW,294,13.0,25.0,47,0.00,,SKC,0.00,VWS V14.01,2013-01-26 12:42:00,
2013-01-26 05:43:00,41.5,22.8,30.17,West,271,17.0,25.0,47,0.00,,SKC,0.00,VWS V14.01,2013-01-26 12:43:00,
2013-01-26 05:44:00,41.6,22.9,30.17,West,275,26.0,26.0,47,0.00,,SKC,0.00,VWS V14.01,2013-01-26 12:44:00,
2013-01-26 05:45:00,41.6,22.9,30.17,WNW,287,22.0,28.0,47,0.00,,SKC,0.00,VWS V14.01,2013-01-26 12:45:00,
2013-01-26 05:46:00,41.6,22.9,30.17,WSW,258,19.0,23.0,47,0.00,,SKC,0.00,VWS V14.01,2013-01-26 12:46:00,
2013-01-26 05:47:00,41.7,23.0,30.17,WNW,284,19.0,24.0,47,0.00,,SKC,0.00,VWS V14.01,2013-01-26 12:47:00,
2013-01-26 05:48:00,41.7,22.5,30.17,WNW,285,23.0,23.0,46,0.00,,SKC,0.00,VWS V14.01,2013-01-26 12:48:00,
2013-01-26 05:49:00,41.8,22.5,30.17,WNW,285,19.0,23.0,46,0.00,,SKC,0.00,VWS V14.01,2013-01-26 12:49:00,
2013-01-26 05:50:00,41.8,22.5,30.17,NW,311,13.0,21.0,46,0.00,,SKC,0.00,VWS V14.01,2013-01-26 12:50:00,
2013-01-26 05:51:00,41.9,22.6,30.17,West,277,15.0,20.0,46,0.00,,SKC,0.00,VWS V14.01,2013-01-26 12:51:00,
2013-01-26 05:52:00,42.0,22.7,30.17,WNW,297,16.0,17.0,46,0.00,,SKC,0.00,VWS V14.01,2013-01-26 12:52:00,
2013-01-26 05:53:00,42.0,22.7,30.17,West,261,6.0,16.0,46,0.00,,SKC,0.00,VWS V14.01,2013-01-26 12:53:00,
2013-01-26 05:54:00,42.0,22.7,30.17,WSW,247,7.0,7.0,46,0.00,,SKC,0.00,VWS V14.01,2013-01-26 12:54:00,
2013-01-26 05:55:00,42.0,22.7,30.17,North,360,5.0,7.0,46,0.00,,SKC,0.00,VWS V14.01,2013-01-26 12:55:00,
2013-01-26 05:56:00,42.0,22.7,30.17,North,360,5.0,7.0,46,0.00,,SKC,0.00,VWS V14.01,2013-01-26 12:56:00,
2013-01-26 05:57:00,42.0,22.7,30.17,WNW,288,7.0,7.0,46,0.00,,SKC,0.00,VWS V14.01,2013-01-26 12:57:00,
2013-01-26 05:58:00,41.9,22.6,30.17,WNW,290,7.0,11.0,46,0.00,,SKC,0.00,VWS V14.01,2013-01-26 12:58:00,
2013-01-26 05:59:00,41.8,22.5,30.17,WNW,289,10.0,10.0,46,0.00,,SKC,0.00,VWS V14.01,2013-01-26 12:59:00,
2013-01-26 06:00:00,41.8,22.5,30.17,NW,309,7.0,13.0,46,0.00,,SKC,0.00,VWS V14.01,2013-01-26 13:00:00,
2013-01-26 06:01:00,41.7,22.5,30.17,NW,321,5.0,13.0,46,0.00,,SKC,0.00,VWS V14.01,2013-01-26 13:01:00,
2013-01-26 06:02:00,41.6,22.4,30.17,WNW,298,13.0,13.0,46,0.00,,SKC,0.00,VWS V14.01,2013-01-26 13:02:00,
2013-01-26 06:03:00,41.6,22.4,30.17,WNW,286,11.0,13.0,46,0.00,,SKC,0.00,VWS V14.01,2013-01-26 13:03:00,
2013-01-26 06:04:00,41.5,22.8,30.17,North,360,8.0,15.0,47,0.00,,SKC,0.00,VWS V14.01,2013-01-26 13:04:00,
2013-01-26 06:05:00,41.5,22.3,30.17,West,279,13.0,18.0,46,0.00,,SKC,0.00,VWS V14.01,2013-01-26 13:05:00,
2013-01-26 06:06:00,41.5,22.3,30.17,West,281,9.0,15.0,46,0.00,,SKC,0.00,VWS V14.01,2013-01-26 13:06:00,
2013-01-26 06:07:00,41.5,22.3,30.17,West,278,7.0,9.0,46,0.00,,SKC,0.00,VWS V14.01,2013-01-26 13:07:00,
2013-01-26 06:08:00,41.5,22.3,30.17,West,261,7.0,12.0,46,0.00,,SKC,0.00,VWS V14.01,2013-01-26 13:08:00,
2013-01-26 06:09:00,41.4,22.2,30.17,West,271,3.0,7.0,46,0.00,,SKC,0.00,VWS V14.01,2013-01-26 13:09:00,
2013-01-26 06:10:00,41.4,22.2,30.18,WNW,288,6.0,6.0,46,0.00,,SKC,0.00,VWS V14.01,2013-01-26 13:10:00,
2013-01-26 06:11:00,41.3,22.1,30.18,North,360,6.0,9.0,46,0.00,,SKC,0.00,VWS V14.01,2013-01-26 13:11:00,
2013-01-26 06:12:00,41.2,22.0,30.17,WNW,285,4.0,7.0,46,0.00,,SKC,0.00,VWS V14.01,2013-01-26 13:12:00,
2013-01-26 06:13:00,41.2,22.0,30.18,WNW,285,7.0,7.0,46,0.00,,SKC,0.00,VWS V14.01,2013-01-26 13:13:00,
2013-01-26 06:14:00,41.1,21.9,30.17,WSW,248,1.0,7.0,46,0.00,,SKC,0.00,VWS V14.01,2013-01-26 13:14:00,
2013-01-26 06:15:00,41.0,22.3,30.17,WNW,301,10.0,11.0,47,0.00,,SKC,0.00,VWS V14.01,2013-01-26 13:15:00,
2013-01-26 06:16:00,41.0,22.3,30.17,North,360,7.0,11.0,47,0.00,,SKC,0.00,VWS V14.01,2013-01-26 13:16:00,
2013-01-26 06:17:00,40.9,22.2,30.17,NW,304,3.0,8.0,47,0.00,,SKC,0.00,VWS V14.01,2013-01-26 13:17:00,
2013-01-26 06:18:00,40.9,22.2,30.17,North,360,0.0,3.0,47,0.00,,SKC,0.00,VWS V14.01,2013-01-26 13:18:00,
2013-01-26 06:19:00,40.8,22.1,30.17,WNW,303,0.0,0.0,47,0.00,,SKC,0.00,VWS V14.01,2013-01-26 13:19:00,
2013-01-26 06:20:00,40.8,22.1,30.17,WNW,302,3.0,4.0,47,0.00,,SKC,0.00,VWS V14.01,2013-01-26 13:20:00,
2013-01-26 06:21:00,40.7,22.1,30.17,WNW,300,0.0,3.0,47,0.00,,SKC,0.00,VWS V14.01,2013-01-26 13:21:00,
2013-01-26 06:22:00,40.5,21.9,30.18,WNW,302,0.0,0.0,47,0.00,,SKC,0.00,VWS V14.01,2013-01-26 13:22:00,
2013-01-26 06:23:00,40.4,21.8,30.18,NW,306,0.0,0.0,47,0.00,,SKC,0.00,VWS V14.01,2013-01-26 13:23:00,
2013-01-26 06:24:00,40.3,21.7,30.18,North,360,0.0,0.0,47,0.00,,SKC,0.00,VWS V14.01,2013-01-26 13:24:00,
2013-01-26 06:25:00,40.2,21.6,30.18,North,360,0.0,0.0,47,0.00,,SKC,0.00,VWS V14.01,2013-01-26 13:25:00,
2013-01-26 06:26:00,40.0,21.4,30.18,NW,304,0.0,0.0,47,0.00,,SKC,0.00,VWS V14.01,2013-01-26 13:26:00,
2013-01-26 06:27:00,39.8,21.2,30.18,WNW,302,0.0,0.0,47,0.00,,SKC,0.00,VWS V14.01,2013-01-26 13:27:00,
2013-01-26 06:28:00,39.7,21.6,30.18,North,360,2.0,3.0,48,0.00,,SKC,0.00,VWS V14.01,2013-01-26 13:28:00,
2013-01-26 06:29:00,39.5,21.5,30.18,WNW,287,1.0,4.0,48,0.00,,SKC,0.00,VWS V14.01,2013-01-26 13:29:00,
2013-01-26 06:30:00,39.3,21.3,30.18,West,273,5.0,11.0,48,0.00,,SKC,0.00,VWS V14.01,2013-01-26 13:30:00,
2013-01-26 06:31:00,39.2,21.7,30.18,SW,226,0.0,6.0,49,0.00,,SKC,0.00,VWS V14.01,2013-01-26 13:31:00,
2013-01-26 06:32:00,39.1,21.6,30.17,SW,224,0.0,1.0,49,0.00,,SKC,0.00,VWS V14.01,2013-01-26 13:32:00,
2013-01-26 06:33:00,38.9,21.4,30.18,SW,226,0.0,0.0,49,0.00,,SKC,0.00,VWS V14.01,2013-01-26 13:33:00,
2013-01-26 06:34:00,38.9,21.4,30.18,SW,227,0.0,0.0,49,0.00,,SKC,0.00,VWS V14.01,2013-01-26 13:34:00,
2013-01-26 06:35:00,38.8,21.3,30.18,SW,227,0.0,1.0,49,0.00,,SKC,0.00,VWS V14.01,2013-01-26 13:35:00,
2013-01-26 06:36:00,38.7,21.7,30.18,SW,228,0.0,0.0,50,0.00,,SKC,0.00,VWS V14.01,2013-01-26 13:36:00,
2013-01-26 06:37:00,38.6,21.6,30.18,SW,231,0.0,0.0,50,0.00,,SKC,0.00,VWS V14.01,2013-01-26 13:37:00,
2013-01-26 06:38:00,38.5,21.5,30.18,NW,312,4.0,5.0,50,0.00,,SKC,0.00,VWS V14.01,2013-01-26 13:38:00,
2013-01-26 06:39:00,38.5,21.5,30.18,NW,315,1.0,5.0,50,0.00,,SKC,0.00,VWS V14.01,2013-01-26 13:39:00,
2013-01-26 06:40:00,38.4,21.4,30.18,North,360,0.0,2.0,50,0.00,,SKC,0.00,VWS V14.01,2013-01-26 13:40:00,
2013-01-26 06:41:00,38.3,21.3,30.18,NW,312,0.0,0.0,50,0.00,,SKC,0.00,VWS V14.01,2013-01-26 13:41:00,
2013-01-26 06:42:00,38.3,21.3,30.18,NW,314,0.0,1.0,50,0.00,,SKC,0.00,VWS V14.01,2013-01-26 13:42:00,
2013-01-26 06:43:00,38.3,21.3,30.18,North,360,0.0,0.0,50,0.00,,SKC,0.00,VWS V14.01,2013-01-26 13:43:00,
2013-01-26 06:44:00,38.3,21.3,30.18,NW,318,0.0,0.0,50,0.00,,SKC,0.00,VWS V14.01,2013-01-26 13:44:00,
2013-01-26 06:45:00,38.2,21.7,30.18,NW,313,0.0,0.0,51,0.00,,SKC,0.00,VWS V14.01,2013-01-26 13:45:00,
2013-01-26 06:46:00,38.2,21.7,30.18,NW,313,0.0,0.0,51,0.00,,SKC,0.00,VWS V14.01,2013-01-26 13:46:00,
2013-01-26 06:47:00,38.2,21.2,30.18,NW,316,0.0,0.0,50,0.00,,SKC,0.00,VWS V14.01,2013-01-26 13:47:00,
2013-01-26 06:48:00,38.2,21.2,30.18,NW,313,2.0,2.0,50,0.00,,SKC,0.00,VWS V14.01,2013-01-26 13:48:00,
2013-01-26 06:49:00,38.1,21.6,30.18,WNW,302,5.0,6.0,51,0.00,,SKC,0.00,VWS V14.01,2013-01-26 13:49:00,
2013-01-26 06:50:00,38.0,21.5,30.18,North,360,4.0,5.0,51,0.00,,SKC,0.00,VWS V14.01,2013-01-26 13:50:00,
2013-01-26 06:51:00,37.9,20.9,30.18,WNW,288,2.0,5.0,50,0.00,,SKC,0.00,VWS V14.01,2013-01-26 13:51:00,
2013-01-26 06:52:00,37.8,21.3,30.18,WNW,290,0.0,3.0,51,0.00,,SKC,0.00,VWS V14.01,2013-01-26 13:52:00,
2013-01-26 06:53:00,37.8,21.3,30.18,North,360,0.0,3.0,51,0.00,,SKC,0.00,VWS V14.01,2013-01-26 13:53:00,
2013-01-26 06:54:00,37.7,21.2,30.18,SW,220,4.0,4.0,51,0.00,,SKC,0.00,VWS V14.01,2013-01-26 13:54:00,
2013-01-26 06:55:00,37.7,21.2,30.17,South,191,3.0,6.0,51,0.00,,SKC,0.00,VWS V14.01,2013-01-26 13:55:00,
2013-01-26 06:56:00,37.7,21.2,30.18,SSW,197,0.0,3.0,51,0.00,,SKC,0.00,VWS V14.01,2013-01-26 13:56:00,
2013-01-26 06:57:00,37.6,20.7,30.18,SSW,197,0.0,0.0,50,0.00,,SKC,0.00,VWS V14.01,2013-01-26 13:57:00,
2013-01-26 06:58:00,37.5,21.0,30.18,SSW,200,0.0,1.0,51,0.00,,SKC,0.00,VWS V14.01,2013-01-26 13:58:00,
2013-01-26 06:59:00,37.4,20.9,30.18,SSW,196,3.0,3.0,51,0.00,,SKC,0.00,VWS V14.01,2013-01-26 13:59:00,
2013-01-26 07:00:00,37.1,20.7,30.18,SSW,194,1.0,2.0,51,0.00,,SKC,0.00,VWS V14.01,2013-01-26 14:00:00,
2013-01-26 07:01:00,37.0,20.6,30.18,NW,305,1.0,3.0,51,0.00,,SKC,0.00,VWS V14.01,2013-01-26 14:01:00,
2013-01-26 07:02:00,36.9,20.9,30.18,NW,304,3.0,4.0,52,0.00,,SKC,0.00,VWS V14.01,2013-01-26 14:02:00,
2013-01-26 07:03:00,36.7,20.8,30.18,NW,304,4.0,4.0,52,0.00,,SKC,0.00,VWS V14.01,2013-01-26 14:03:00,
2013-01-26 07:04:00,36.7,21.2,30.19,WNW,303,3.0,4.0,53,0.00,,SKC,0.00,VWS V14.01,2013-01-26 14:04:00,
2013-01-26 07:05:00,36.7,21.2,30.19,WNW,301,3.0,5.0,53,0.00,,SKC,0.00,VWS V14.01,2013-01-26 14:05:00,
2013-01-26 07:06:00,36.8,21.3,30.19,NW,305,2.0,4.0,53,0.00,,SKC,0.00,VWS V14.01,2013-01-26 14:06:00,
2013-01-26 07:07:00,36.8,21.3,30.18,NW,309,2.0,3.0,53,0.00,,SKC,0.00,VWS V14.01,2013-01-26 14:07:00,
2013-01-26 07:08:00,36.8,21.3,30.18,NW,317,3.0,3.0,53,0.00,,SKC,0.00,VWS V14.01,2013-01-26 14:08:00,
2013-01-26 07:09:00,36.8,21.3,30.18,NW,313,2.0,4.0,53,0.00,,SKC,0.00,VWS V14.01,2013-01-26 14:09:00,
2013-01-26 07:10:00,36.8,21.3,30.18,NW,313,0.0,3.0,53,0.00,,SKC,0.00,VWS V14.01,2013-01-26 14:10:00,
2013-01-26 07:11:00,36.8,21.3,30.18,NW,310,3.0,3.0,53,0.00,,SKC,0.00,VWS V14.01,2013-01-26 14:11:00,
2013-01-26 07:12:00,36.9,21.4,30.18,NW,311,1.0,3.0,53,0.00,,SKC,0.00,VWS V14.01,2013-01-26 14:12:00,
2013-01-26 07:13:00,36.9,21.4,30.18,NW,306,0.0,1.0,53,0.00,,SKC,0.00,VWS V14.01,2013-01-26 14:13:00,
2013-01-26 07:14:00,37.0,21.5,30.18,North,360,0.0,1.0,53,0.00,,SKC,0.00,VWS V14.01,2013-01-26 14:14:00,
2013-01-26 07:15:00,37.1,21.6,30.18,NW,309,2.0,2.0,53,0.00,,SKC,0.00,VWS V14.01,2013-01-26 14:15:00,
2013-01-26 07:16:00,37.2,21.2,30.18,West,270,4.0,5.0,52,0.00,,SKC,0.00,VWS V14.01,2013-01-26 14:16:00,
2013-01-26 07:17:00,37.2,21.2,30.19,West,267,4.0,6.0,52,0.00,,SKC,0.00,VWS V14.01,2013-01-26 14:17:00,
2013-01-26 07:18:00,37.2,21.2,30.19,West,275,5.0,7.0,52,0.00,,SKC,0.00,VWS V14.01,2013-01-26 14:18:00,
2013-01-26 07:19:00,37.2,21.2,30.19,WNW,284,4.0,6.0,52,0.00,,SKC,0.00,VWS V14.01,2013-01-26 14:19:00,
2013-01-26 07:20:00,37.1,21.1,30.19,WNW,288,3.0,6.0,52,0.00,,SKC,0.00,VWS V14.01,2013-01-26 14:20:00,
2013-01-26 07:21:00,37.1,21.1,30.19,WNW,290,3.0,4.0,52,0.00,,SKC,0.00,VWS V14.01,2013-01-26 14:21:00,
2013-01-26 07:22:00,37.0,21.0,30.19,WNW,292,0.0,3.0,52,0.00,,SKC,0.00,VWS V14.01,2013-01-26 14:22:00,
2013-01-26 07:23:00,37.0,21.0,30.19,WNW,290,0.0,2.0,52,0.00,,SKC,0.00,VWS V14.01,2013-01-26 14:23:00,
2013-01-26 07:24:00,36.9,20.9,30.19,WNW,288,0.0,0.0,52,0.00,,SKC,0.00,VWS V14.01,2013-01-26 14:24:00,
2013-01-26 07:25:00,36.8,20.8,30.19,WNW,291,0.0,0.0,52,0.00,,SKC,0.00,VWS V14.01,2013-01-26 14:25:00,
2013-01-26 07:26:00,36.7,20.8,30.19,WNW,288,0.0,0.0,52,0.00,,SKC,0.00,VWS V14.01,2013-01-26 14:26:00,
2013-01-26 07:27:00,36.6,20.6,30.19,WNW,292,0.0,1.0,52,0.00,,SKC,0.00,VWS V14.01,2013-01-26 14:27:00,
2013-01-26 07:28:00,36.6,20.6,30.19,WNW,288,0.0,0.0,52,0.00,,SKC,0.00,VWS V14.01,2013-01-26 14:28:00,
2013-01-26 07:29:00,36.5,20.6,30.19,WNW,288,0.0,0.0,52,0.00,,SKC,0.00,VWS V14.01,2013-01-26 14:29:00,
2013-01-26 07:30:00,36.4,20.5,30.19,WNW,291,0.0,0.0,52,0.00,,SKC,0.00,VWS V14.01,2013-01-26 14:30:00,
2013-01-26 07:31:00,36.3,20.4,30.19,WNW,284,0.0,1.0,52,0.00,,SKC,0.00,VWS V14.01,2013-01-26 14:31:00,
2013-01-26 07:32:00,36.2,20.7,30.19,WNW,292,1.0,1.0,53,0.00,,SKC,0.00,VWS V14.01,2013-01-26 14:32:00,
2013-01-26 07:33:00,36.1,20.6,30.19,WNW,289,0.0,1.0,53,0.00,,SKC,0.00,VWS V14.01,2013-01-26 14:33:00,
2013-01-26 07:34:00,36.0,20.5,30.19,WNW,286,0.0,1.0,53,0.00,,SKC,0.00,VWS V14.01,2013-01-26 14:34:00,
2013-01-26 07:35:00,35.9,20.5,30.19,NNW,336,1.0,3.0,53,0.00,,SKC,0.00,VWS V14.01,2013-01-26 14:35:00,
2013-01-26 07:36:00,35.8,20.4,30.19,North,360,0.0,1.0,53,0.00,,SKC,0.00,VWS V14.01,2013-01-26 14:36:00,
2013-01-26 07:37:00,35.7,20.7,30.19,NNW,333,0.0,1.0,54,0.00,,SKC,0.00,VWS V14.01,2013-01-26 14:37:00,
2013-01-26 07:38:00,35.6,21.0,30.19,NNW,331,0.0,0.0,55,0.00,,SKC,0.00,VWS V14.01,2013-01-26 14:38:00,
2013-01-26 07:39:00,35.7,21.1,30.19,NNW,336,0.0,0.0,55,0.00,,SKC,0.00,VWS V14.01,2013-01-26 14:39:00,
2013-01-26 07:40:00,35.6,21.0,30.18,NNW,338,0.0,0.0,55,0.00,,SKC,0.00,VWS V14.01,2013-01-26 14:40:00,
2013-01-26 07:41:00,35.7,21.1,30.19,NNW,335,0.0,0.0,55,0.00,,SKC,0.00,VWS V14.01,2013-01-26 14:41:00,
2013-01-26 07:42:00,35.7,21.1,30.19,NNW,334,0.0,0.0,55,0.00,,SKC,0.00,VWS V14.01,2013-01-26 14:42:00,
2013-01-26 07:43:00,35.7,21.1,30.18,NNW,334,0.0,0.0,55,0.00,,SKC,0.00,VWS V14.01,2013-01-26 14:43:00,
2013-01-26 07:44:00,35.7,21.1,30.19,North,360,0.0,0.0,55,0.00,,SKC,0.00,VWS V14.01,2013-01-26 14:44:00,
2013-01-26 07:45:00,35.7,21.1,30.19,North,360,1.0,2.0,55,0.00,,SKC,0.00,VWS V14.01,2013-01-26 14:45:00,
2013-01-26 07:46:00,35.7,21.1,30.19,NNW,335,1.0,2.0,55,0.00,,SKC,0.00,VWS V14.01,2013-01-26 14:46:00,
2013-01-26 07:47:00,35.7,21.1,30.19,NNW,335,2.0,2.0,55,0.00,,SKC,0.00,VWS V14.01,2013-01-26 14:47:00,
2013-01-26 07:48:00,35.7,21.1,30.19,NNW,333,1.0,3.0,55,0.00,,SKC,0.00,VWS V14.01,2013-01-26 14:48:00,
2013-01-26 07:49:00,35.7,21.6,30.19,NNW,338,1.0,1.0,56,0.00,,SKC,0.00,VWS V14.01,2013-01-26 14:49:00,
2013-01-26 07:50:00,35.7,21.6,30.19,NNW,336,1.0,1.0,56,0.00,,SKC,0.00,VWS V14.01,2013-01-26 14:50:00,
2013-01-26 07:51:00,35.8,21.6,30.19,NNW,337,1.0,2.0,56,0.00,,SKC,0.00,VWS V14.01,2013-01-26 14:51:00,
2013-01-26 07:52:00,35.8,21.6,30.19,NNW,338,2.0,2.0,56,0.00,,SKC,0.00,VWS V14.01,2013-01-26 14:52:00,
2013-01-26 07:53:00,35.8,21.6,30.19,NNW,334,0.0,2.0,56,0.00,,SKC,0.00,VWS V14.01,2013-01-26 14:53:00,
2013-01-26 07:54:00,35.8,21.2,30.19,North,360,1.0,2.0,55,0.00,,SKC,0.00,VWS V14.01,2013-01-26 14:54:00,
2013-01-26 07:55:00,35.8,21.2,30.19,North,360,1.0,2.0,55,0.00,,SKC,0.00,VWS V14.01,2013-01-26 14:55:00,
2013-01-26 07:56:00,35.8,21.2,30.19,NNW,342,1.0,2.0,55,0.00,,SKC,0.00,VWS V14.01,2013-01-26 14:56:00,
2013-01-26 07:57:00,35.8,21.6,30.19,North,360,1.0,2.0,56,0.00,,SKC,0.00,VWS V14.01,2013-01-26 14:57:00,
2013-01-26 07:58:00,35.8,21.6,30.19,NNW,343,1.0,1.0,56,0.00,,SKC,0.00,VWS V14.01,2013-01-26 14:58:00,
2013-01-26 07:59:00,35.9,21.8,30.19,NNW,335,1.0,2.0,56,0.00,,SKC,0.00,VWS V14.01,2013-01-26 14:59:00,
2013-01-26 08:00:00,35.9,21.8,30.19,NNW,341,3.0,3.0,56,0.00,,SKC,0.00,VWS V14.01,2013-01-26 15:00:00,
2013-01-26 08:01:00,35.9,22.2,30.19,NNW,343,3.0,4.0,57,0.00,,SKC,0.00,VWS V14.01,2013-01-26 15:01:00,
2013-01-26 08:02:00,36.0,22.3,30.19,North,360,3.0,4.0,57,0.00,,SKC,0.00,VWS V14.01,2013-01-26 15:02:00,
2013-01-26 08:03:00,36.1,22.4,30.18,NNW,339,1.0,3.0,57,0.00,,SKC,0.00,VWS V14.01,2013-01-26 15:03:00,
2013-01-26 08:04:00,36.1,22.4,30.19,NNW,342,0.0,2.0,57,0.00,,SKC,0.00,VWS V14.01,2013-01-26 15:04:00,
2013-01-26 08:05:00,36.2,22.5,30.19,NNW,342,0.0,0.0,57,0.00,,SKC,0.00,VWS V14.01,2013-01-26 15:05:00,
2013-01-26 08:06:00,36.3,22.1,30.19,North,360,1.0,1.0,56,0.00,,SKC,0.00,VWS V14.01,2013-01-26 15:06:00,
2013-01-26 08:07:00,36.5,21.9,30.19,NNW,342,1.0,3.0,55,0.00,,SKC,0.00,VWS V14.01,2013-01-26 15:07:00,
2013-01-26 08:08:00,36.5,21.9,30.19,NNW,337,4.0,4.0,55,0.00,,SKC,0.00,VWS V14.01,2013-01-26 15:08:00,
2013-01-26 08:09:00,36.6,22.0,30.19,North,360,2.0,4.0,55,0.00,,SKC,0.00,VWS V14.01,2013-01-26 15:09:00,
2013-01-26 08:10:00,36.6,22.0,30.19,NNW,344,2.0,4.0,55,0.00,,SKC,0.00,VWS V14.01,2013-01-26 15:10:00,
2013-01-26 08:11:00,36.7,22.1,30.19,North,360,3.0,4.0,55,0.00,,SKC,0.00,VWS V14.01,2013-01-26 15:11:00,
2013-01-26 08:12:00,36.8,22.2,30.19,NNW,333,1.0,3.0,55,0.00,,SKC,0.00,VWS V14.01,2013-01-26 15:12:00,
2013-01-26 08:13:00,37.0,22.4,30.19,North,360,2.0,3.0,55,0.00,,SKC,0.00,VWS V14.01,2013-01-26 15:13:00,
2013-01-26 08:14:00,37.1,22.4,30.19,NNW,334,3.0,3.0,55,0.00,,SKC,0.00,VWS V14.01,2013-01-26 15:14:00,
2013-01-26 08:15:00,37.3,22.2,30.19,NNW,343,1.0,3.0,54,0.00,,SKC,0.00,VWS V14.01,2013-01-26 15:15:00,
2013-01-26 08:16:00,37.4,22.3,30.19,NNW,333,2.0,2.0,54,0.00,,SKC,0.00,VWS V14.01,2013-01-26 15:16:00,
2013-01-26 08:17:00,37.5,22.4,30.19,NNW,342,3.0,3.0,54,0.00,,SKC,0.00,VWS V14.01,2013-01-26 15:17:00,
2013-01-26 08:18:00,37.7,22.6,30.19,NNW,342,3.0,3.0,54,0.00,,SKC,0.00,VWS V14.01,2013-01-26 15:18:00,
2013-01-26 08:19:00,37.8,22.7,30.19,NNW,341,3.0,3.0,54,0.00,,SKC,0.00,VWS V14.01,2013-01-26 15:19:00,
2013-01-26 08:20:00,37.9,22.8,30.19,NNW,340,2.0,3.0,54,0.00,,SKC,0.00,VWS V14.01,2013-01-26 15:20:00,
2013-01-26 08:22:00,38.2,22.6,30.19,North,360,3.0,3.0,53,0.00,,SKC,0.00,VWS V14.01,2013-01-26 15:22:00,
2013-01-26 08:23:00,38.3,22.7,30.19,North,360,3.0,4.0,53,0.00,,SKC,0.00,VWS V14.01,2013-01-26 15:23:00,
2013-01-26 08:24:00,38.5,22.9,30.19,NNW,341,3.0,4.0,53,0.00,,SKC,0.00,VWS V14.01,2013-01-26 15:24:00,
2013-01-26 08:25:00,38.6,22.5,30.19,NNW,338,2.0,4.0,52,0.00,,SKC,0.00,VWS V14.01,2013-01-26 15:25:00,
2013-01-26 08:26:00,38.7,22.6,30.19,NNW,336,0.0,4.0,52,0.00,,SKC,0.00,VWS V14.01,2013-01-26 15:26:00,
2013-01-26 08:27:00,38.9,22.8,30.19,North,360,0.0,1.0,52,0.00,,SKC,0.00,VWS V14.01,2013-01-26 15:27:00,
2013-01-26 08:28:00,39.0,22.9,30.19,NNW,339,0.0,1.0,52,0.00,,SKC,0.00,VWS V14.01,2013-01-26 15:28:00,
2013-01-26 08:29:00,39.1,23.0,30.19,North,360,0.0,0.0,52,0.00,,SKC,0.00,VWS V14.01,2013-01-26 15:29:00,
2013-01-26 08:30:00,39.3,23.2,30.19,NNW,342,0.0,0.0,52,0.00,,SKC,0.00,VWS V14.01,2013-01-26 15:30:00,
2013-01-26 08:31:00,39.3,23.2,30.19,North,360,0.0,1.0,52,0.00,,SKC,0.00,VWS V14.01,2013-01-26 15:31:00,
2013-01-26 08:32:00,39.4,23.2,30.19,NNW,340,0.0,0.0,52,0.00,,SKC,0.00,VWS V14.01,2013-01-26 15:32:00,
2013-01-26 08:33:00,39.5,22.9,30.19,NNW,340,0.0,0.0,51,0.00,,SKC,0.00,VWS V14.01,2013-01-26 15:33:00,
2013-01-26 08:34:00,39.6,23.0,30.19,NNW,340,0.0,0.0,51,0.00,,SKC,0.00,VWS V14.01,2013-01-26 15:34:00,
2013-01-26 08:35:00,39.7,23.1,30.19,North,360,0.0,0.0,51,0.00,,SKC,0.00,VWS V14.01,2013-01-26 15:35:00,
2013-01-26 08:36:00,39.8,23.2,30.19,NNW,339,0.0,1.0,51,0.00,,SKC,0.00,VWS V14.01,2013-01-26 15:36:00,
2013-01-26 08:37:00,39.9,22.8,30.19,NNW,346,2.0,2.0,50,0.00,,SKC,0.00,VWS V14.01,2013-01-26 15:37:00,
2013-01-26 08:38:00,40.0,22.9,30.19,NNE,19,3.0,3.0,50,0.00,,SKC,0.00,VWS V14.01,2013-01-26 15:38:00,
2013-01-26 08:39:00,40.0,22.9,30.19,ENE,71,3.0,4.0,50,0.00,,SKC,0.00,VWS V14.01,2013-01-26 15:39:00,
2013-01-26 08:40:00,40.0,22.9,30.19,ENE,76,3.0,4.0,50,0.00,,SKC,0.00,VWS V14.01,2013-01-26 15:40:00,
2013-01-26 08:41:00,40.1,23.0,30.19,ENE,75,1.0,4.0,50,0.00,,SKC,0.00,VWS V14.01,2013-01-26 15:41:00,
2013-01-26 08:42:00,40.2,23.1,30.19,ENE,74,3.0,4.0,50,0.00,,SKC,0.00,VWS V14.01,2013-01-26 15:42:00,
2013-01-26 08:43:00,40.2,23.1,30.19,North,360,2.0,4.0,50,0.00,,SKC,0.00,VWS V14.01,2013-01-26 15:43:00,
2013-01-26 08:44:00,40.3,23.1,30.19,ENE,78,0.0,4.0,50,0.00,,SKC,0.00,VWS V14.01,2013-01-26 15:44:00,
2013-01-26 08:45:00,40.4,23.2,30.19,ENE,75,1.0,3.0,50,0.00,,SKC,0.00,VWS V14.01,2013-01-26 15:45:00,
2013-01-26 08:46:00,40.5,23.3,30.19,ENE,69,1.0,2.0,50,0.00,,SKC,0.00,VWS V14.01,2013-01-26 15:46:00,
2013-01-26 08:47:00,40.6,23.4,30.19,East,79,1.0,2.0,50,0.00,,SKC,0.00,VWS V14.01,2013-01-26 15:47:00,
2013-01-26 08:48:00,40.7,23.5,30.18,ENE,74,0.0,1.0,50,0.00,,SKC,0.00,VWS V14.01,2013-01-26 15:48:00,
2013-01-26 08:49:00,40.9,23.7,30.19,North,360,0.0,1.0,50,0.00,,SKC,0.00,VWS V14.01,2013-01-26 15:49:00,
2013-01-26 08:50:00,41.0,23.3,30.19,East,79,0.0,1.0,49,0.00,,SKC,0.00,VWS V14.01,2013-01-26 15:50:00,
2013-01-26 08:51:00,41.1,23.4,30.18,East,81,0.0,1.0,49,0.00,,SKC,0.00,VWS V14.01,2013-01-26 15:51:00,
2013-01-26 08:52:00,41.3,24.1,30.18,East,80,1.0,1.0,50,0.00,,SKC,0.00,VWS V14.01,2013-01-26 15:52:00,
2013-01-26 08:53:00,41.5,23.8,30.18,East,79,0.0,1.0,49,0.00,,SKC,0.00,VWS V14.01,2013-01-26 15:53:00,
2013-01-26 08:54:00,41.8,23.6,30.18,ENE,76,0.0,1.0,48,0.00,,SKC,0.00,VWS V14.01,2013-01-26 15:54:00,
2013-01-26 08:55:00,42.0,23.8,30.18,ENE,72,0.0,1.0,48,0.00,,SKC,0.00,VWS V14.01,2013-01-26 15:55:00,
2013-01-26 08:56:00,42.1,23.8,30.18,ENE,74,0.0,0.0,48,0.00,,SKC,0.00,VWS V14.01,2013-01-26 15:56:00,
2013-01-26 08:57:00,42.3,24.0,30.18,ENE,76,0.0,0.0,48,0.00,,SKC,0.00,VWS V14.01,2013-01-26 15:57:00,
2013-01-26 08:58:00,42.4,24.1,30.18,ENE,72,0.0,1.0,48,0.00,,SKC,0.00,VWS V14.01,2013-01-26 15:58:00,
2013-01-26 08:59:00,42.5,23.7,30.18,ENE,76,0.0,1.0,47,0.00,,SKC,0.00,VWS V14.01,2013-01-26 15:59:00,
2013-01-26 09:00:00,42.7,23.4,30.18,ENE,78,0.0,0.0,46,0.00,,SKC,0.00,VWS V14.01,2013-01-26 16:00:00,
2013-01-26 09:01:00,42.8,23.5,30.18,ENE,75,0.0,0.0,46,0.00,,SKC,0.00,VWS V14.01,2013-01-26 16:01:00,
2013-01-26 09:02:00,42.8,23.5,30.18,ENE,76,0.0,0.0,46,0.00,,SKC,0.00,VWS V14.01,2013-01-26 16:02:00,
2013-01-26 09:03:00,42.9,23.6,30.18,ENE,75,0.0,0.0,46,0.00,,SKC,0.00,VWS V14.01,2013-01-26 16:03:00,
2013-01-26 09:04:00,42.9,23.6,30.18,ENE,78,0.0,0.0,46,0.00,,SKC,0.00,VWS V14.01,2013-01-26 16:04:00,
2013-01-26 09:05:00,43.0,23.1,30.18,ENE,76,0.0,0.0,45,0.00,,SKC,0.00,VWS V14.01,2013-01-26 16:05:00,
2013-01-26 09:06:00,43.1,23.7,30.18,East,81,0.0,0.0,46,0.00,,SKC,0.00,VWS V14.01,2013-01-26 16:06:00,
2013-01-26 09:07:00,43.2,23.3,30.18,ENE,78,0.0,0.0,45,0.00,,SKC,0.00,VWS V14.01,2013-01-26 16:07:00,
2013-01-26 09:08:00,43.3,23.9,30.18,ENE,75,0.0,0.0,46,0.00,,SKC,0.00,VWS V14.01,2013-01-26 16:08:00,
2013-01-26 09:09:00,43.4,24.0,30.18,East,80,0.0,1.0,46,0.00,,SKC,0.00,VWS V14.01,2013-01-26 16:09:00,
2013-01-26 09:10:00,43.6,24.2,30.18,ENE,78,0.0,0.0,46,0.00,,SKC,0.00,VWS V14.01,2013-01-26 16:10:00,
2013-01-26 09:11:00,43.7,24.3,30.17,East,81,0.0,1.0,46,0.00,,SKC,0.00,VWS V14.01,2013-01-26 16:11:00,
2013-01-26 09:12:00,43.8,23.9,30.18,East,81,0.0,1.0,45,0.00,,SKC,0.00,VWS V14.01,2013-01-26 16:12:00,
2013-01-26 09:13:00,43.9,24.0,30.18,East,81,0.0,1.0,45,0.00,,SKC,0.00,VWS V14.01,2013-01-26 16:13:00,
2013-01-26 09:14:00,44.1,24.1,30.17,ENE,73,0.0,1.0,45,0.00,,SKC,0.00,VWS V14.01,2013-01-26 16:14:00,
2013-01-26 09:15:00,44.3,23.8,30.17,East,79,0.0,0.0,44,0.00,,SKC,0.00,VWS V14.01,2013-01-26 16:15:00,
2013-01-26 09:16:00,44.5,24.5,30.17,East,80,0.0,0.0,45,0.00,,SKC,0.00,VWS V14.01,2013-01-26 16:16:00,
2013-01-26 09:17:00,44.6,24.0,30.17,ENE,78,1.0,1.0,44,0.00,,SKC,0.00,VWS V14.01,2013-01-26 16:17:00,
2013-01-26 09:18:00,44.8,24.2,30.17,East,80,1.0,1.0,44,0.00,,SKC,0.00,VWS V14.01,2013-01-26 16:18:00,
2013-01-26 09:19:00,45.0,23.9,30.17,East,82,0.0,1.0,43,0.00,,SKC,0.00,VWS V14.01,2013-01-26 16:19:00,
2013-01-26 09:20:00,45.0,23.9,30.18,East,80,0.0,1.0,43,0.00,,SKC,0.00,VWS V14.01,2013-01-26 16:20:00,
2013-01-26 09:21:00,45.2,24.0,30.17,East,84,0.0,1.0,43,0.00,,SKC,0.00,VWS V14.01,2013-01-26 16:21:00,
2013-01-26 09:22:00,45.3,24.1,30.17,East,82,0.0,0.0,43,0.00,,SKC,0.00,VWS V14.01,2013-01-26 16:22:00,
2013-01-26 09:23:00,45.4,24.2,30.18,ENE,77,0.0,1.0,43,0.00,,SKC,0.00,VWS V14.01,2013-01-26 16:23:00,
2013-01-26 09:24:00,45.5,23.8,30.18,ENE,77,0.0,0.0,42,0.00,,SKC,0.00,VWS V14.01,2013-01-26 16:24:00,
2013-01-26 09:25:00,45.7,23.9,30.17,East,81,0.0,1.0,42,0.00,,SKC,0.00,VWS V14.01,2013-01-26 16:25:00,
2013-01-26 09:26:00,45.8,24.0,30.18,ENE,78,1.0,1.0,42,0.00,,SKC,0.00,VWS V14.01,2013-01-26 16:26:00,
2013-01-26 09:27:00,45.9,24.1,30.17,East,80,0.0,1.0,42,0.00,,SKC,0.00,VWS V14.01,2013-01-26 16:27:00,
2013-01-26 09:28:00,46.0,24.2,30.17,East,80,0.0,1.0,42,0.00,,SKC,0.00,VWS V14.01,2013-01-26 16:28:00,
2013-01-26 09:29:00,46.1,23.7,30.18,ENE,78,1.0,1.0,41,0.00,,SKC,0.00,VWS V14.01,2013-01-26 16:29:00,
2013-01-26 09:30:00,46.1,23.7,30.18,ENE,78,0.0,1.0,41,0.00,,SKC,0.00,VWS V14.01,2013-01-26 16:30:00,
2013-01-26 09:31:00,46.2,24.4,30.18,East,81,1.0,2.0,42,0.00,,SKC,0.00,VWS V14.01,2013-01-26 16:31:00,
2013-01-26 09:32:00,46.2,24.4,30.19,East,82,1.0,1.0,42,0.00,,SKC,0.00,VWS V14.01,2013-01-26 16:32:00,
2013-01-26 09:33:00,46.3,23.9,30.18,East,80,0.0,2.0,41,0.00,,SKC,0.00,VWS V14.01,2013-01-26 16:33:00,
2013-01-26 09:34:00,46.4,24.0,30.18,ENE,76,0.0,1.0,41,0.00,,SKC,0.00,VWS V14.01,2013-01-26 16:34:00,
2013-01-26 09:35:00,46.4,24.0,30.18,East,84,0.0,1.0,41,0.00,,SKC,0.00,VWS V14.01,2013-01-26 16:35:00,
2013-01-26 09:36:00,46.4,24.0,30.18,East,82,0.0,2.0,41,0.00,,SKC,0.00,VWS V14.01,2013-01-26 16:36:00,
2013-01-26 09:37:00,46.5,24.1,30.18,East,80,0.0,1.0,41,0.00,,SKC,0.00,VWS V14.01,2013-01-26 16:37:00,
2013-01-26 09:38:00,46.5,24.1,30.18,East,82,0.0,1.0,41,0.00,,SKC,0.00,VWS V14.01,2013-01-26 16:38:00,
2013-01-26 09:39:00,46.6,24.2,30.18,East,84,0.0,1.0,41,0.00,,SKC,0.00,VWS V14.01,2013-01-26 16:39:00,
2013-01-26 09:40:00,46.7,24.3,30.18,East,80,0.0,1.0,41,0.00,,SKC,0.00,VWS V14.01,2013-01-26 16:40:00,
2013-01-26 09:41:00,46.7,24.3,30.18,East,80,0.0,1.0,41,0.00,,SKC,0.00,VWS V14.01,2013-01-26 16:41:00,
2013-01-26 09:42:00,46.8,23.8,30.18,East,81,2.0,3.0,40,0.00,,SKC,0.00,VWS V14.01,2013-01-26 16:42:00,
2013-01-26 09:43:00,46.8,23.8,30.18,East,82,3.0,4.0,40,0.00,,SKC,0.00,VWS V14.01,2013-01-26 16:43:00,
2013-01-26 09:44:00,46.8,23.8,30.18,East,80,3.0,3.0,40,0.00,,SKC,0.00,VWS V14.01,2013-01-26 16:44:00,
2013-01-26 09:45:00,46.9,23.9,30.18,East,82,3.0,3.0,40,0.00,,SKC,0.00,VWS V14.01,2013-01-26 16:45:00,
2013-01-26 09:46:00,46.9,23.9,30.18,ENE,76,1.0,3.0,40,0.00,,SKC,0.00,VWS V14.01,2013-01-26 16:46:00,
2013-01-26 09:47:00,46.9,23.9,30.18,ENE,76,2.0,2.0,40,0.00,,SKC,0.00,VWS V14.01,2013-01-26 16:47:00,
2013-01-26 09:48:00,46.9,23.3,30.18,ENE,70,2.0,2.0,39,0.00,,SKC,0.00,VWS V14.01,2013-01-26 16:48:00,
2013-01-26 09:49:00,47.0,24.0,30.18,East,83,1.0,2.0,40,0.00,,SKC,0.00,VWS V14.01,2013-01-26 16:49:00,
2013-01-26 09:50:00,47.0,24.0,30.18,ENE,78,3.0,4.0,40,0.00,,SKC,0.00,VWS V14.01,2013-01-26 16:50:00,
2013-01-26 09:51:00,47.0,24.0,30.18,East,84,3.0,4.0,40,0.00,,SKC,0.00,VWS V14.01,2013-01-26 16:51:00,
2013-01-26 09:52:00,47.0,24.0,30.18,East,83,2.0,4.0,40,0.00,,SKC,0.00,VWS V14.01,2013-01-26 16:52:00,
2013-01-26 09:53:00,47.1,24.0,30.18,East,80,2.0,3.0,40,0.00,,SKC,0.00,VWS V14.01,2013-01-26 16:53:00,
2013-01-26 09:54:00,47.1,23.4,30.19,East,79,3.0,5.0,39,0.00,,SKC,0.00,VWS V14.01,2013-01-26 16:54:00,
2013-01-26 09:55:00,47.1,23.4,30.19,East,80,3.0,5.0,39,0.00,,SKC,0.00,VWS V14.01,2013-01-26 16:55:00,
2013-01-26 09:56:00,47.1,23.4,30.18,East,98,4.0,5.0,39,0.00,,SKC,0.00,VWS V14.01,2013-01-26 16:56:00,
2013-01-26 09:57:00,47.1,24.0,30.19,East,101,2.0,4.0,40,0.00,,SKC,0.00,VWS V14.01,2013-01-26 16:57:00,
2013-01-26 09:58:00,47.1,23.4,30.19,East,95,3.0,4.0,39,0.00,,SKC,0.00,VWS V14.01,2013-01-26 16:58:00,
2013-01-26 09:59:00,47.1,24.0,30.19,East,96,3.0,4.0,40,0.00,,SKC,0.00,VWS V14.01,2013-01-26 16:59:00,
2013-01-26 10:00:00,47.1,24.0,30.19,East,101,1.0,3.0,40,0.00,,SKC,0.00,VWS V14.01,2013-01-26 17:00:00,
2013-01-26 10:01:00,47.2,23.5,30.19,East,96,2.0,2.0,39,0.00,,SKC,0.00,VWS V14.01,2013-01-26 17:01:00,
2013-01-26 10:02:00,47.1,23.4,30.19,East,96,1.0,3.0,39,0.00,,SKC,0.00,VWS V14.01,2013-01-26 17:02:00,
2013-01-26 10:03:00,47.1,23.4,30.19,East,99,3.0,5.0,39,0.00,,SKC,0.00,VWS V14.01,2013-01-26 17:03:00,
2013-01-26 10:04:00,47.0,24.0,30.19,North,360,3.0,4.0,40,0.00,,SKC,0.00,VWS V14.01,2013-01-26 17:04:00,
2013-01-26 10:05:00,47.0,24.0,30.19,East,94,3.0,5.0,40,0.00,,SKC,0.00,VWS V14.01,2013-01-26 17:05:00,
2013-01-26 10:06:00,47.0,24.0,30.19,East,96,1.0,3.0,40,0.00,,SKC,0.00,VWS V14.01,2013-01-26 17:06:00,
2013-01-26 10:07:00,47.0,24.0,30.19,East,96,4.0,5.0,40,0.00,,SKC,0.00,VWS V14.01,2013-01-26 17:07:00,
2013-01-26 10:08:00,47.0,23.3,30.19,East,96,4.0,4.0,39,0.00,,SKC,0.00,VWS V14.01,2013-01-26 17:08:00,
2013-01-26 10:09:00,46.9,23.9,30.19,East,101,3.0,4.0,40,0.00,,SKC,0.00,VWS V14.01,2013-01-26 17:09:00,
2013-01-26 10:10:00,46.9,23.9,30.19,East,101,4.0,5.0,40,0.00,,SKC,0.00,VWS V14.01,2013-01-26 17:10:00,
2013-01-26 10:11:00,47.0,24.0,30.19,ESE,114,6.0,7.0,40,0.00,,SKC,0.00,VWS V14.01,2013-01-26 17:11:00,
2013-01-26 10:12:00,47.0,24.0,30.19,ESE,116,3.0,6.0,40,0.00,,SKC,0.00,VWS V14.01,2013-01-26 17:12:00,
2013-01-26 10:13:00,47.0,24.5,30.19,East,100,5.0,7.0,41,0.00,,SKC,0.00,VWS V14.01,2013-01-26 17:13:00,
2013-01-26 10:14:00,47.1,24.0,30.19,ENE,78,3.0,6.0,40,0.00,,SKC,0.00,VWS V14.01,2013-01-26 17:14:00,
2013-01-26 10:15:00,47.2,24.1,30.19,ENE,70,4.0,6.0,40,0.00,,SKC,0.00,VWS V14.01,2013-01-26 17:15:00,
2013-01-26 10:16:00,47.3,24.2,30.19,East,86,4.0,10.0,40,0.00,,SKC,0.00,VWS V14.01,2013-01-26 17:16:00,
2013-01-26 10:17:00,47.4,24.3,30.20,ESE,117,4.0,6.0,40,0.00,,SKC,0.00,VWS V14.01,2013-01-26 17:17:00,
2013-01-26 10:18:00,47.5,24.4,30.20,East,93,6.0,6.0,40,0.00,,SKC,0.00,VWS V14.01,2013-01-26 17:18:00,
2013-01-26 10:19:00,47.6,24.5,30.20,East,98,3.0,6.0,40,0.00,,SKC,0.00,VWS V14.01,2013-01-26 17:19:00,
2013-01-26 10:20:00,47.7,24.0,30.20,East,94,6.0,6.0,39,0.00,,SKC,0.00,VWS V14.01,2013-01-26 17:20:00,
2013-01-26 10:21:00,47.8,24.1,30.20,North,360,4.0,7.0,39,0.00,,SKC,0.00,VWS V14.01,2013-01-26 17:21:00,
2013-01-26 10:22:00,47.9,24.1,30.20,ESE,105,4.0,5.0,39,0.00,,SKC,0.00,VWS V14.01,2013-01-26 17:22:00,
2013-01-26 10:23:00,47.9,24.1,30.20,ESE,105,3.0,5.0,39,0.00,,SKC,0.00,VWS V14.01,2013-01-26 17:23:00,
2013-01-26 10:24:00,48.1,24.3,30.20,ESE,106,4.0,6.0,39,0.00,,SKC,0.00,VWS V14.01,2013-01-26 17:24:00,
2013-01-26 10:25:00,48.2,24.4,30.20,ESE,107,3.0,4.0,39,0.00,,SKC,0.00,VWS V14.01,2013-01-26 17:25:00,
2013-01-26 10:26:00,48.3,25.7,30.20,ESE,105,3.0,4.0,41,0.00,,SKC,0.00,VWS V14.01,2013-01-26 17:26:00,
2013-01-26 10:27:00,48.4,24.6,30.20,ESE,103,1.0,4.0,39,0.00,,SKC,0.00,VWS V14.01,2013-01-26 17:27:00,
2013-01-26 10:28:00,48.4,24.0,30.20,East,98,3.0,3.0,38,0.00,,SKC,0.00,VWS V14.01,2013-01-26 17:28:00,
2013-01-26 10:29:00,48.5,24.7,30.19,North,360,4.0,4.0,39,0.00,,SKC,0.00,VWS V14.01,2013-01-26 17:29:00,
2013-01-26 10:30:00,48.6,24.8,30.20,East,94,3.0,4.0,39,0.00,,SKC,0.00,VWS V14.01,2013-01-26 17:30:00,
2013-01-26 10:31:00,48.7,24.2,30.20,East,97,2.0,4.0,38,0.00,,SKC,0.00,VWS V14.01,2013-01-26 17:31:00,
2013-01-26 10:32:00,48.7,24.9,30.19,East,96,4.0,4.0,39,0.00,,SKC,0.00,VWS V14.01,2013-01-26 17:32:00,
2013-01-26 10:33:00,48.8,24.3,30.19,East,96,1.0,5.0,38,0.00,,SKC,0.00,VWS V14.01,2013-01-26 17:33:00,
2013-01-26 10:34:00,48.8,24.3,30.20,East,94,0.0,1.0,38,0.00,,SKC,0.00,VWS V14.01,2013-01-26 17:34:00,
2013-01-26 10:35:00,48.9,24.4,30.19,East,89,0.0,1.0,38,0.00,,SKC,0.00,VWS V14.01,2013-01-26 17:35:00,
2013-01-26 10:36:00,48.9,24.4,30.19,East,91,4.0,4.0,38,0.00,,SKC,0.00,VWS V14.01,2013-01-26 17:36:00,
2013-01-26 10:37:00,49.0,24.5,30.19,East,94,0.0,5.0,38,0.00,,SKC,0.00,VWS V14.01,2013-01-26 17:37:00,
2013-01-26 10:38:00,49.1,24.6,30.19,East,94,4.0,4.0,38,0.00,,SKC,0.00,VWS V14.01,2013-01-26 17:38:00,
2013-01-26 10:39:00,49.1,24.6,30.19,SE,137,4.0,6.0,38,0.00,,SKC,0.00,VWS V14.01,2013-01-26 17:39:00,
2013-01-26 10:40:00,49.2,24.7,30.19,SE,140,4.0,4.0,38,0.00,,SKC,0.00,VWS V14.01,2013-01-26 17:40:00,
2013-01-26 10:41:00,49.2,24.7,30.19,SE,138,3.0,6.0,38,0.00,,SKC,0.00,VWS V14.01,2013-01-26 17:41:00,
2013-01-26 10:42:00,49.2,24.7,30.19,SE,133,5.0,7.0,38,0.00,,SKC,0.00,VWS V14.01,2013-01-26 17:42:00,
2013-01-26 10:43:00,49.3,24.8,30.19,SE,126,9.0,9.0,38,0.00,,SKC,0.00,VWS V14.01,2013-01-26 17:43:00,
2013-01-26 10:44:00,49.4,24.9,30.19,SE,127,4.0,10.0,38,0.00,,SKC,0.00,VWS V14.01,2013-01-26 17:44:00,
2013-01-26 10:45:00,49.5,25.0,30.19,SE,132,4.0,4.0,38,0.00,,SKC,0.00,VWS V14.01,2013-01-26 17:45:00,
2013-01-26 10:46:00,49.5,25.0,30.19,SE,128,3.0,4.0,38,0.00,,SKC,0.00,VWS V14.01,2013-01-26 17:46:00,
2013-01-26 10:47:00,49.6,25.0,30.19,North,360,2.0,3.0,38,0.00,,SKC,0.00,VWS V14.01,2013-01-26 17:47:00,
2013-01-26 10:48:00,49.6,25.0,30.19,SE,125,2.0,3.0,38,0.00,,SKC,0.00,VWS V14.01,2013-01-26 17:48:00,
2013-01-26 10:49:00,49.7,25.1,30.19,ESE,123,3.0,6.0,38,0.00,,SKC,0.00,VWS V14.01,2013-01-26 17:49:00,
2013-01-26 10:50:00,49.7,24.5,30.19,ESE,121,3.0,3.0,37,0.00,,SKC,0.00,VWS V14.01,2013-01-26 17:50:00,
2013-01-26 10:51:00,49.8,24.6,30.19,SE,124,3.0,4.0,37,0.00,,SKC,0.00,VWS V14.01,2013-01-26 17:51:00,
2013-01-26 10:52:00,49.8,24.6,30.19,East,99,5.0,6.0,37,0.00,,SKC,0.00,VWS V14.01,2013-01-26 17:52:00,
2013-01-26 10:53:00,49.8,24.6,30.18,ESE,109,5.0,7.0,37,0.00,,SKC,0.00,VWS V14.01,2013-01-26 17:53:00,
2013-01-26 10:54:00,49.8,24.6,30.18,ESE,105,5.0,6.0,37,0.00,,SKC,0.00,VWS V14.01,2013-01-26 17:54:00,
2013-01-26 10:55:00,49.9,24.7,30.18,ESE,103,4.0,5.0,37,0.00,,SKC,0.00,VWS V14.01,2013-01-26 17:55:00,
2013-01-26 10:56:00,49.9,24.7,30.18,ESE,123,4.0,7.0,37,0.00,,SKC,0.00,VWS V14.01,2013-01-26 17:56:00,
2013-01-26 10:57:00,49.9,24.7,30.18,ESE,123,4.0,6.0,37,0.00,,SKC,0.00,VWS V14.01,2013-01-26 17:57:00,
2013-01-26 10:58:00,49.8,24.6,30.18,ESE,123,3.0,5.0,37,0.00,,SKC,0.00,VWS V14.01,2013-01-26 17:58:00,
2013-01-26 10:59:00,49.8,24.6,30.18,SE,124,5.0,6.0,37,0.00,,SKC,0.00,VWS V14.01,2013-01-26 17:59:00,
2013-01-26 11:00:00,49.8,24.6,30.18,SE,126,3.0,5.0,37,0.00,,SKC,0.00,VWS V14.01,2013-01-26 18:00:00,
2013-01-26 11:01:00,49.8,24.6,30.18,ESE,122,4.0,5.0,37,0.00,,SKC,0.00,VWS V14.01,2013-01-26 18:01:00,
2013-01-26 11:02:00,49.7,24.5,30.18,SE,132,3.0,4.0,37,0.00,,SKC,0.00,VWS V14.01,2013-01-26 18:02:00,
2013-01-26 11:03:00,49.7,24.5,30.18,SE,124,2.0,3.0,37,0.00,,SKC,0.00,VWS V14.01,2013-01-26 18:03:00,
2013-01-26 11:04:00,49.8,25.2,30.18,SE,126,2.0,2.0,38,0.00,,SKC,0.00,VWS V14.01,2013-01-26 18:04:00,
2013-01-26 11:05:00,49.8,25.2,30.18,SE,128,2.0,4.0,38,0.00,,SKC,0.00,VWS V14.01,2013-01-26 18:05:00,
2013-01-26 11:06:00,49.9,24.7,30.18,ESE,123,4.0,5.0,37,0.00,,SKC,0.00,VWS V14.01,2013-01-26 18:06:00,
2013-01-26 11:07:00,49.9,24.7,30.18,SE,146,6.0,6.0,37,0.00,,SKC,0.00,VWS V14.01,2013-01-26 18:07:00,
2013-01-26 11:08:00,50.0,24.8,30.17,SE,139,4.0,6.0,37,0.00,,SKC,0.00,VWS V14.01,2013-01-26 18:08:00,
2013-01-26 11:09:00,50.0,25.4,30.17,ESE,112,4.0,11.0,38,0.00,,SKC,0.00,VWS V14.01,2013-01-26 18:09:00,
2013-01-26 11:10:00,50.1,24.9,30.17,ESE,120,6.0,9.0,37,0.00,,SKC,0.00,VWS V14.01,2013-01-26 18:10:00,
2013-01-26 11:11:00,50.1,24.9,30.17,North,360,4.0,6.0,37,0.00,,SKC,0.00,VWS V14.01,2013-01-26 18:11:00,
2013-01-26 11:12:00,50.1,24.9,30.17,SE,133,5.0,7.0,37,0.00,,SKC,0.00,VWS V14.01,2013-01-26 18:12:00,
2013-01-26 11:13:00,50.1,24.9,30.17,ESE,110,4.0,6.0,37,0.00,,SKC,0.00,VWS V14.01,2013-01-26 18:13:00,
2013-01-26 11:14:00,50.1,24.9,30.17,SE,132,5.0,7.0,37,0.00,,SKC,0.00,VWS V14.01,2013-01-26 18:14:00,
2013-01-26 11:15:00,50.1,24.9,30.17,ESE,123,11.0,11.0,37,0.00,,SKC,0.00,VWS V14.01,2013-01-26 18:15:00,
2013-01-26 11:16:00,50.2,25.0,30.17,East,101,6.0,11.0,37,0.00,,SKC,0.00,VWS V14.01,2013-01-26 18:16:00,
2013-01-26 11:17:00,50.2,25.0,30.16,ESE,119,6.0,7.0,37,0.00,,SKC,0.00,VWS V14.01,2013-01-26 18:17:00,
2013-01-26 11:18:00,50.2,25.0,30.16,ESE,113,5.0,7.0,37,0.00,,SKC,0.00,VWS V14.01,2013-01-26 18:18:00,
2013-01-26 11:19:00,50.2,25.0,30.16,ESE,113,8.0,9.0,37,0.00,,SKC,0.00,VWS V14.01,2013-01-26 18:19:00,
2013-01-26 11:20:00,50.2,25.0,30.16,ENE,67,3.0,9.0,37,0.00,,SKC,0.00,VWS V14.01,2013-01-26 18:20:00,
2013-01-26 11:21:00,50.1,24.9,30.16,East,92,3.0,9.0,37,0.00,,SKC,0.00,VWS V14.01,2013-01-26 18:21:00,
2013-01-26 11:22:00,50.1,24.9,30.16,ESE,122,4.0,6.0,37,0.00,,SKC,0.00,VWS V14.01,2013-01-26 18:22:00,
2013-01-26 11:23:00,50.1,24.9,30.15,ESE,104,7.0,7.0,37,0.00,,SKC,0.00,VWS V14.01,2013-01-26 18:23:00,
2013-01-26 11:24:00,50.1,24.9,30.15,East,85,3.0,7.0,37,0.00,,SKC,0.00,VWS V14.01,2013-01-26 18:24:00,
2013-01-26 11:25:00,50.0,24.8,30.15,ESE,102,5.0,6.0,37,0.00,,SKC,0.00,VWS V14.01,2013-01-26 18:25:00,
2013-01-26 11:26:00,50.0,24.8,30.15,SE,134,9.0,10.0,37,0.00,,SKC,0.00,VWS V14.01,2013-01-26 18:26:00,
2013-01-26 11:27:00,50.0,24.8,30.15,SE,131,4.0,9.0,37,0.00,,SKC,0.00,VWS V14.01,2013-01-26 18:27:00,
2013-01-26 11:28:00,50.0,24.8,30.15,SE,133,5.0,5.0,37,0.00,,SKC,0.00,VWS V14.01,2013-01-26 18:28:00,
2013-01-26 11:29:00,50.0,24.8,30.15,SE,126,4.0,7.0,37,0.00,,SKC,0.00,VWS V14.01,2013-01-26 18:29:00,
2013-01-26 11:30:00,50.0,24.8,30.15,East,93,4.0,6.0,37,0.00,,SKC,0.00,VWS V14.01,2013-01-26 18:30:00,
2013-01-26 11:31:00,50.0,24.8,30.15,ESE,112,3.0,6.0,37,0.00,,SKC,0.00,VWS V14.01,2013-01-26 18:31:00,
2013-01-26 11:32:00,50.0,24.8,30.14,ESE,115,4.0,9.0,37,0.00,,SKC,0.00,VWS V14.01,2013-01-26 18:32:00,
2013-01-26 11:33:00,50.0,24.8,30.14,SE,140,4.0,6.0,37,0.00,,SKC,0.00,VWS V14.01,2013-01-26 18:33:00,
2013-01-26 11:34:00,50.0,24.8,30.14,SE,136,3.0,5.0,37,0.00,,SKC,0.00,VWS V14.01,2013-01-26 18:34:00,
2013-01-26 11:35:00,49.9,24.7,30.14,East,93,7.0,8.0,37,0.00,,SKC,0.00,VWS V14.01,2013-01-26 18:35:00,
2013-01-26 11:36:00,49.9,24.7,30.14,East,96,4.0,7.0,37,0.00,,SKC,0.00,VWS V14.01,2013-01-26 18:36:00,
2013-01-26 11:37:00,49.9,24.7,30.14,ESE,112,8.0,8.0,37,0.00,,SKC,0.00,VWS V14.01,2013-01-26 18:37:00,
2013-01-26 11:38:00,49.9,24.7,30.14,East,92,7.0,10.0,37,0.00,,SKC,0.00,VWS V14.01,2013-01-26 18:38:00,
2013-01-26 11:39:00,49.9,24.7,30.14,East,87,3.0,7.0,37,0.00,,SKC,0.00,VWS V14.01,2013-01-26 18:39:00,
2013-01-26 11:40:00,49.9,24.7,30.14,ESE,121,7.0,7.0,37,0.00,,SKC,0.00,VWS V14.01,2013-01-26 18:40:00,
2013-01-26 11:41:00,49.9,24.7,30.13,East,100,5.0,7.0,37,0.00,,SKC,0.00,VWS V14.01,2013-01-26 18:41:00,
2013-01-26 11:42:00,49.9,24.7,30.14,East,101,5.0,6.0,37,0.00,,SKC,0.00,VWS V14.01,2013-01-26 18:42:00,
2013-01-26 11:43:00,49.9,24.7,30.14,East,84,5.0,7.0,37,0.00,,SKC,0.00,VWS V14.01,2013-01-26 18:43:00,
2013-01-26 11:44:00,49.9,24.7,30.13,ESE,106,6.0,6.0,37,0.00,,SKC,0.00,VWS V14.01,2013-01-26 18:44:00,
2013-01-26 11:45:00,49.9,24.7,30.13,East,97,3.0,7.0,37,0.00,,SKC,0.00,VWS V14.01,2013-01-26 18:45:00,
2013-01-26 11:46:00,49.9,24.7,30.13,East,100,4.0,4.0,37,0.00,,SKC,0.00,VWS V14.01,2013-01-26 18:46:00,
2013-01-26 11:47:00,49.9,24.7,30.13,SE,138,6.0,11.0,37,0.00,,SKC,0.00,VWS V14.01,2013-01-26 18:47:00,
2013-01-26 11:48:00,49.9,24.7,30.13,SE,136,3.0,6.0,37,0.00,,SKC,0.00,VWS V14.01,2013-01-26 18:48:00,
2013-01-26 11:49:00,50.0,24.8,30.13,SE,131,5.0,6.0,37,0.00,,SKC,0.00,VWS V14.01,2013-01-26 18:49:00,
2013-01-26 11:50:00,50.0,25.4,30.12,ESE,116,8.0,8.0,38,0.00,,SKC,0.00,VWS V14.01,2013-01-26 18:50:00,
2013-01-26 11:51:00,50.0,24.1,30.13,East,91,6.0,9.0,36,0.00,,SKC,0.00,VWS V14.01,2013-01-26 18:51:00,
2013-01-26 11:52:00,50.0,24.1,30.12,North,360,2.0,6.0,36,0.00,,SKC,0.00,VWS V14.01,2013-01-26 18:52:00,
2013-01-26 11:53:00,50.0,25.4,30.12,ESE,113,3.0,4.0,38,0.00,,SKC,0.00,VWS V14.01,2013-01-26 18:53:00,
2013-01-26 11:54:00,50.0,24.1,30.12,ESE,111,2.0,4.0,36,0.00,,SKC,0.00,VWS V14.01,2013-01-26 18:54:00,
2013-01-26 11:55:00,50.0,24.1,30.12,ESE,117,3.0,6.0,36,0.00,,SKC,0.00,VWS V14.01,2013-01-26 18:55:00,
2013-01-26 11:56:00,50.0,24.1,30.12,SE,131,3.0,9.0,36,0.00,,SKC,0.00,VWS V14.01,2013-01-26 18:56:00,
2013-01-26 11:57:00,50.0,24.1,30.12,SE,131,5.0,7.0,36,0.00,,SKC,0.00,VWS V14.01,2013-01-26 18:57:00,
2013-01-26 11:58:00,50.1,24.9,30.12,SE,126,3.0,6.0,37,0.00,,SKC,0.00,VWS V14.01,2013-01-26 18:58:00,
2013-01-26 11:59:00,50.1,24.2,30.12,ESE,111,6.0,6.0,36,0.00,,SKC,0.00,VWS V14.01,2013-01-26 18:59:00,
2013-01-26 12:00:00,50.1,24.2,30.11,ESE,119,5.0,7.0,36,0.00,,SKC,0.00,VWS V14.01,2013-01-26 19:00:00,
2013-01-26 12:01:00,50.1,24.2,30.11,East,94,9.0,10.0,36,0.00,,SKC,0.00,VWS V14.01,2013-01-26 19:01:00,
2013-01-26 12:02:00,50.1,24.2,30.11,East,95,7.0,10.0,36,0.00,,SKC,0.00,VWS V14.01,2013-01-26 19:02:00,
2013-01-26 12:03:00,50.0,24.8,30.11,East,101,7.0,10.0,37,0.00,,SKC,0.00,VWS V14.01,2013-01-26 19:03:00,
2013-01-26 12:04:00,50.0,24.8,30.11,North,360,6.0,11.0,37,0.00,,SKC,0.00,VWS V14.01,2013-01-26 19:04:00,
2013-01-26 12:05:00,50.0,24.1,30.11,ESE,103,5.0,9.0,36,0.00,,SKC,0.00,VWS V14.01,2013-01-26 19:05:00,
2013-01-26 12:06:00,49.9,24.0,30.11,East,99,9.0,9.0,36,0.00,,SKC,0.00,VWS V14.01,2013-01-26 19:06:00,
2013-01-26 12:07:00,49.9,24.0,30.11,East,97,4.0,9.0,36,0.00,,SKC,0.00,VWS V14.01,2013-01-26 19:07:00,
2013-01-26 12:08:00,49.9,24.7,30.11,East,81,4.0,6.0,37,0.00,,SKC,0.00,VWS V14.01,2013-01-26 19:08:00,
2013-01-26 12:09:00,49.9,24.7,30.11,ENE,75,5.0,8.0,37,0.00,,SKC,0.00,VWS V14.01,2013-01-26 19:09:00,
2013-01-26 12:10:00,49.9,24.7,30.11,East,92,6.0,6.0,37,0.00,,SKC,0.00,VWS V14.01,2013-01-26 19:10:00,
2013-01-26 12:11:00,49.8,23.9,30.11,East,92,4.0,6.0,36,0.00,,SKC,0.00,VWS V14.01,2013-01-26 19:11:00,
2013-01-26 12:12:00,49.8,24.6,30.11,ESE,105,6.0,7.0,37,0.00,,SKC,0.00,VWS V14.01,2013-01-26 19:12:00,
2013-01-26 12:13:00,49.8,24.6,30.11,East,88,6.0,9.0,37,0.00,,SKC,0.00,VWS V14.01,2013-01-26 19:13:00,
2013-01-26 12:14:00,49.7,24.5,30.11,East,99,5.0,7.0,37,0.00,,SKC,0.00,VWS V14.01,2013-01-26 19:14:00,
2013-01-26 12:15:00,49.7,24.5,30.10,East,94,7.0,8.0,37,0.00,,SKC,0.00,VWS V14.01,2013-01-26 19:15:00,
2013-01-26 12:17:00,49.6,24.4,30.10,East,82,9.0,9.0,37,0.00,,SKC,0.00,VWS V14.01,2013-01-26 19:17:00,
2013-01-26 12:18:00,49.5,24.3,30.10,East,88,7.0,10.0,37,0.00,,SKC,0.00,VWS V14.01,2013-01-26 19:18:00,
2013-01-26 12:19:00,49.5,25.0,30.10,East,84,11.0,11.0,38,0.00,,SKC,0.00,VWS V14.01,2013-01-26 19:19:00,
2013-01-26 12:20:00,49.4,24.9,30.10,East,86,8.0,11.0,38,0.00,,SKC,0.00,VWS V14.01,2013-01-26 19:20:00,
2013-01-26 12:21:00,49.4,24.9,30.10,East,85,7.0,11.0,38,0.00,,SKC,0.00,VWS V14.01,2013-01-26 19:21:00,
2013-01-26 12:22:00,49.4,24.9,30.10,ENE,76,6.0,9.0,38,0.00,,SKC,0.00,VWS V14.01,2013-01-26 19:22:00,
2013-01-26 12:23:00,49.3,24.8,30.10,ENE,66,12.0,12.0,38,0.00,,SKC,0.00,VWS V14.01,2013-01-26 19:23:00,
2013-01-26 12:24:00,49.2,24.7,30.10,East,89,7.0,12.0,38,0.00,,SKC,0.00,VWS V14.01,2013-01-26 19:24:00,
2013-01-26 12:25:00,49.2,24.7,30.10,East,82,9.0,10.0,38,0.00,,SKC,0.00,VWS V14.01,2013-01-26 19:25:00,
2013-01-26 12:26:00,49.2,24.7,30.10,East,88,6.0,11.0,38,0.00,,SKC,0.00,VWS V14.01,2013-01-26 19:26:00,
2013-01-26 12:27:00,49.2,24.7,30.10,East,92,6.0,8.0,38,0.00,,SKC,0.00,VWS V14.01,2013-01-26 19:27:00,
2013-01-26 12:28:00,49.2,24.7,30.09,East,87,12.0,12.0,38,0.00,,SKC,0.00,VWS V14.01,2013-01-26 19:28:00,
2013-01-26 12:29:00,49.2,24.7,30.10,ENE,76,5.0,12.0,38,0.00,,SKC,0.00,VWS V14.01,2013-01-26 19:29:00,
2013-01-26 12:30:00,49.2,24.7,30.09,East,87,4.0,11.0,38,0.00,,SKC,0.00,VWS V14.01,2013-01-26 19:30:00,
2013-01-26 12:31:00,49.2,24.7,30.09,East,91,5.0,9.0,38,0.00,,SKC,0.00,VWS V14.01,2013-01-26 19:31:00,
2013-01-26 12:32:00,49.2,24.7,30.09,ESE,107,7.0,11.0,38,0.00,,SKC,0.00,VWS V14.01,2013-01-26 19:32:00,
2013-01-26 12:33:00,49.2,24.7,30.09,ENE,69,6.0,7.0,38,0.00,,SKC,0.00,VWS V14.01,2013-01-26 19:33:00,
2013-01-26 12:34:00,49.2,24.7,30.09,ESE,105,6.0,7.0,38,0.00,,SKC,0.00,VWS V14.01,2013-01-26 19:34:00,
2013-01-26 12:35:00,49.3,24.8,30.09,ESE,121,7.0,11.0,38,0.00,,SKC,0.00,VWS V14.01,2013-01-26 19:35:00,
2013-01-26 12:36:00,49.3,24.8,30.09,North,360,5.0,7.0,38,0.00,,SKC,0.00,VWS V14.01,2013-01-26 19:36:00,
2013-01-26 12:37:00,49.4,24.2,30.09,SE,125,9.0,9.0,37,0.00,,SKC,0.00,VWS V14.01,2013-01-26 19:37:00,
2013-01-26 12:38:00,49.4,24.9,30.08,ESE,113,3.0,9.0,38,0.00,,SKC,0.00,VWS V14.01,2013-01-26 19:38:00,
2013-01-26 12:39:00,49.4,24.9,30.08,ESE,121,5.0,9.0,38,0.00,,SKC,0.00,VWS V14.01,2013-01-26 19:39:00,
2013-01-26 12:40:00,49.4,24.9,30.08,ESE,115,3.0,5.0,38,0.00,,SKC,0.00,VWS V14.01,2013-01-26 19:40:00,
2013-01-26 12:41:00,49.5,25.0,30.08,ESE,109,4.0,7.0,38,0.00,,SKC,0.00,VWS V14.01,2013-01-26 19:41:00,
2013-01-26 12:42:00,49.5,25.0,30.08,East,97,5.0,9.0,38,0.00,,SKC,0.00,VWS V14.01,2013-01-26 19:42:00,
2013-01-26 12:43:00,49.6,25.0,30.08,ESE,104,6.0,8.0,38,0.00,,SKC,0.00,VWS V14.01,2013-01-26 19:43:00,
2013-01-26 12:44:00,49.6,25.0,30.08,ESE,104,5.0,7.0,38,0.00,,SKC,0.00,VWS V14.01,2013-01-26 19:44:00,
2013-01-26 12:45:00,49.7,25.1,30.08,East,88,9.0,9.0,38,0.00,,SKC,0.00,VWS V14.01,2013-01-26 19:45:00,
2013-01-26 12:46:00,49.8,25.2,30.08,ESE,111,6.0,9.0,38,0.00,,SKC,0.00,VWS V14.01,2013-01-26 19:46:00,
2013-01-26 12:47:00,49.9,25.3,30.08,East,101,4.0,7.0,38,0.00,,SKC,0.00,VWS V14.01,2013-01-26 19:47:00,
2013-01-26 12:48:00,50.0,25.4,30.08,ESE,110,5.0,9.0,38,0.00,,SKC,0.00,VWS V14.01,2013-01-26 19:48:00,
2013-01-26 12:49:00,50.1,25.5,30.08,ESE,107,4.0,5.0,38,0.00,,SKC,0.00,VWS V14.01,2013-01-26 19:49:00,
2013-01-26 12:50:00,50.3,25.0,30.08,East,85,4.0,6.0,37,0.00,,SKC,0.00,VWS V14.01,2013-01-26 19:50:00,
2013-01-26 12:51:00,50.4,25.1,30.08,East,89,5.0,5.0,37,0.00,,SKC,0.00,VWS V14.01,2013-01-26 19:51:00,
2013-01-26 12:52:00,50.6,25.3,30.08,East,97,9.0,11.0,37,0.00,,SKC,0.00,VWS V14.01,2013-01-26 19:52:00,
2013-01-26 12:53:00,50.7,25.4,30.08,East,83,9.0,10.0,37,0.00,,SKC,0.00,VWS V14.01,2013-01-26 19:53:00,
2013-01-26 12:54:00,50.8,24.8,30.08,ENE,68,2.0,9.0,36,0.00,,SKC,0.00,VWS V14.01,2013-01-26 19:54:00,
2013-01-26 12:55:00,50.9,24.9,30.08,ENE,61,4.0,4.0,36,0.00,,SKC,0.00,VWS V14.01,2013-01-26 19:55:00,
2013-01-26 12:56:00,51.1,25.1,30.08,ESE,109,4.0,4.0,36,0.00,,SKC,0.00,VWS V14.01,2013-01-26 19:56:00,
2013-01-26 12:57:00,51.3,25.3,30.08,East,101,4.0,7.0,36,0.00,,SKC,0.00,VWS V14.01,2013-01-26 19:57:00,
2013-01-26 12:58:00,51.4,25.4,30.08,SE,125,7.0,8.0,36,0.00,,SKC,0.00,VWS V14.01,2013-01-26 19:58:00,
2013-01-26 12:59:00,51.5,25.5,30.08,ESE,105,7.0,7.0,36,0.00,,SKC,0.00,VWS V14.01,2013-01-26 19:59:00,
2013-01-26 13:00:00,51.6,25.5,30.08,ESE,104,3.0,5.0,36,0.00,,SKC,0.00,VWS V14.01,2013-01-26 20:00:00,
2013-01-26 13:01:00,51.8,25.7,30.07,SE,146,5.0,5.0,36,0.00,,SKC,0.00,VWS V14.01,2013-01-26 20:01:00,
2013-01-26 13:02:00,51.9,25.8,30.08,SE,143,10.0,11.0,36,0.00,,SKC,0.00,VWS V14.01,2013-01-26 20:02:00,
2013-01-26 13:03:00,52.1,25.3,30.08,ESE,117,6.0,10.0,35,0.00,,SKC,0.00,VWS V14.01,2013-01-26 20:03:00,
2013-01-26 13:04:00,52.2,25.4,30.07,ESE,117,4.0,8.0,35,0.00,,SKC,0.00,VWS V14.01,2013-01-26 20:04:00,
2013-01-26 13:05:00,52.3,25.5,30.07,ESE,112,5.0,6.0,35,0.00,,SKC,0.00,VWS V14.01,2013-01-26 20:05:00,
2013-01-26 13:06:00,52.5,25.7,30.08,ESE,117,6.0,11.0,35,0.00,,SKC,0.00,VWS V14.01,2013-01-26 20:06:00,
2013-01-26 13:07:00,52.6,25.8,30.07,ESE,121,6.0,10.0,35,0.00,,SKC,0.00,VWS V14.01,2013-01-26 20:07:00,
2013-01-26 13:08:00,52.7,25.8,30.07,East,101,7.0,11.0,35,0.00,,SKC,0.00,VWS V14.01,2013-01-26 20:08:00,
2013-01-26 13:09:00,52.8,25.2,30.07,ESE,102,4.0,9.0,34,0.00,,SKC,0.00,VWS V14.01,2013-01-26 20:09:00,
2013-01-26 13:10:00,53.0,26.1,30.07,ESE,102,3.0,4.0,35,0.00,,SKC,0.00,VWS V14.01,2013-01-26 20:10:00,
2013-01-26 13:11:00,53.1,25.5,30.07,East,95,3.0,6.0,34,0.00,,SKC,0.00,VWS V14.01,2013-01-26 20:11:00,
2013-01-26 13:12:00,53.2,25.6,30.07,East,95,6.0,9.0,34,0.00,,SKC,0.00,VWS V14.01,2013-01-26 20:12:00,
2013-01-26 13:13:00,53.3,25.7,30.07,East,101,4.0,6.0,34,0.00,,SKC,0.00,VWS V14.01,2013-01-26 20:13:00,
2013-01-26 13:14:00,53.5,25.8,30.06,ESE,112,9.0,11.0,34,0.00,,SKC,0.00,VWS V14.01,2013-01-26 20:14:00,
2013-01-26 13:15:00,53.6,25.2,30.07,East,94,10.0,10.0,33,0.00,,SKC,0.00,VWS V14.01,2013-01-26 20:15:00,
2013-01-26 13:16:00,53.6,25.2,30.07,East,97,5.0,11.0,33,0.00,,SKC,0.00,VWS V14.01,2013-01-26 20:16:00,
2013-01-26 13:17:00,53.7,25.3,30.07,East,91,7.0,11.0,33,0.00,,SKC,0.00,VWS V14.01,2013-01-26 20:17:00,
2013-01-26 13:18:00,53.7,25.3,30.07,East,96,8.0,13.0,33,0.00,,SKC,0.00,VWS V14.01,2013-01-26 20:18:00,
2013-01-26 13:19:00,53.7,25.3,30.07,East,84,6.0,10.0,33,0.00,,SKC,0.00,VWS V14.01,2013-01-26 20:19:00,
2013-01-26 13:20:00,53.7,25.3,30.06,ESE,103,10.0,11.0,33,0.00,,SKC,0.00,VWS V14.01,2013-01-26 20:20:00,
2013-01-26 13:21:00,53.6,25.2,30.06,ESE,107,9.0,13.0,33,0.00,,SKC,0.00,VWS V14.01,2013-01-26 20:21:00,
2013-01-26 13:22:00,53.6,25.2,30.06,East,96,7.0,10.0,33,0.00,,SKC,0.00,VWS V14.01,2013-01-26 20:22:00,
2013-01-26 13:23:00,53.7,25.3,30.06,East,90,4.0,10.0,33,0.00,,SKC,0.00,VWS V14.01,2013-01-26 20:23:00,
2013-01-26 13:24:00,53.7,25.3,30.06,East,95,7.0,10.0,33,0.00,,SKC,0.00,VWS V14.01,2013-01-26 20:24:00,
2013-01-26 13:25:00,53.7,24.6,30.06,ENE,72,7.0,9.0,32,0.00,,SKC,0.00,VWS V14.01,2013-01-26 20:25:00,
2013-01-26 13:26:00,53.7,24.6,30.06,East,80,6.0,7.0,32,0.00,,SKC,0.00,VWS V14.01,2013-01-26 20:26:00,
2013-01-26 13:27:00,53.7,24.6,30.06,ESE,103,7.0,9.0,32,0.00,,SKC,0.00,VWS V14.01,2013-01-26 20:27:00,
2013-01-26 13:28:00,53.6,24.5,30.06,East,94,6.0,11.0,32,0.00,,SKC,0.00,VWS V14.01,2013-01-26 20:28:00,
2013-01-26 13:29:00,53.5,24.4,30.06,East,88,6.0,6.0,32,0.00,,SKC,0.00,VWS V14.01,2013-01-26 20:29:00,
2013-01-26 13:30:00,53.5,24.4,30.06,East,91,5.0,6.0,32,0.00,,SKC,0.00,VWS V14.01,2013-01-26 20:30:00,
2013-01-26 13:31:00,53.3,24.2,30.06,ESE,114,10.0,12.0,32,0.00,,SKC,0.00,VWS V14.01,2013-01-26 20:31:00,
2013-01-26 13:32:00,53.1,24.8,30.06,ESE,115,7.0,12.0,33,0.00,,SKC,0.00,VWS V14.01,2013-01-26 20:32:00,
2013-01-26 13:33:00,52.9,24.6,30.06,ENE,73,10.0,11.0,33,0.00,,SKC,0.00,VWS V14.01,2013-01-26 20:33:00,
2013-01-26 13:34:00,52.7,24.4,30.06,East,90,7.0,10.0,33,0.00,,SKC,0.00,VWS V14.01,2013-01-26 20:34:00,
2013-01-26 13:35:00,52.5,24.2,30.06,East,94,6.0,9.0,33,0.00,,SKC,0.00,VWS V14.01,2013-01-26 20:35:00,
2013-01-26 13:36:00,52.3,24.1,30.06,East,89,9.0,10.0,33,0.00,,SKC,0.00,VWS V14.01,2013-01-26 20:36:00,
2013-01-26 13:37:00,52.2,24.0,30.06,ENE,69,5.0,12.0,33,0.00,,SKC,0.00,VWS V14.01,2013-01-26 20:37:00,
2013-01-26 13:38:00,52.1,23.9,30.06,ENE,70,1.0,5.0,33,0.00,,SKC,0.00,VWS V14.01,2013-01-26 20:38:00,
2013-01-26 13:39:00,51.9,24.4,30.06,East,80,4.0,8.0,34,0.00,,SKC,0.00,VWS V14.01,2013-01-26 20:39:00,
2013-01-26 13:40:00,51.8,24.3,30.06,ESE,108,10.0,11.0,34,0.00,,SKC,0.00,VWS V14.01,2013-01-26 20:40:00,
2013-01-26 13:41:00,51.7,24.3,30.06,East,92,8.0,15.0,34,0.00,,SKC,0.00,VWS V14.01,2013-01-26 20:41:00,
2013-01-26 13:42:00,51.5,24.1,30.06,NE,56,5.0,11.0,34,0.00,,SKC,0.00,VWS V14.01,2013-01-26 20:42:00,
2013-01-26 13:43:00,51.4,24.0,30.06,East,81,13.0,16.0,34,0.00,,SKC,0.00,VWS V14.01,2013-01-26 20:43:00,
2013-01-26 13:44:00,51.3,23.9,30.06,East,92,8.0,13.0,34,0.00,,SKC,0.00,VWS V14.01,2013-01-26 20:44:00,
2013-01-26 13:45:00,51.3,23.9,30.06,East,88,6.0,9.0,34,0.00,,SKC,0.00,VWS V14.01,2013-01-26 20:45:00,
2013-01-26 13:46:00,51.2,23.8,30.05,ESE,104,5.0,10.0,34,0.00,,SKC,0.00,VWS V14.01,2013-01-26 20:46:00,
2013-01-26 13:47:00,51.1,23.7,30.05,ENE,76,6.0,13.0,34,0.00,,SKC,0.00,VWS V14.01,2013-01-26 20:47:00,
2013-01-26 13:48:00,51.0,24.3,30.05,ENE,75,7.0,12.0,35,0.00,,SKC,0.00,VWS V14.01,2013-01-26 20:48:00,
2013-01-26 13:49:00,50.9,24.2,30.05,East,88,11.0,13.0,35,0.00,,SKC,0.00,VWS V14.01,2013-01-26 20:49:00,
2013-01-26 13:50:00,50.8,24.1,30.05,ENE,74,6.0,12.0,35,0.00,,SKC,0.00,VWS V14.01,2013-01-26 20:50:00,
2013-01-26 13:51:00,50.7,24.1,30.05,East,88,6.0,8.0,35,0.00,,SKC,0.00,VWS V14.01,2013-01-26 20:51:00,
2013-01-26 13:52:00,50.6,24.0,30.05,East,99,6.0,9.0,35,0.00,,SKC,0.00,VWS V14.01,2013-01-26 20:52:00,
2013-01-26 13:53:00,50.5,23.9,30.05,East,84,3.0,9.0,35,0.00,,SKC,0.00,VWS V14.01,2013-01-26 20:53:00,
2013-01-26 13:54:00,50.5,23.9,30.05,East,83,4.0,5.0,35,0.00,,SKC,0.00,VWS V14.01,2013-01-26 20:54:00,
2013-01-26 13:55:00,50.4,24.5,30.05,East,90,9.0,9.0,36,0.00,,SKC,0.00,VWS V14.01,2013-01-26 20:55:00,
2013-01-26 13:56:00,50.3,23.7,30.05,ENE,78,3.0,10.0,35,0.00,,SKC,0.00,VWS V14.01,2013-01-26 20:56:00,
2013-01-26 13:57:00,50.2,23.6,30.05,East,85,5.0,5.0,35,0.00,,SKC,0.00,VWS V14.01,2013-01-26 20:57:00,
2013-01-26 13:58:00,50.2,24.3,30.05,East,85,9.0,12.0,36,0.00,,SKC,0.00,VWS V14.01,2013-01-26 20:58:00,
2013-01-26 13:59:00,50.1,24.2,30.05,ENE,63,4.0,12.0,36,0.00,,SKC,0.00,VWS V14.01,2013-01-26 20:59:00,
2013-01-26 14:00:00,50.0,24.1,30.05,ENE,76,6.0,9.0,36,0.00,,SKC,0.00,VWS V14.01,2013-01-26 21:00:00,
2013-01-26 14:01:00,49.9,24.0,30.05,ENE,78,5.0,11.0,36,0.00,,SKC,0.00,VWS V14.01,2013-01-26 21:01:00,
2013-01-26 14:02:00,49.9,24.0,30.05,East,93,8.0,15.0,36,0.00,,SKC,0.00,VWS V14.01,2013-01-26 21:02:00,
2013-01-26 14:03:00,49.8,23.9,30.05,ENE,74,5.0,12.0,36,0.00,,SKC,0.00,VWS V14.01,2013-01-26 21:03:00,
2013-01-26 14:04:00,49.7,23.9,30.05,East,84,11.0,12.0,36,0.00,,SKC,0.00,VWS V14.01,2013-01-26 21:04:00,
2013-01-26 14:05:00,49.6,23.8,30.05,ENE,66,6.0,11.0,36,0.00,,SKC,0.00,VWS V14.01,2013-01-26 21:05:00,
2013-01-26 14:06:00,49.5,23.7,30.05,ENE,69,5.0,10.0,36,0.00,,SKC,0.00,VWS V14.01,2013-01-26 21:06:00,
2013-01-26 14:07:00,49.5,23.7,30.05,East,91,4.0,9.0,36,0.00,,SKC,0.00,VWS V14.01,2013-01-26 21:07:00,
2013-01-26 14:08:00,49.4,24.2,30.05,East,101,6.0,6.0,37,0.00,,SKC,0.00,VWS V14.01,2013-01-26 21:08:00,
2013-01-26 14:09:00,49.4,24.2,30.04,East,96,7.0,11.0,37,0.00,,SKC,0.00,VWS V14.01,2013-01-26 21:09:00,
2013-01-26 14:10:00,49.4,24.2,30.05,ESE,103,4.0,11.0,37,0.00,,SKC,0.00,VWS V14.01,2013-01-26 21:10:00,
2013-01-26 14:11:00,49.4,24.2,30.05,East,96,6.0,7.0,37,0.00,,SKC,0.00,VWS V14.01,2013-01-26 21:11:00,
2013-01-26 14:12:00,49.3,24.1,30.05,ESE,117,4.0,10.0,37,0.00,,SKC,0.00,VWS V14.01,2013-01-26 21:12:00,
2013-01-26 14:13:00,49.2,24.1,30.04,East,85,8.0,9.0,37,0.00,,SKC,0.00,VWS V14.01,2013-01-26 21:13:00,
2013-01-26 14:14:00,49.2,23.4,30.05,East,86,6.0,10.0,36,0.00,,SKC,0.00,VWS V14.01,2013-01-26 21:14:00,
2013-01-26 14:15:00,49.2,24.1,30.04,East,84,6.0,7.0,37,0.00,,SKC,0.00,VWS V14.01,2013-01-26 21:15:00,
2013-01-26 14:16:00,49.2,24.1,30.04,SE,128,8.0,9.0,37,0.00,,SKC,0.00,VWS V14.01,2013-01-26 21:16:00,
2013-01-26 14:17:00,49.2,24.1,30.04,ESE,109,9.0,10.0,37,0.00,,SKC,0.00,VWS V14.01,2013-01-26 21:17:00,
2013-01-26 14:18:00,49.2,24.1,30.04,ESE,109,4.0,9.0,37,0.00,,SKC,0.00,VWS V14.01,2013-01-26 21:18:00,
2013-01-26 14:19:00,49.1,24.0,30.04,ESE,102,5.0,11.0,37,0.00,,SKC,0.00,VWS V14.01,2013-01-26 21:19:00,
2013-01-26 14:20:00,49.1,24.0,30.04,East,82,6.0,9.0,37,0.00,,SKC,0.00,VWS V14.01,2013-01-26 21:20:00,
2013-01-26 14:21:00,49.1,24.0,30.04,SE,129,4.0,6.0,37,0.00,,SKC,0.00,VWS V14.01,2013-01-26 21:21:00,
2013-01-26 14:22:00,49.1,24.0,30.04,East,84,11.0,11.0,37,0.00,,SKC,0.00,VWS V14.01,2013-01-26 21:22:00,
2013-01-26 14:23:00,49.0,23.9,30.04,East,100,6.0,11.0,37,0.00,,SKC,0.00,VWS V14.01,2013-01-26 21:23:00,
2013-01-26 14:24:00,49.0,23.9,30.04,East,94,5.0,6.0,37,0.00,,SKC,0.00,VWS V14.01,2013-01-26 21:24:00,
2013-01-26 14:25:00,49.0,23.9,30.04,East,95,2.0,5.0,37,0.00,,SKC,0.00,VWS V14.01,2013-01-26 21:25:00,
2013-01-26 14:26:00,49.0,24.5,30.04,East,91,2.0,4.0,38,0.00,,SKC,0.00,VWS V14.01,2013-01-26 21:26:00,
2013-01-26 14:27:00,49.0,24.5,30.04,East,98,4.0,7.0,38,0.00,,SKC,0.00,VWS V14.01,2013-01-26 21:27:00,
2013-01-26 14:28:00,49.0,23.9,30.04,East,90,4.0,6.0,37,0.00,,SKC,0.00,VWS V14.01,2013-01-26 21:28:00,
2013-01-26 14:29:00,49.0,23.9,30.04,ESE,103,5.0,5.0,37,0.00,,SKC,0.00,VWS V14.01,2013-01-26 21:29:00,
2013-01-26 14:30:00,49.0,23.9,30.04,ESE,113,6.0,9.0,37,0.00,,SKC,0.00,VWS V14.01,2013-01-26 21:30:00,
2013-01-26 14:31:00,49.0,23.9,30.04,ESE,102,4.0,6.0,37,0.00,,SKC,0.00,VWS V14.01,2013-01-26 21:31:00,
2013-01-26 14:32:00,48.9,23.8,30.04,ESE,111,4.0,8.0,37,0.00,,SKC,0.00,VWS V14.01,2013-01-26 21:32:00,
2013-01-26 14:33:00,48.8,23.7,30.04,ESE,111,6.0,7.0,37,0.00,,SKC,0.00,VWS V14.01,2013-01-26 21:33:00,
2013-01-26 14:34:00,48.8,23.7,30.04,ESE,121,3.0,9.0,37,0.00,,SKC,0.00,VWS V14.01,2013-01-26 21:34:00,
2013-01-26 14:35:00,48.8,23.7,30.04,ESE,109,6.0,10.0,37,0.00,,SKC,0.00,VWS V14.01,2013-01-26 21:35:00,
2013-01-26 14:36:00,48.7,23.6,30.04,East,84,5.0,6.0,37,0.00,,SKC,0.00,VWS V14.01,2013-01-26 21:36:00,
2013-01-26 14:37:00,48.7,23.6,30.04,East,91,5.0,9.0,37,0.00,,SKC,0.00,VWS V14.01,2013-01-26 21:37:00,
2013-01-26 14:38:00,48.7,23.6,30.04,ENE,60,1.0,6.0,37,0.00,,SKC,0.00,VWS V14.01,2013-01-26 21:38:00,
2013-01-26 14:39:00,48.6,23.5,30.04,ENE,68,3.0,4.0,37,0.00,,SKC,0.00,VWS V14.01,2013-01-26 21:39:00,
2013-01-26 14:40:00,48.6,23.5,30.04,East,84,4.0,6.0,37,0.00,,SKC,0.00,VWS V14.01,2013-01-26 21:40:00,
2013-01-26 14:41:00,48.6,23.5,30.04,East,99,6.0,7.0,37,0.00,,SKC,0.00,VWS V14.01,2013-01-26 21:41:00,
2013-01-26 14:42:00,48.6,23.5,30.04,ESE,108,6.0,11.0,37,0.00,,SKC,0.00,VWS V14.01,2013-01-26 21:42:00,
2013-01-26 14:43:00,48.6,23.5,30.04,East,84,4.0,9.0,37,0.00,,SKC,0.00,VWS V14.01,2013-01-26 21:43:00,
2013-01-26 14:44:00,48.5,23.4,30.04,East,86,10.0,10.0,37,0.00,,SKC,0.00,VWS V14.01,2013-01-26 21:44:00,
2013-01-26 14:45:00,48.5,23.4,30.04,ENE,60,0.0,10.0,37,0.00,,SKC,0.00,VWS V14.01,2013-01-26 21:45:00,
2013-01-26 14:46:00,48.5,23.4,30.04,East,86,6.0,7.0,37,0.00,,SKC,0.00,VWS V14.01,2013-01-26 21:46:00,
2013-01-26 14:47:00,48.5,23.4,30.04,ENE,77,3.0,6.0,37,0.00,,SKC,0.00,VWS V14.01,2013-01-26 21:47:00,
2013-01-26 14:48:00,48.5,23.4,30.04,East,97,2.0,6.0,37,0.00,,SKC,0.00,VWS V14.01,2013-01-26 21:48:00,
2013-01-26 14:49:00,48.5,24.1,30.04,East,98,5.0,5.0,38,0.00,,SKC,0.00,VWS V14.01,2013-01-26 21:49:00,
2013-01-26 14:50:00,48.5,23.4,30.04,ENE,72,5.0,6.0,37,0.00,,SKC,0.00,VWS V14.01,2013-01-26 21:50:00,
2013-01-26 14:51:00,48.5,23.4,30.04,ENE,69,0.0,7.0,37,0.00,,SKC,0.00,VWS V14.01,2013-01-26 21:51:00,
2013-01-26 14:52:00,48.5,23.4,30.04,ENE,59,0.0,5.0,37,0.00,,SKC,0.00,VWS V14.01,2013-01-26 21:52:00,
2013-01-26 14:53:00,48.5,23.4,30.04,ENE,76,5.0,5.0,37,0.00,,SKC,0.00,VWS V14.01,2013-01-26 21:53:00,
2013-01-26 14:54:00,48.5,23.4,30.04,East,84,6.0,7.0,37,0.00,,SKC,0.00,VWS V14.01,2013-01-26 21:54:00,
2013-01-26 14:55:00,48.5,23.4,30.04,East,88,4.0,8.0,37,0.00,,SKC,0.00,VWS V14.01,2013-01-26 21:55:00,
2013-01-26 14:56:00,48.5,23.4,30.04,ENE,76,2.0,5.0,37,0.00,,SKC,0.00,VWS V14.01,2013-01-26 21:56:00,
2013-01-26 14:57:00,48.5,23.4,30.04,ENE,76,4.0,5.0,37,0.00,,SKC,0.00,VWS V14.01,2013-01-26 21:57:00,
2013-01-26 14:58:00,48.5,23.4,30.04,East,95,6.0,8.0,37,0.00,,SKC,0.00,VWS V14.01,2013-01-26 21:58:00,
2013-01-26 14:59:00,48.5,23.4,30.04,East,91,4.0,7.0,37,0.00,,SKC,0.00,VWS V14.01,2013-01-26 21:59:00,
2013-01-26 15:00:00,48.5,23.4,30.03,East,94,6.0,7.0,37,0.00,,SKC,0.00,VWS V14.01,2013-01-26 22:00:00,
2013-01-26 15:01:00,48.5,23.4,30.03,East,94,6.0,7.0,37,0.00,,SKC,0.00,VWS V14.01,2013-01-26 22:01:00,
2013-01-26 15:02:00,48.4,23.3,30.03,East,93,4.0,6.0,37,0.00,,SKC,0.00,VWS V14.01,2013-01-26 22:02:00,
2013-01-26 15:03:00,48.4,23.3,30.03,ESE,109,3.0,6.0,37,0.00,,SKC,0.00,VWS V14.01,2013-01-26 22:03:00,
2013-01-26 15:04:00,48.3,23.2,30.03,East,95,5.0,7.0,37,0.00,,SKC,0.00,VWS V14.01,2013-01-26 22:04:00,
2013-01-26 15:05:00,48.3,23.2,30.03,East,101,6.0,6.0,37,0.00,,SKC,0.00,VWS V14.01,2013-01-26 22:05:00,
2013-01-26 15:06:00,48.3,23.2,30.03,East,90,4.0,6.0,37,0.00,,SKC,0.00,VWS V14.01,2013-01-26 22:06:00,
2013-01-26 15:07:00,48.3,23.3,30.03,East,90,4.0,6.0,37,0.00,,SKC,0.00,VWS V14.01,2013-01-26 22:07:00,
2013-01-26 15:08:00,48.1,23.1,30.03,East,97,6.0,6.0,37,0.00,,SKC,0.00,VWS V14.01,2013-01-26 22:08:00,
2013-01-26 15:09:00,48.1,23.1,30.03,North,360,5.0,6.0,37,0.00,,SKC,0.00,VWS V14.01,2013-01-26 22:09:00,
2013-01-26 15:10:00,48.0,23.0,30.03,ESE,103,5.0,6.0,37,0.00,,SKC,0.00,VWS V14.01,2013-01-26 22:10:00,
2013-01-26 15:11:00,48.0,23.6,30.03,East,96,7.0,10.0,38,0.00,,SKC,0.00,VWS V14.01,2013-01-26 22:11:00,
2013-01-26 15:12:00,47.9,23.5,30.03,East,101,6.0,9.0,38,0.00,,SKC,0.00,VWS V14.01,2013-01-26 22:12:00,
2013-01-26 15:13:00,47.8,23.4,30.03,ESE,109,2.0,6.0,38,0.00,,SKC,0.00,VWS V14.01,2013-01-26 22:13:00,
2013-01-26 15:14:00,47.8,23.4,30.03,ESE,110,3.0,5.0,38,0.00,,SKC,0.00,VWS V14.01,2013-01-26 22:14:00,
2013-01-26 15:15:00,47.7,23.4,30.03,ESE,106,8.0,9.0,38,0.00,,SKC,0.00,VWS V14.01,2013-01-26 22:15:00,
2013-01-26 15:16:00,47.7,23.4,30.03,East,100,4.0,8.0,38,0.00,,SKC,0.00,VWS V14.01,2013-01-26 22:16:00,
2013-01-26 15:17:00,47.6,23.3,30.04,ENE,74,5.0,11.0,38,0.00,,SKC,0.00,VWS V14.01,2013-01-26 22:17:00,
2013-01-26 15:18:00,47.5,23.2,30.03,ESE,103,5.0,5.0,38,0.00,,SKC,0.00,VWS V14.01,2013-01-26 22:18:00,
2013-01-26 15:19:00,47.4,23.1,30.03,East,98,7.0,10.0,38,0.00,,SKC,0.00,VWS V14.01,2013-01-26 22:19:00,
2013-01-26 15:20:00,47.4,23.1,30.04,East,97,5.0,7.0,38,0.00,,SKC,0.00,VWS V14.01,2013-01-26 22:20:00,
2013-01-26 15:21:00,47.3,23.0,30.03,East,93,5.0,5.0,38,0.00,,SKC,0.00,VWS V14.01,2013-01-26 22:21:00,
2013-01-26 15:22:00,47.2,23.5,30.03,ESE,107,6.0,7.0,39,0.00,,SKC,0.00,VWS V14.01,2013-01-26 22:22:00,
2013-01-26 15:23:00,47.2,22.9,30.03,SE,128,4.0,6.0,38,0.00,,SKC,0.00,VWS V14.01,2013-01-26 22:23:00,
2013-01-26 15:24:00,47.2,22.9,30.03,SE,128,4.0,6.0,38,0.00,,SKC,0.00,VWS V14.01,2013-01-26 22:24:00,
2013-01-26 15:25:00,47.0,22.7,30.03,East,96,6.0,8.0,38,0.00,,SKC,0.00,VWS V14.01,2013-01-26 22:25:00,
2013-01-26 15:26:00,47.0,22.7,30.03,East,80,6.0,8.0,38,0.00,,SKC,0.00,VWS V14.01,2013-01-26 22:26:00,
2013-01-26 15:27:00,46.9,23.2,30.03,ENE,76,4.0,9.0,39,0.00,,SKC,0.00,VWS V14.01,2013-01-26 22:27:00,
2013-01-26 15:28:00,46.9,23.2,30.03,East,92,4.0,5.0,39,0.00,,SKC,0.00,VWS V14.01,2013-01-26 22:28:00,
2013-01-26 15:29:00,46.9,23.3,30.03,East,100,4.0,7.0,39,0.00,,SKC,0.00,VWS V14.01,2013-01-26 22:29:00,
2013-01-26 15:30:00,46.8,23.2,30.03,SE,126,6.0,6.0,39,0.00,,SKC,0.00,VWS V14.01,2013-01-26 22:30:00,
2013-01-26 15:31:00,46.8,23.2,30.03,SE,124,7.0,7.0,39,0.00,,SKC,0.00,VWS V14.01,2013-01-26 22:31:00,
2013-01-26 15:32:00,46.7,23.7,30.03,ESE,111,5.0,9.0,40,0.00,,SKC,0.00,VWS V14.01,2013-01-26 22:32:00,
2013-01-26 15:33:00,46.7,23.7,30.03,ESE,104,4.0,5.0,40,0.00,,SKC,0.00,VWS V14.01,2013-01-26 22:33:00,
2013-01-26 15:34:00,46.7,23.7,30.03,ESE,119,5.0,6.0,40,0.00,,SKC,0.00,VWS V14.01,2013-01-26 22:34:00,
2013-01-26 15:35:00,46.6,23.6,30.03,ESE,115,4.0,6.0,40,0.00,,SKC,0.00,VWS V14.01,2013-01-26 22:35:00,
2013-01-26 15:36:00,46.6,23.6,30.03,ESE,120,4.0,6.0,40,0.00,,SKC,0.00,VWS V14.01,2013-01-26 22:36:00,
2013-01-26 15:37:00,46.5,23.5,30.03,ESE,121,4.0,7.0,40,0.00,,SKC,0.00,VWS V14.01,2013-01-26 22:37:00,
2013-01-26 15:38:00,46.5,23.5,30.03,SE,128,2.0,7.0,40,0.00,,SKC,0.00,VWS V14.01,2013-01-26 22:38:00,
2013-01-26 15:39:00,46.5,23.5,30.03,SE,125,2.0,6.0,40,0.00,,SKC,0.00,VWS V14.01,2013-01-26 22:39:00,
2013-01-26 15:40:00,46.5,23.5,30.03,ESE,123,4.0,5.0,40,0.00,,SKC,0.00,VWS V14.01,2013-01-26 22:40:00,
2013-01-26 15:41:00,46.4,23.4,30.03,ESE,121,4.0,6.0,40,0.00,,SKC,0.00,VWS V14.01,2013-01-26 22:41:00,
2013-01-26 15:42:00,46.4,23.4,30.03,SE,125,4.0,5.0,40,0.00,,SKC,0.00,VWS V14.01,2013-01-26 22:42:00,
2013-01-26 15:43:00,46.3,23.3,30.03,SE,130,3.0,4.0,40,0.00,,SKC,0.00,VWS V14.01,2013-01-26 22:43:00,
2013-01-26 15:44:00,46.3,23.9,30.03,ESE,122,4.0,4.0,41,0.00,,SKC,0.00,VWS V14.01,2013-01-26 22:44:00,
2013-01-26 15:45:00,46.3,23.9,30.03,North,360,2.0,5.0,41,0.00,,SKC,0.00,VWS V14.01,2013-01-26 22:45:00,
2013-01-26 15:46:00,46.3,23.9,30.03,SE,125,5.0,5.0,41,0.00,,SKC,0.00,VWS V14.01,2013-01-26 22:46:00,
2013-01-26 15:47:00,46.2,23.2,30.03,East,93,5.0,7.0,40,0.00,,SKC,0.00,VWS V14.01,2013-01-26 22:47:00,
2013-01-26 15:48:00,46.1,23.1,30.04,East,87,5.0,7.0,40,0.00,,SKC,0.00,VWS V14.01,2013-01-26 22:48:00,
2013-01-26 15:49:00,46.1,23.1,30.03,East,85,2.0,6.0,40,0.00,,SKC,0.00,VWS V14.01,2013-01-26 22:49:00,
2013-01-26 15:50:00,46.1,23.7,30.03,ENE,70,3.0,5.0,41,0.00,,SKC,0.00,VWS V14.01,2013-01-26 22:50:00,
2013-01-26 15:51:00,46.1,23.7,30.03,East,82,3.0,5.0,41,0.00,,SKC,0.00,VWS V14.01,2013-01-26 22:51:00,
2013-01-26 15:52:00,46.0,23.6,30.03,East,84,2.0,4.0,41,0.00,,SKC,0.00,VWS V14.01,2013-01-26 22:52:00,
2013-01-26 15:53:00,46.0,23.6,30.03,East,84,4.0,5.0,41,0.00,,SKC,0.00,VWS V14.01,2013-01-26 22:53:00,
2013-01-26 15:54:00,46.0,23.6,30.03,ESE,102,5.0,9.0,41,0.00,,SKC,0.00,VWS V14.01,2013-01-26 22:54:00,
2013-01-26 15:55:00,45.9,23.5,30.03,ESE,108,5.0,6.0,41,0.00,,SKC,0.00,VWS V14.01,2013-01-26 22:55:00,
2013-01-26 15:56:00,45.9,23.5,30.03,ESE,107,5.0,9.0,41,0.00,,SKC,0.00,VWS V14.01,2013-01-26 22:56:00,
2013-01-26 15:57:00,45.8,24.0,30.03,ESE,113,5.0,7.0,42,0.00,,SKC,0.00,VWS V14.01,2013-01-26 22:57:00,
2013-01-26 15:58:00,45.8,24.0,30.03,ESE,108,3.0,5.0,42,0.00,,SKC,0.00,VWS V14.01,2013-01-26 22:58:00,
2013-01-26 15:59:00,45.8,24.0,30.03,ESE,105,5.0,6.0,42,0.00,,SKC,0.00,VWS V14.01,2013-01-26 22:59:00,
2013-01-26 16:00:00,45.8,24.0,30.03,ESE,111,5.0,7.0,42,0.00,,SKC,0.00,VWS V14.01,2013-01-26 23:00:00,
2013-01-26 16:01:00,45.8,24.0,30.03,East,99,6.0,6.0,42,0.00,,SKC,0.00,VWS V14.01,2013-01-26 23:01:00,
2013-01-26 16:02:00,45.7,23.9,30.03,East,98,5.0,6.0,42,0.00,,SKC,0.00,VWS V14.01,2013-01-26 23:02:00,
2013-01-26 16:03:00,45.7,23.9,30.03,East,94,3.0,5.0,42,0.00,,SKC,0.00,VWS V14.01,2013-01-26 23:03:00,
2013-01-26 16:04:00,45.7,23.9,30.03,East,99,4.0,5.0,42,0.00,,SKC,0.00,VWS V14.01,2013-01-26 23:04:00,
2013-01-26 16:05:00,45.6,23.9,30.03,ESE,119,7.0,7.0,42,0.00,,SKC,0.00,VWS V14.01,2013-01-26 23:05:00,
2013-01-26 16:06:00,45.6,23.9,30.03,ESE,112,4.0,7.0,42,0.00,,SKC,0.00,VWS V14.01,2013-01-26 23:06:00,
2013-01-26 16:07:00,45.5,23.2,30.03,ESE,105,5.0,7.0,41,0.00,,SKC,0.00,VWS V14.01,2013-01-26 23:07:00,
2013-01-26 16:08:00,45.4,23.1,30.03,ESE,111,4.0,5.0,41,0.00,,SKC,0.00,VWS V14.01,2013-01-26 23:08:00,
2013-01-26 16:09:00,45.4,23.1,30.03,ESE,104,5.0,6.0,41,0.00,,SKC,0.00,VWS V14.01,2013-01-26 23:09:00,
2013-01-26 16:10:00,45.3,23.6,30.03,ESE,106,5.0,6.0,42,0.00,,SKC,0.00,VWS V14.01,2013-01-26 23:10:00,
2013-01-26 16:11:00,45.2,22.9,30.03,ESE,103,4.0,5.0,41,0.00,,SKC,0.00,VWS V14.01,2013-01-26 23:11:00,
2013-01-26 16:12:00,45.2,22.9,30.03,ESE,103,10.0,10.0,41,0.00,,SKC,0.00,VWS V14.01,2013-01-26 23:12:00,
2013-01-26 16:13:00,45.1,22.8,30.03,East,101,6.0,10.0,41,0.00,,SKC,0.00,VWS V14.01,2013-01-26 23:13:00,
2013-01-26 16:14:00,45.0,22.7,30.03,North,360,5.0,7.0,41,0.00,,SKC,0.00,VWS V14.01,2013-01-26 23:14:00,
2013-01-26 16:15:00,45.0,22.7,30.03,ESE,105,6.0,6.0,41,0.00,,SKC,0.00,VWS V14.01,2013-01-26 23:15:00,
2013-01-26 16:16:00,45.0,22.7,30.03,ESE,103,5.0,9.0,41,0.00,,SKC,0.00,VWS V14.01,2013-01-26 23:16:00,
2013-01-26 16:17:00,44.9,22.6,30.03,East,94,6.0,7.0,41,0.00,,SKC,0.00,VWS V14.01,2013-01-26 23:17:00,
2013-01-26 16:18:00,44.8,22.5,30.03,East,88,6.0,7.0,41,0.00,,SKC,0.00,VWS V14.01,2013-01-26 23:18:00,
2013-01-26 16:19:00,44.8,22.5,30.03,ESE,102,8.0,9.0,41,0.00,,SKC,0.00,VWS V14.01,2013-01-26 23:19:00,
2013-01-26 16:20:00,44.7,22.5,30.03,ESE,111,8.0,9.0,41,0.00,,SKC,0.00,VWS V14.01,2013-01-26 23:20:00,
2013-01-26 16:21:00,44.6,22.4,30.03,East,96,7.0,9.0,41,0.00,,SKC,0.00,VWS V14.01,2013-01-26 23:21:00,
2013-01-26 16:22:00,44.6,22.4,30.03,East,84,10.0,10.0,41,0.00,,SKC,0.00,VWS V14.01,2013-01-26 23:22:00,
2013-01-26 16:23:00,44.5,22.3,30.03,ESE,103,4.0,10.0,41,0.00,,SKC,0.00,VWS V14.01,2013-01-26 23:23:00,
2013-01-26 16:24:00,44.4,22.2,30.03,East,95,5.0,7.0,41,0.00,,SKC,0.00,VWS V14.01,2013-01-26 23:24:00,
2013-01-26 16:25:00,44.3,22.7,30.03,East,96,5.0,8.0,42,0.00,,SKC,0.00,VWS V14.01,2013-01-26 23:25:00,
2013-01-26 16:26:00,44.3,22.7,30.02,East,91,5.0,6.0,42,0.00,,SKC,0.00,VWS V14.01,2013-01-26 23:26:00,
2013-01-26 16:27:00,44.2,22.6,30.03,ESE,107,6.0,6.0,42,0.00,,SKC,0.00,VWS V14.01,2013-01-26 23:27:00,
2013-01-26 16:28:00,44.2,22.6,30.02,ESE,103,4.0,6.0,42,0.00,,SKC,0.00,VWS V14.01,2013-01-26 23:28:00,
2013-01-26 16:29:00,44.1,22.5,30.02,East,80,5.0,7.0,42,0.00,,SKC,0.00,VWS V14.01,2013-01-26 23:29:00,
2013-01-26 16:30:00,44.1,22.5,30.02,East,86,4.0,5.0,42,0.00,,SKC,0.00,VWS V14.01,2013-01-26 23:30:00,
2013-01-26 16:31:00,44.0,22.4,30.02,East,94,4.0,6.0,42,0.00,,SKC,0.00,VWS V14.01,2013-01-26 23:31:00,
2013-01-26 16:32:00,44.0,23.0,30.02,East,96,4.0,5.0,43,0.00,,SKC,0.00,VWS V14.01,2013-01-26 23:32:00,
2013-01-26 16:33:00,43.9,22.9,30.02,East,94,5.0,6.0,43,0.00,,SKC,0.00,VWS V14.01,2013-01-26 23:33:00,
2013-01-26 16:34:00,43.8,22.8,30.02,ESE,103,6.0,6.0,43,0.00,,SKC,0.00,VWS V14.01,2013-01-26 23:34:00,
2013-01-26 16:35:00,43.8,22.8,30.02,East,101,3.0,6.0,43,0.00,,SKC,0.00,VWS V14.01,2013-01-26 23:35:00,
2013-01-26 16:36:00,43.7,22.7,30.02,ESE,103,4.0,6.0,43,0.00,,SKC,0.00,VWS V14.01,2013-01-26 23:36:00,
2013-01-26 16:37:00,43.7,23.2,30.03,East,101,4.0,4.0,44,0.00,,SKC,0.00,VWS V14.01,2013-01-26 23:37:00,
2013-01-26 16:38:00,43.6,22.6,30.02,East,93,4.0,6.0,43,0.00,,SKC,0.00,VWS V14.01,2013-01-26 23:38:00,
2013-01-26 16:39:00,43.6,22.6,30.02,East,94,4.0,5.0,43,0.00,,SKC,0.00,VWS V14.01,2013-01-26 23:39:00,
2013-01-26 16:40:00,43.5,23.0,30.02,East,96,5.0,6.0,44,0.00,,SKC,0.00,VWS V14.01,2013-01-26 23:40:00,
2013-01-26 16:41:00,43.5,23.0,30.02,East,98,4.0,5.0,44,0.00,,SKC,0.00,VWS V14.01,2013-01-26 23:41:00,
2013-01-26 16:42:00,43.4,23.0,30.02,East,93,2.0,4.0,44,0.00,,SKC,0.00,VWS V14.01,2013-01-26 23:42:00,
2013-01-26 16:43:00,43.4,23.0,30.02,East,95,2.0,3.0,44,0.00,,SKC,0.00,VWS V14.01,2013-01-26 23:43:00,
2013-01-26 16:44:00,43.4,23.0,30.02,North,360,2.0,5.0,44,0.00,,SKC,0.00,VWS V14.01,2013-01-26 23:44:00,
2013-01-26 16:45:00,43.4,23.0,30.02,North,360,2.0,5.0,44,0.00,,SKC,0.00,VWS V14.01,2013-01-26 23:45:00,
2013-01-26 16:46:00,43.3,22.9,30.02,East,100,3.0,4.0,44,0.00,,SKC,0.00,VWS V14.01,2013-01-26 23:46:00,
2013-01-26 16:47:00,43.3,22.9,30.02,East,96,3.0,5.0,44,0.00,,SKC,0.00,VWS V14.01,2013-01-26 23:47:00,
2013-01-26 16:48:00,43.3,22.9,30.02,East,98,5.0,5.0,44,0.00,,SKC,0.00,VWS V14.01,2013-01-26 23:48:00,
2013-01-26 16:49:00,43.2,23.3,30.02,East,93,1.0,5.0,45,0.00,,SKC,0.00,VWS V14.01,2013-01-26 23:49:00,
2013-01-26 16:50:00,43.2,23.3,30.02,East,90,3.0,3.0,45,0.00,,SKC,0.00,VWS V14.01,2013-01-26 23:50:00,
2013-01-26 16:51:00,43.2,23.3,30.02,East,84,3.0,4.0,45,0.00,,SKC,0.00,VWS V14.01,2013-01-26 23:51:00,
2013-01-26 16:52:00,43.1,23.2,30.02,East,92,0.0,3.0,45,0.00,,SKC,0.00,VWS V14.01,2013-01-26 23:52:00,
2013-01-26 16:53:00,43.1,23.2,30.02,East,88,0.0,1.0,45,0.00,,SKC,0.00,VWS V14.01,2013-01-26 23:53:00,
2013-01-26 16:54:00,43.1,23.2,30.02,East,89,1.0,3.0,45,0.00,,SKC,0.00,VWS V14.01,2013-01-26 23:54:00,
2013-01-26 16:55:00,43.0,23.1,30.02,East,88,2.0,4.0,45,0.00,,SKC,0.00,VWS V14.01,2013-01-26 23:55:00,
2013-01-26 16:56:00,43.0,23.1,30.02,East,90,1.0,2.0,45,0.00,,SKC,0.00,VWS V14.01,2013-01-26 23:56:00,
2013-01-26 16:57:00,43.0,23.1,30.02,East,92,2.0,2.0,45,0.00,,SKC,0.00,VWS V14.01,2013-01-26 23:57:00,
2013-01-26 16:58:00,42.9,23.0,30.02,East,90,1.0,2.0,45,0.00,,SKC,0.00,VWS V14.01,2013-01-26 23:58:00,
2013-01-26 16:59:00,42.9,23.0,30.02,East,90,0.0,1.0,45,0.00,,SKC,0.00,VWS V14.01,2013-01-26 23:59:00,
2013-01-26 17:00:00,42.9,23.0,30.02,East,86,0.0,0.0,45,0.00,,SKC,0.00,VWS V14.01,2013-01-27 00:00:00,
2013-01-26 17:01:00,42.9,23.0,30.02,East,86,0.0,0.0,45,0.00,,SKC,0.00,VWS V14.01,2013-01-27 00:01:00,
2013-01-26 17:02:00,42.8,23.5,30.02,East,90,0.0,0.0,46,0.00,,SKC,0.00,VWS V14.01,2013-01-27 00:02:00,
2013-01-26 17:03:00,42.8,23.5,30.02,East,90,0.0,0.0,46,0.00,,SKC,0.00,VWS V14.01,2013-01-27 00:03:00,
2013-01-26 17:04:00,42.8,23.5,30.02,East,86,0.0,0.0,46,0.00,,SKC,0.00,VWS V14.01,2013-01-27 00:04:00,
2013-01-26 17:05:00,42.7,23.4,30.02,East,88,0.0,0.0,46,0.00,,SKC,0.00,VWS V14.01,2013-01-27 00:05:00,
2013-01-26 17:06:00,42.7,23.4,30.02,East,93,0.0,0.0,46,0.00,,SKC,0.00,VWS V14.01,2013-01-27 00:06:00,
2013-01-26 17:07:00,42.7,23.4,30.01,East,90,0.0,0.0,46,0.00,,SKC,0.00,VWS V14.01,2013-01-27 00:07:00,
2013-01-26 17:08:00,42.7,23.4,30.01,East,88,0.0,1.0,46,0.00,,SKC,0.00,VWS V14.01,2013-01-27 00:08:00,
2013-01-26 17:09:00,42.6,23.3,30.02,East,86,0.0,0.0,46,0.00,,SKC,0.00,VWS V14.01,2013-01-27 00:09:00,
2013-01-26 17:10:00,42.7,23.4,30.02,East,88,0.0,0.0,46,0.00,,SKC,0.00,VWS V14.01,2013-01-27 00:10:00,
2013-01-26 17:11:00,42.6,23.3,30.01,East,91,0.0,0.0,46,0.00,,SKC,0.00,VWS V14.01,2013-01-27 00:11:00,
2013-01-26 17:12:00,42.6,23.3,30.01,East,93,0.0,0.0,46,0.00,,SKC,0.00,VWS V14.01,2013-01-27 00:12:00,
2013-01-26 17:13:00,42.6,23.3,30.01,East,83,0.0,0.0,46,0.00,,SKC,0.00,VWS V14.01,2013-01-27 00:13:00,
2013-01-26 17:14:00,42.5,23.2,30.01,East,86,0.0,0.0,46,0.00,,SKC,0.00,VWS V14.01,2013-01-27 00:14:00,
2013-01-26 17:15:00,42.5,23.2,30.01,East,89,0.0,0.0,46,0.00,,SKC,0.00,VWS V14.01,2013-01-27 00:15:00,
2013-01-26 17:16:00,42.5,23.2,30.01,East,88,0.0,0.0,46,0.00,,SKC,0.00,VWS V14.01,2013-01-27 00:16:00,
2013-01-26 17:17:00,42.5,23.2,30.01,East,94,0.0,0.0,46,0.00,,SKC,0.00,VWS V14.01,2013-01-27 00:17:00,
2013-01-26 17:18:00,42.5,23.2,30.02,East,89,0.0,0.0,46,0.00,,SKC,0.00,VWS V14.01,2013-01-27 00:18:00,
2013-01-26 17:19:00,42.4,23.1,30.01,East,88,0.0,0.0,46,0.00,,SKC,0.00,VWS V14.01,2013-01-27 00:19:00,
2013-01-26 17:20:00,42.4,23.1,30.02,East,91,0.0,0.0,46,0.00,,SKC,0.00,VWS V14.01,2013-01-27 00:20:00,
2013-01-26 17:21:00,42.4,23.1,30.01,East,89,0.0,1.0,46,0.00,,SKC,0.00,VWS V14.01,2013-01-27 00:21:00,
2013-01-26 17:22:00,42.4,23.1,30.01,East,93,0.0,0.0,46,0.00,,SKC,0.00,VWS V14.01,2013-01-27 00:22:00,
2013-01-26 17:23:00,42.4,23.1,30.01,East,87,0.0,0.0,46,0.00,,SKC,0.00,VWS V14.01,2013-01-27 00:23:00,
2013-01-26 17:24:00,42.4,23.1,30.01,East,84,0.0,0.0,46,0.00,,SKC,0.00,VWS V14.01,2013-01-27 00:24:00,
2013-01-26 17:25:00,42.3,23.5,30.01,East,90,0.0,0.0,47,0.00,,SKC,0.00,VWS V14.01,2013-01-27 00:25:00,
2013-01-26 17:26:00,42.3,23.5,30.01,East,90,0.0,0.0,47,0.00,,SKC,0.00,VWS V14.01,2013-01-27 00:26:00,
2013-01-26 17:27:00,42.3,23.5,30.01,East,91,0.0,0.0,47,0.00,,SKC,0.00,VWS V14.01,2013-01-27 00:27:00,
2013-01-26 17:28:00,42.3,23.5,30.01,East,89,0.0,0.0,47,0.00,,SKC,0.00,VWS V14.01,2013-01-27 00:28:00,
2013-01-26 17:29:00,42.3,23.5,30.01,East,90,0.0,0.0,47,0.00,,SKC,0.00,VWS V14.01,2013-01-27 00:29:00,
2013-01-26 17:30:00,42.2,23.4,30.01,East,88,0.0,0.0,47,0.00,,SKC,0.00,VWS V14.01,2013-01-27 00:30:00,
2013-01-26 17:31:00,42.2,23.4,30.02,East,86,0.0,1.0,47,0.00,,SKC,0.00,VWS V14.01,2013-01-27 00:31:00,
2013-01-26 17:32:00,42.2,23.4,30.02,East,96,0.0,0.0,47,0.00,,SKC,0.00,VWS V14.01,2013-01-27 00:32:00,
2013-01-26 17:33:00,42.2,22.9,30.02,East,98,0.0,0.0,46,0.00,,SKC,0.00,VWS V14.01,2013-01-27 00:33:00,
2013-01-26 17:34:00,42.1,22.8,30.02,East,93,0.0,0.0,46,0.00,,SKC,0.00,VWS V14.01,2013-01-27 00:34:00,
2013-01-26 17:35:00,42.1,23.3,30.02,East,89,0.0,0.0,47,0.00,,SKC,0.00,VWS V14.01,2013-01-27 00:35:00,
2013-01-26 17:36:00,42.1,23.3,30.02,East,87,0.0,0.0,47,0.00,,SKC,0.00,VWS V14.01,2013-01-27 00:36:00,
2013-01-26 17:37:00,42.0,23.2,30.02,East,89,0.0,0.0,47,0.00,,SKC,0.00,VWS V14.01,2013-01-27 00:37:00,
2013-01-26 17:38:00,42.0,23.2,30.02,East,90,0.0,0.0,47,0.00,,SKC,0.00,VWS V14.01,2013-01-27 00:38:00,
2013-01-26 17:39:00,42.0,23.8,30.02,East,87,0.0,0.0,48,0.00,,SKC,0.00,VWS V14.01,2013-01-27 00:39:00,
2013-01-26 17:40:00,42.0,23.8,30.02,East,94,0.0,0.0,48,0.00,,SKC,0.00,VWS V14.01,2013-01-27 00:40:00,
2013-01-26 17:41:00,41.9,23.7,30.02,East,90,0.0,0.0,48,0.00,,SKC,0.00,VWS V14.01,2013-01-27 00:41:00,
2013-01-26 17:42:00,41.9,23.7,30.02,East,90,0.0,0.0,48,0.00,,SKC,0.00,VWS V14.01,2013-01-27 00:42:00,
2013-01-26 17:43:00,41.9,23.7,30.01,East,91,0.0,0.0,48,0.00,,SKC,0.00,VWS V14.01,2013-01-27 00:43:00,
2013-01-26 17:44:00,41.8,23.6,30.01,East,84,0.0,0.0,48,0.00,,SKC,0.00,VWS V14.01,2013-01-27 00:44:00,
2013-01-26 17:45:00,41.8,23.6,30.01,East,94,0.0,1.0,48,0.00,,SKC,0.00,VWS V14.01,2013-01-27 00:45:00,
2013-01-26 17:46:00,41.8,23.6,30.01,East,80,0.0,0.0,48,0.00,,SKC,0.00,VWS V14.01,2013-01-27 00:46:00,
2013-01-26 17:47:00,41.7,23.5,30.01,East,88,0.0,0.0,48,0.00,,SKC,0.00,VWS V14.01,2013-01-27 00:47:00,
2013-01-26 17:48:00,41.7,23.5,30.01,East,87,0.0,0.0,48,0.00,,SKC,0.00,VWS V14.01,2013-01-27 00:48:00,
2013-01-26 17:49:00,41.6,23.4,30.01,East,90,0.0,0.0,48,0.00,,SKC,0.00,VWS V14.01,2013-01-27 00:49:00,
2013-01-26 17:50:00,41.6,23.4,30.01,East,90,0.0,1.0,48,0.00,,SKC,0.00,VWS V14.01,2013-01-27 00:50:00,
2013-01-26 17:51:00,41.6,23.4,30.02,East,86,0.0,1.0,48,0.00,,SKC,0.00,VWS V14.01,2013-01-27 00:51:00,
2013-01-26 17:52:00,41.6,23.4,30.02,East,90,0.0,0.0,48,0.00,,SKC,0.00,VWS V14.01,2013-01-27 00:52:00,
2013-01-26 17:53:00,41.5,23.3,30.01,East,94,0.0,0.0,48,0.00,,SKC,0.00,VWS V14.01,2013-01-27 00:53:00,
2013-01-26 17:54:00,41.5,23.3,30.02,East,90,0.0,0.0,48,0.00,,SKC,0.00,VWS V14.01,2013-01-27 00:54:00,
2013-01-26 17:55:00,41.5,23.3,30.02,East,84,0.0,1.0,48,0.00,,SKC,0.00,VWS V14.01,2013-01-27 00:55:00,
2013-01-26 17:56:00,41.5,23.3,30.02,East,90,0.0,0.0,48,0.00,,SKC,0.00,VWS V14.01,2013-01-27 00:56:00,
2013-01-26 17:57:00,41.5,23.8,30.02,East,88,0.0,0.0,49,0.00,,SKC,0.00,VWS V14.01,2013-01-27 00:57:00,
2013-01-26 17:58:00,41.5,23.8,30.02,East,90,0.0,0.0,49,0.00,,SKC,0.00,VWS V14.01,2013-01-27 00:58:00,
2013-01-26 17:59:00,41.5,23.8,30.01,East,90,0.0,0.0,49,0.00,,SKC,0.00,VWS V14.01,2013-01-27 00:59:00,
2013-01-26 18:00:00,41.4,23.2,30.01,East,89,0.0,1.0,48,0.00,,SKC,0.00,VWS V14.01,2013-01-27 01:00:00,
2013-01-26 18:01:00,41.4,23.2,30.02,East,79,0.0,0.0,48,0.00,,SKC,0.00,VWS V14.01,2013-01-27 01:01:00,
2013-01-26 18:02:00,41.4,23.2,30.02,East,93,0.0,0.0,48,0.00,,SKC,0.00,VWS V14.01,2013-01-27 01:02:00,
2013-01-26 18:03:00,41.4,23.2,30.02,East,90,0.0,0.0,48,0.00,,SKC,0.00,VWS V14.01,2013-01-27 01:03:00,
2013-01-26 18:04:00,41.4,23.7,30.02,East,89,0.0,0.0,49,0.00,,SKC,0.00,VWS V14.01,2013-01-27 01:04:00,
2013-01-26 18:05:00,41.4,23.7,30.01,East,92,0.0,0.0,49,0.00,,SKC,0.00,VWS V14.01,2013-01-27 01:05:00,
2013-01-26 18:06:00,41.4,23.2,30.02,East,88,0.0,0.0,48,0.00,,SKC,0.00,VWS V14.01,2013-01-27 01:06:00,
2013-01-26 18:07:00,41.4,23.7,30.02,East,90,0.0,0.0,49,0.00,,SKC,0.00,VWS V14.01,2013-01-27 01:07:00,
2013-01-26 18:08:00,41.4,23.7,30.02,East,85,0.0,0.0,49,0.00,,SKC,0.00,VWS V14.01,2013-01-27 01:08:00,
2013-01-26 18:09:00,41.3,23.1,30.02,East,88,0.0,0.0,48,0.00,,SKC,0.00,VWS V14.01,2013-01-27 01:09:00,
2013-01-26 18:10:00,41.3,23.1,30.02,East,90,0.0,0.0,48,0.00,,SKC,0.00,VWS V14.01,2013-01-27 01:10:00,
2013-01-26 18:11:00,41.3,23.1,30.02,East,92,0.0,0.0,48,0.00,,SKC,0.00,VWS V14.01,2013-01-27 01:11:00,
2013-01-26 18:12:00,41.3,23.1,30.02,East,87,0.0,0.0,48,0.00,,SKC,0.00,VWS V14.01,2013-01-27 01:12:00,
2013-01-26 18:13:00,41.3,23.1,30.02,East,88,0.0,0.0,48,0.00,,SKC,0.00,VWS V14.01,2013-01-27 01:13:00,
2013-01-26 18:14:00,41.3,23.1,30.02,East,87,0.0,0.0,48,0.00,,SKC,0.00,VWS V14.01,2013-01-27 01:14:00,
2013-01-26 18:15:00,41.3,23.1,30.02,East,88,0.0,0.0,48,0.00,,SKC,0.00,VWS V14.01,2013-01-27 01:15:00,
2013-01-26 18:16:00,41.3,23.6,30.02,East,86,0.0,0.0,49,0.00,,SKC,0.00,VWS V14.01,2013-01-27 01:16:00,
2013-01-26 18:17:00,41.3,23.1,30.02,East,89,0.0,0.0,48,0.00,,SKC,0.00,VWS V14.01,2013-01-27 01:17:00,
2013-01-26 18:18:00,41.3,23.1,30.02,East,91,0.0,0.0,48,0.00,,SKC,0.00,VWS V14.01,2013-01-27 01:18:00,
2013-01-26 18:19:00,41.3,23.1,30.02,East,86,0.0,0.0,48,0.00,,SKC,0.00,VWS V14.01,2013-01-27 01:19:00,
2013-01-26 18:20:00,41.2,23.0,30.02,East,92,0.0,1.0,48,0.00,,SKC,0.00,VWS V14.01,2013-01-27 01:20:00,
2013-01-26 18:21:00,41.2,23.5,30.02,East,91,0.0,1.0,49,0.00,,SKC,0.00,VWS V14.01,2013-01-27 01:21:00,
2013-01-26 18:22:00,41.2,23.0,30.02,East,90,0.0,0.0,48,0.00,,SKC,0.00,VWS V14.01,2013-01-27 01:22:00,
2013-01-26 18:23:00,41.2,23.0,30.02,East,92,0.0,0.0,48,0.00,,SKC,0.00,VWS V14.01,2013-01-27 01:23:00,
2013-01-26 18:24:00,41.2,23.0,30.03,East,89,0.0,2.0,48,0.00,,SKC,0.00,VWS V14.01,2013-01-27 01:24:00,
2013-01-26 18:25:00,41.2,23.5,30.03,East,85,2.0,2.0,49,0.00,,SKC,0.00,VWS V14.01,2013-01-27 01:25:00,
2013-01-26 18:26:00,41.2,23.5,30.03,East,88,3.0,4.0,49,0.00,,SKC,0.00,VWS V14.01,2013-01-27 01:26:00,
2013-01-26 18:27:00,41.1,23.4,30.03,East,90,2.0,4.0,49,0.00,,SKC,0.00,VWS V14.01,2013-01-27 01:27:00,
2013-01-26 18:28:00,41.1,24.4,30.03,East,94,2.0,4.0,51,0.00,,SKC,0.00,VWS V14.01,2013-01-27 01:28:00,
2013-01-26 18:29:00,41.1,23.9,30.03,East,94,3.0,4.0,50,0.00,,SKC,0.00,VWS V14.01,2013-01-27 01:29:00,
2013-01-26 18:30:00,41.1,24.4,30.03,ESE,117,8.0,10.0,51,0.00,,SKC,0.00,VWS V14.01,2013-01-27 01:30:00,
2013-01-26 18:31:00,41.1,24.8,30.03,ESE,119,5.0,8.0,52,0.00,,SKC,0.00,VWS V14.01,2013-01-27 01:31:00,
2013-01-26 18:32:00,41.0,24.7,30.03,ESE,114,4.0,5.0,52,0.00,,SKC,0.00,VWS V14.01,2013-01-27 01:32:00,
2013-01-26 18:33:00,41.0,25.2,30.03,ESE,105,6.0,6.0,53,0.00,,SKC,0.00,VWS V14.01,2013-01-27 01:33:00,
2013-01-26 18:34:00,40.9,26.0,30.03,ESE,116,4.0,6.0,55,0.00,,SKC,0.00,VWS V14.01,2013-01-27 01:34:00,
2013-01-26 18:35:00,40.9,27.3,30.03,ESE,112,3.0,5.0,58,0.00,,SKC,0.00,VWS V14.01,2013-01-27 01:35:00,
2013-01-26 18:36:00,40.8,28.0,30.03,East,96,7.0,7.0,60,0.00,,SKC,0.00,VWS V14.01,2013-01-27 01:36:00,
2013-01-26 18:37:00,40.8,28.4,30.03,SE,125,9.0,10.0,61,0.00,,SKC,0.00,VWS V14.01,2013-01-27 01:37:00,
2013-01-26 18:38:00,40.7,28.7,30.03,SE,126,2.0,9.0,62,0.00,,SKC,0.00,VWS V14.01,2013-01-27 01:38:00,
2013-01-26 18:39:00,40.6,29.4,30.03,SE,125,4.0,6.0,64,0.00,,SKC,0.00,VWS V14.01,2013-01-27 01:39:00,
2013-01-26 18:40:00,40.5,29.7,30.03,SE,128,2.0,4.0,65,0.00,,SKC,0.00,VWS V14.01,2013-01-27 01:40:00,
2013-01-26 18:41:00,40.4,29.6,30.03,SE,126,3.0,3.0,65,0.00,,SKC,0.00,VWS V14.01,2013-01-27 01:41:00,
2013-01-26 18:42:00,40.4,30.0,30.03,SE,124,0.0,4.0,66,0.00,,SKC,0.00,VWS V14.01,2013-01-27 01:42:00,
2013-01-26 18:43:00,40.3,29.9,30.03,SE,129,4.0,4.0,66,0.00,,SKC,0.00,VWS V14.01,2013-01-27 01:43:00,
2013-01-26 18:44:00,40.2,29.8,30.03,SE,129,2.0,4.0,66,0.00,,SKC,0.00,VWS V14.01,2013-01-27 01:44:00,
2013-01-26 18:45:00,40.1,29.7,30.03,SE,132,0.0,2.0,66,0.00,,SKC,0.00,VWS V14.01,2013-01-27 01:45:00,
2013-01-26 18:46:00,40.1,30.0,30.03,SE,129,0.0,1.0,67,0.00,,SKC,0.00,VWS V14.01,2013-01-27 01:46:00,
2013-01-26 18:47:00,40.0,29.9,30.03,SE,135,1.0,2.0,67,0.00,,SKC,0.00,VWS V14.01,2013-01-27 01:47:00,
2013-01-26 18:48:00,39.8,30.1,30.03,North,360,0.0,1.0,68,0.00,,SKC,0.00,VWS V14.01,2013-01-27 01:48:00,
2013-01-26 18:49:00,39.8,30.1,30.03,SE,130,2.0,2.0,68,0.00,,SKC,0.00,VWS V14.01,2013-01-27 01:49:00,
2013-01-26 18:50:00,39.7,30.4,30.03,SE,128,3.0,3.0,69,0.00,,SKC,0.00,VWS V14.01,2013-01-27 01:50:00,
2013-01-26 18:51:00,39.5,30.2,30.03,ESE,123,3.0,3.0,69,0.00,,SKC,0.00,VWS V14.01,2013-01-27 01:51:00,
2013-01-26 18:52:00,39.4,30.4,30.03,SE,129,2.0,3.0,70,0.00,,SKC,0.00,VWS V14.01,2013-01-27 01:52:00,
2013-01-26 18:53:00,39.3,30.4,30.03,SE,133,2.0,4.0,70,0.00,,SKC,0.00,VWS V14.01,2013-01-27 01:53:00,
2013-01-26 18:54:00,39.1,30.2,30.03,SE,134,2.0,3.0,70,0.00,,SKC,0.00,VWS V14.01,2013-01-27 01:54:00,
2013-01-26 18:55:00,39.0,30.1,30.03,SE,130,4.0,4.0,70,0.00,,SKC,0.00,VWS V14.01,2013-01-27 01:55:00,
2013-01-26 18:56:00,38.9,30.3,30.03,SE,132,2.0,4.0,71,0.00,,SKC,0.00,VWS V14.01,2013-01-27 01:56:00,
2013-01-26 18:57:00,38.7,30.5,30.03,SE,132,2.0,3.0,72,0.00,,SKC,0.00,VWS V14.01,2013-01-27 01:57:00,
2013-01-26 18:58:00,38.6,30.0,30.03,SE,132,1.0,3.0,71,0.00,,SKC,0.00,VWS V14.01,2013-01-27 01:58:00,
2013-01-26 18:59:00,38.4,30.2,30.03,SE,130,1.0,2.0,72,0.00,,SKC,0.00,VWS V14.01,2013-01-27 01:59:00,
2013-01-26 19:00:00,38.3,30.1,30.03,SE,130,1.0,1.0,72,0.00,,SKC,0.00,VWS V14.01,2013-01-27 02:00:00,
2013-01-26 19:01:00,38.2,30.0,30.03,SE,132,2.0,2.0,72,0.00,,SKC,0.00,VWS V14.01,2013-01-27 02:01:00,
2013-01-26 19:02:00,38.0,30.1,30.03,SE,131,0.0,3.0,73,0.00,,SKC,0.00,VWS V14.01,2013-01-27 02:02:00,
2013-01-26 19:03:00,37.9,30.0,30.03,SE,134,0.0,0.0,73,0.00,,SKC,0.00,VWS V14.01,2013-01-27 02:03:00,
2013-01-26 19:04:00,37.7,30.2,30.03,SE,133,2.0,3.0,74,0.00,,SKC,0.00,VWS V14.01,2013-01-27 02:04:00,
2013-01-26 19:05:00,37.6,30.1,30.03,SE,134,2.0,2.0,74,0.00,,SKC,0.00,VWS V14.01,2013-01-27 02:05:00,
2013-01-26 19:06:00,37.5,30.0,30.03,SE,132,3.0,3.0,74,0.00,,SKC,0.00,VWS V14.01,2013-01-27 02:06:00,
2013-01-26 19:07:00,37.3,30.1,30.03,SE,133,3.0,3.0,75,0.00,,SKC,0.00,VWS V14.01,2013-01-27 02:07:00,
2013-01-26 19:08:00,37.2,30.0,30.03,SE,133,2.0,3.0,75,0.00,,SKC,0.00,VWS V14.01,2013-01-27 02:08:00,
2013-01-26 19:09:00,37.1,29.9,30.03,SE,131,2.0,2.0,75,0.01,,SKC,0.01,VWS V14.01,2013-01-27 02:09:00,
2013-01-26 19:10:00,37.0,30.1,30.03,SE,132,1.0,2.0,76,0.01,,SKC,0.01,VWS V14.01,2013-01-27 02:10:00,
2013-01-26 19:11:00,36.8,30.0,30.02,SE,134,1.0,2.0,76,0.01,,SKC,0.01,VWS V14.01,2013-01-27 02:11:00,
2013-01-26 19:12:00,36.7,29.9,30.02,SE,128,2.0,2.0,76,0.01,,SKC,0.01,VWS V14.01,2013-01-27 02:12:00,
2013-01-26 19:13:00,36.6,30.1,30.02,SE,133,2.0,2.0,77,0.01,,SKC,0.01,VWS V14.01,2013-01-27 02:13:00,
2013-01-26 19:14:00,36.5,30.0,30.02,North,360,2.0,3.0,77,0.01,,SKC,0.01,VWS V14.01,2013-01-27 02:14:00,
2013-01-26 19:15:00,36.4,30.2,30.02,SE,136,2.0,3.0,78,0.01,,SKC,0.01,VWS V14.01,2013-01-27 02:15:00,
2013-01-26 19:16:00,36.3,30.1,30.02,SE,128,2.0,2.0,78,0.01,,SKC,0.01,VWS V14.01,2013-01-27 02:16:00,
2013-01-26 19:17:00,36.2,30.0,30.02,SE,132,1.0,2.0,78,0.01,,SKC,0.01,VWS V14.01,2013-01-27 02:17:00,
2013-01-26 19:18:00,36.1,30.2,30.02,SE,131,2.0,2.0,79,0.01,,SKC,0.01,VWS V14.01,2013-01-27 02:18:00,
2013-01-26 19:19:00,36.0,30.1,30.02,SE,137,3.0,3.0,79,0.01,,SKC,0.01,VWS V14.01,2013-01-27 02:19:00,
2013-01-26 19:20:00,36.0,30.1,30.02,SSW,209,2.0,3.0,79,0.01,,SKC,0.01,VWS V14.01,2013-01-27 02:20:00,
2013-01-26 19:21:00,35.9,30.3,30.02,SSW,210,0.0,2.0,80,0.01,,SKC,0.01,VWS V14.01,2013-01-27 02:21:00,
2013-01-26 19:22:00,35.8,30.2,30.02,North,360,0.0,1.0,80,0.01,,SKC,0.01,VWS V14.01,2013-01-27 02:22:00,
2013-01-26 19:23:00,35.8,30.2,30.02,SSW,212,0.0,0.0,80,0.01,,SKC,0.01,VWS V14.01,2013-01-27 02:23:00,
2013-01-26 19:24:00,35.7,30.1,30.02,North,360,2.0,2.0,80,0.01,,SKC,0.01,VWS V14.01,2013-01-27 02:24:00,
2013-01-26 19:25:00,35.7,30.1,30.02,SW,214,2.0,2.0,80,0.01,,SKC,0.01,VWS V14.01,2013-01-27 02:25:00,
2013-01-26 19:26:00,35.6,30.4,30.02,SW,215,0.0,2.0,81,0.01,,SKC,0.01,VWS V14.01,2013-01-27 02:26:00,
2013-01-26 19:27:00,35.6,30.4,30.02,SSW,212,0.0,1.0,81,0.01,,SKC,0.01,VWS V14.01,2013-01-27 02:27:00,
2013-01-26 19:28:00,35.6,30.4,30.02,SW,224,2.0,3.0,81,0.02,,SKC,0.02,VWS V14.01,2013-01-27 02:28:00,
2013-01-26 19:29:00,35.5,30.3,30.02,SW,227,0.0,2.0,81,0.02,,SKC,0.02,VWS V14.01,2013-01-27 02:29:00,
2013-01-26 19:30:00,35.5,30.3,30.02,West,275,1.0,3.0,81,0.02,,SKC,0.02,VWS V14.01,2013-01-27 02:30:00,
2013-01-26 19:31:00,35.4,30.2,30.02,West,274,0.0,2.0,81,0.02,,SKC,0.02,VWS V14.01,2013-01-27 02:31:00,
2013-01-26 19:32:00,35.4,30.5,30.02,West,274,0.0,0.0,82,0.02,,SKC,0.02,VWS V14.01,2013-01-27 02:32:00,
2013-01-26 19:33:00,35.4,30.5,30.01,West,277,0.0,0.0,82,0.02,,SKC,0.02,VWS V14.01,2013-01-27 02:33:00,
2013-01-26 19:34:00,35.3,30.4,30.02,West,277,0.0,0.0,82,0.02,,SKC,0.02,VWS V14.01,2013-01-27 02:34:00,
2013-01-26 19:35:00,35.3,30.4,30.01,West,273,0.0,0.0,82,0.02,,SKC,0.02,VWS V14.01,2013-01-27 02:35:00,
2013-01-26 19:36:00,35.3,30.7,30.01,West,274,0.0,0.0,83,0.02,,SKC,0.02,VWS V14.01,2013-01-27 02:36:00,
2013-01-26 19:37:00,35.3,30.7,30.01,West,281,0.0,0.0,83,0.02,,SKC,0.02,VWS V14.01,2013-01-27 02:37:00,
2013-01-26 19:38:00,35.3,30.7,30.01,West,278,0.0,0.0,83,0.02,,SKC,0.02,VWS V14.01,2013-01-27 02:38:00,
2013-01-26 19:39:00,35.3,30.7,30.01,North,360,0.0,0.0,83,0.02,,SKC,0.02,VWS V14.01,2013-01-27 02:39:00,
2013-01-26 19:40:00,35.3,30.7,30.01,West,273,0.0,0.0,83,0.02,,SKC,0.02,VWS V14.01,2013-01-27 02:40:00,
2013-01-26 19:41:00,35.2,30.9,30.01,West,277,0.0,0.0,84,0.02,,SKC,0.02,VWS V14.01,2013-01-27 02:41:00,
2013-01-26 19:42:00,35.3,31.0,30.01,West,273,0.0,0.0,84,0.02,,SKC,0.02,VWS V14.01,2013-01-27 02:42:00,
2013-01-26 19:43:00,35.3,31.0,30.01,West,273,0.0,0.0,84,0.02,,SKC,0.02,VWS V14.01,2013-01-27 02:43:00,
2013-01-26 19:44:00,35.3,31.0,30.01,West,276,0.0,0.0,84,0.03,,SKC,0.03,VWS V14.01,2013-01-27 02:44:00,
2013-01-26 19:45:00,35.3,31.2,30.01,West,273,0.0,0.0,85,0.03,,SKC,0.03,VWS V14.01,2013-01-27 02:45:00,
2013-01-26 19:46:00,35.3,31.2,30.01,West,274,0.0,0.0,85,0.03,,SKC,0.03,VWS V14.01,2013-01-27 02:46:00,
2013-01-26 19:47:00,35.3,31.2,30.01,West,277,0.0,0.0,85,0.03,,SKC,0.03,VWS V14.01,2013-01-27 02:47:00,
2013-01-26 19:48:00,35.3,31.2,30.01,West,277,0.0,0.0,85,0.03,,SKC,0.03,VWS V14.01,2013-01-27 02:48:00,
2013-01-26 19:49:00,35.3,31.2,30.01,West,280,0.0,0.0,85,0.03,,SKC,0.03,VWS V14.01,2013-01-27 02:49:00,
2013-01-26 19:50:00,35.3,31.2,30.01,West,275,0.0,0.0,85,0.03,,SKC,0.03,VWS V14.01,2013-01-27 02:50:00,
2013-01-26 19:51:00,35.3,31.2,30.01,West,279,0.0,0.0,85,0.03,,SKC,0.03,VWS V14.01,2013-01-27 02:51:00,
2013-01-26 19:52:00,35.3,31.2,30.01,West,273,0.0,1.0,85,0.03,,SKC,0.03,VWS V14.01,2013-01-27 02:52:00,
2013-01-26 19:53:00,35.3,31.2,30.00,West,273,0.0,0.0,85,0.03,,SKC,0.03,VWS V14.01,2013-01-27 02:53:00,
2013-01-26 19:54:00,35.3,31.2,30.01,West,271,0.0,1.0,85,0.03,,SKC,0.03,VWS V14.01,2013-01-27 02:54:00,
2013-01-26 19:55:00,35.3,31.2,30.01,West,277,0.0,0.0,85,0.03,,SKC,0.03,VWS V14.01,2013-01-27 02:55:00,
2013-01-26 20:04:00,35.2,31.1,30.00,West,276,0.0,0.0,85,0.03,,SKC,0.03,VWS V14.01,2013-01-27 03:04:00,
2013-01-26 20:05:00,35.2,31.1,30.00,North,0,0.0,0.0,85,0.03,,SKC,0.03,VWS V14.01,2013-01-27 03:05:00,
2013-01-26 20:06:00,35.1,31.3,30.00,West,279,0.0,0.0,86,0.03,,SKC,0.03,VWS V14.01,2013-01-27 03:06:00,
2013-01-26 20:07:00,35.1,31.3,29.99,West,277,0.0,0.0,86,0.03,,SKC,0.03,VWS V14.01,2013-01-27 03:07:00,
2013-01-26 20:08:00,35.1,31.3,29.99,West,275,0.0,0.0,86,0.03,,SKC,0.03,VWS V14.01,2013-01-27 03:08:00,
2013-01-26 20:18:00,35.0,31.2,29.99,West,275,0.0,0.0,86,0.02,,SKC,0.03,VWS V14.01,2013-01-27 03:18:00,
2013-01-26 20:23:00,34.7,31.0,29.98,West,275,0.0,0.0,86,0.03,,SKC,0.04,VWS V14.01,2013-01-27 03:23:00,
2013-01-26 20:29:00,34.4,30.9,29.98,West,279,0.0,0.0,87,0.02,,SKC,0.04,VWS V14.01,2013-01-27 03:29:00,
2013-01-26 20:34:00,34.3,30.8,29.97,North,360,0.0,0.0,87,0.02,,SKC,0.04,VWS V14.01,2013-01-27 03:34:00,
2013-01-26 20:40:00,34.1,30.9,29.97,West,277,0.0,0.0,88,0.02,,SKC,0.04,VWS V14.01,2013-01-27 03:40:00,
2013-01-26 20:45:00,34.1,30.9,29.97,West,273,0.0,0.0,88,0.01,,SKC,0.04,VWS V14.01,2013-01-27 03:45:00,
2013-01-26 20:50:00,34.1,30.9,29.96,West,277,0.0,0.0,88,0.01,,SKC,0.04,VWS V14.01,2013-01-27 03:50:00,
2013-01-26 20:56:00,34.0,31.1,29.96,West,277,0.0,0.0,89,0.01,,SKC,0.04,VWS V14.01,2013-01-27 03:56:00,
2013-01-26 21:01:00,33.9,31.0,29.96,West,279,0.0,0.0,89,0.01,,SKC,0.04,VWS V14.01,2013-01-27 04:01:00,
2013-01-26 21:06:00,33.9,31.0,29.95,North,360,0.0,0.0,89,0.01,,SKC,0.04,VWS V14.01,2013-01-27 04:06:00,
2013-01-26 21:12:00,34.0,31.1,29.95,West,278,0.0,0.0,89,0.01,,SKC,0.04,VWS V14.01,2013-01-27 04:12:00,
2013-01-26 21:17:00,34.0,31.1,29.95,West,275,0.0,0.0,89,0.01,,SKC,0.04,VWS V14.01,2013-01-27 04:17:00,
2013-01-26 21:22:00,34.0,31.1,29.95,West,275,0.0,0.0,89,0.01,,SKC,0.04,VWS V14.01,2013-01-27 04:22:00,
2013-01-26 21:29:00,33.8,30.9,29.95,West,269,0.0,0.0,89,0.00,,SKC,0.04,VWS V14.01,2013-01-27 04:29:00,
2013-01-26 21:35:00,33.8,30.9,29.95,North,360,0.0,0.0,89,0.00,,SKC,0.04,VWS V14.01,2013-01-27 04:35:00,
2013-01-26 21:40:00,33.8,30.9,29.94,West,272,0.0,0.0,89,0.00,,SKC,0.04,VWS V14.01,2013-01-27 04:40:00,
2013-01-26 21:45:00,33.9,31.3,29.94,West,277,0.0,0.0,90,0.00,,SKC,0.04,VWS V14.01,2013-01-27 04:45:00,
2013-01-26 21:50:00,33.9,31.3,29.94,West,275,0.0,0.0,90,0.00,,SKC,0.04,VWS V14.01,2013-01-27 04:50:00,
2013-01-26 21:56:00,34.0,31.4,29.93,West,271,0.0,0.0,90,0.00,,SKC,0.04,VWS V14.01,2013-01-27 04:56:00,
2013-01-26 22:01:00,34.0,31.4,29.93,West,272,0.0,0.0,90,0.00,,SKC,0.04,VWS V14.01,2013-01-27 05:01:00,
2013-01-26 22:02:00,34.0,31.4,29.93,West,271,0.0,0.0,90,0.00,,SKC,0.04,VWS V14.01,2013-01-27 05:02:00,
2013-01-26 22:04:00,34.0,31.4,29.93,West,277,0.0,0.0,90,0.00,,SKC,0.04,VWS V14.01,2013-01-27 05:04:00,
2013-01-26 22:10:00,34.0,31.4,29.93,North,360,0.0,0.0,90,0.00,,SKC,0.04,VWS V14.01,2013-01-27 05:10:00,
2013-01-26 22:14:00,34.1,31.5,29.93,West,276,0.0,0.0,90,0.00,,SKC,0.04,VWS V14.01,2013-01-27 05:14:00,
2013-01-26 22:19:00,34.1,31.5,29.92,West,273,0.0,0.0,90,0.00,,SKC,0.04,VWS V14.01,2013-01-27 05:19:00,
2013-01-26 22:24:00,34.0,31.4,29.92,West,280,0.0,0.0,90,0.00,,SKC,0.04,VWS V14.01,2013-01-27 05:24:00,
2013-01-26 22:29:00,33.9,31.3,29.92,West,272,0.0,0.0,90,0.00,,SKC,0.04,VWS V14.01,2013-01-27 05:29:00,
2013-01-26 22:34:00,33.9,31.0,29.92,West,275,0.0,0.0,89,0.00,,SKC,0.04,VWS V14.01,2013-01-27 05:34:00,
2013-01-26 22:39:00,33.9,31.0,29.92,West,275,0.0,0.0,89,0.00,,SKC,0.04,VWS V14.01,2013-01-27 05:39:00,
2013-01-26 22:44:00,33.8,30.9,29.91,West,276,0.0,0.0,89,0.00,,SKC,0.04,VWS V14.01,2013-01-27 05:44:00,
2013-01-26 22:50:00,33.8,30.9,29.92,West,275,0.0,0.0,89,0.00,,SKC,0.04,VWS V14.01,2013-01-27 05:50:00,
2013-01-26 22:55:00,33.8,30.9,29.91,West,277,0.0,0.0,89,0.00,,SKC,0.04,VWS V14.01,2013-01-27 05:55:00,
2013-01-26 23:00:00,33.7,30.8,29.91,North,360,0.0,0.0,89,0.00,,SKC,0.04,VWS V14.01,2013-01-27 06:00:00,
2013-01-26 23:05:00,33.6,30.4,29.91,North,360,1.0,1.0,88,0.00,,SKC,0.04,VWS V14.01,2013-01-27 06:05:00,
2013-01-26 23:10:00,33.5,30.3,29.91,West,280,0.0,0.0,88,0.00,,SKC,0.04,VWS V14.01,2013-01-27 06:10:00,
2013-01-26 23:15:00,33.3,30.1,29.91,West,276,0.0,0.0,88,0.00,,SKC,0.04,VWS V14.01,2013-01-27 06:15:00,
2013-01-26 23:21:00,33.0,29.8,29.91,West,273,0.0,0.0,88,0.00,,SKC,0.04,VWS V14.01,2013-01-27 06:21:00,
2013-01-26 23:26:00,33.0,30.1,29.90,North,360,0.0,0.0,89,0.00,,SKC,0.04,VWS V14.01,2013-01-27 06:26:00,
2013-01-26 23:31:00,32.8,29.9,29.91,West,277,0.0,0.0,89,0.00,,SKC,0.04,VWS V14.01,2013-01-27 06:31:00,
2013-01-26 23:36:00,32.8,29.9,29.90,West,277,0.0,0.0,89,0.00,,SKC,0.04,VWS V14.01,2013-01-27 06:36:00,
2013-01-26 23:42:00,33.0,30.1,29.90,West,277,0.0,0.0,89,0.00,,SKC,0.04,VWS V14.01,2013-01-27 06:42:00,
2013-01-26 23:48:00,32.9,30.0,29.90,West,275,0.0,0.0,89,0.00,,SKC,0.04,VWS V14.01,2013-01-27 06:48:00,
2013-01-26 23:53:00,32.8,29.6,29.90,West,276,0.0,1.0,88,0.00,,SKC,0.04,VWS V14.01,2013-01-27 06:53:00,
2013-01-26 23:58:00,32.6,29.5,29.90,West,278,0.0,0.0,88,0.00,,SKC,0.04,VWS V14.01,2013-01-27 06:58:00,